     2.10           OBSERVATION DATA    G (GPS)             RINEX VERSION / TYPE
teqc 2000Jul20 Karen Wendt 20040726 21:09:40UTC             PGM / RUN BY / DATE
Linux 2.0.36|Pentium II|gcc -static|Linux|486/DX+           COMMENT
teqc 2000Jul20 Karen Wendt 20040726 21:09:40UTC             COMMENT
BIT 2 OF LLI FLAGS DATA COLLECTED UNDER A/S CONDITION       COMMENT
cvr3 Covelo_No3_1942_USC&GS                                 MARKER NAME
CHS USGS                                                    OBSERVER / AGENCY
LP019992809 ASHTECH Z-XII3 CD00                             REC # / TYPE / VERS
CR520031626 ASH701945E_M NONE                               ANT # / TYPE
 -2691615.0000 -4105672.0000  4058738.0000                  APPROX POSITION XYZ
        1.3581        0.0000        0.0000                  ANTENNA: DELTA H/E/N
     1     1                                                WAVELENGTH FACT L1/2
     5    C1    L1    L2    P1    P2                        # / TYPES OF OBSERV
    30.0000                                                 INTERVAL
                                                            COMMENT
National Earthquake Hazard Reduction Program                COMMENT
Crustal Strain Project                                      COMMENT
345 Middlefield Road, MS/977                                COMMENT
U.S. Geological Survey, Menlo Park, California 94025        COMMENT
Contact: kwendt@usgs.gov (Ph: 650-329-4866)                 COMMENT
Antenna height is vertical to base of antenna               COMMENT
                                                            COMMENT
SNR is mapped to RINEX snr flag value [1-9]                 COMMENT
L1: 1 -> 1; 90 -> 5; 210 -> 9                               COMMENT
L2: 1 -> 1; 150 -> 5; 250 -> 9                              COMMENT
  2004     7    13    16    53    0.0000000     GPS         TIME OF FIRST OBS
                                                            END OF HEADER
 04  7 13 16 53  0.0000000  0  6G22G21G19G18G15G 3
  20786770.694       32221.23949     22713.13648  20786770.209    20786773.015
  22774934.259      197855.69849    143675.80346                  22774933.232
  22774939.371     -180647.15849   -126695.57243
  22106819.877      165418.64149    117569.27646                  22106817.688
  22106823.043       -2942.01549     -3603.79443
  21817723.010       55779.06749     39961.12447  21817723.385    21817729.369
 04  7 13 16 53 29.9990000  0  5G22G21G18G15G 3
  20489206.790       43929.17049     31836.19048  20489205.838    20489208.553
  22489306.689      272279.31849    201668.17846  22489303.539    22489309.225
  21817695.516      221486.40849    161258.44546  21817694.864    21817699.878
                     -3667.37749      -328.36247                  19907794.435
  21521660.048       75377.16249     55232.35347  21521660.254    21521666.305
 04  7 13 16 54  0.0000000  0  6G22G21G18G15G 3G14
  20587266.376    -1016183.97549   -794225.99248  20587265.513    20587268.265
  22599302.130     -725105.93449   -575515.16446  22599300.119    22599305.596
  21924175.981     -794377.42149   -630323.79846  21924175.119    21924179.974
  20003515.489    -1076042.22549   -835945.13748  20003514.605    20003520.735
  21621275.639     -976567.81249   -764465.06847                  21621274.443
  21621280.302    -1269433.84349   -971026.14343
 04  7 13 16 54 30.0000000  0  6G22G21G18G15G 3G14
  20591207.820     -995470.58949   -778085.69648  20591207.184    20591210.007
  22615181.839     -641655.51249   -510488.92446  22615180.157    22615185.569
  21936516.674     -729527.54749   -579791.46646  21936515.736    21936520.578
  20005156.826    -1067416.81849   -829224.04548  20005155.849    20005162.073
  21626823.942     -947409.17549   -741744.05947                  21626823.112
  21626829.169    -1336889.60349   -839654.53645                  21072620.517
 04  7 13 16 55  0.0000000  0  6G22G21G18G15G 3G14
  20595199.052     -974496.27649   -761742.08348  20595198.491    20595201.402
  22631113.399     -557932.96249   -445250.63046  22631112.156    22631117.233
  21948885.697     -664528.57449   -529142.95646  21948884.794    21948889.574
  20006881.214    -1058354.96249   -822162.86048  20006880.305    20006886.373
  21632475.058     -917712.68549   -718603.96347  21632474.180    21632480.411
  21059868.483    -1403875.40449   -891851.27447  21059867.667    21059872.945
 04  7 13 16 55 30.0000000  0  6G22G21G18G15G 3G14
  20599239.647     -953262.97349   -745196.65548  20599239.094    20599242.042
  22647096.822     -473940.32849   -379801.88346  22647095.522    22647100.728
  21961282.114     -599382.05149   -478379.48645  21961278.393    21961285.997
  20008688.689    -1048856.73549   -814761.65148  20008687.793    20008693.758
  21638228.072     -887480.43749   -695046.40147  21638227.257    21638233.471
  21047211.167    -1470390.32449   -943681.04447  21047210.599    21047215.453
 04  7 13 16 56  0.0000000  0  7G22G21G18G19G15G 3G14
  20603329.836     -931768.61249   -728447.80548  20603329.342    20603332.378
  22663131.591     -389675.91749   -314141.33746  22663130.460    22663136.011
  21973707.278     -534086.28749   -427499.76945  21973705.418    21973712.332
                  -1083909.58449   -829898.67346                  22591774.016
  20010579.931    -1038918.78749   -807017.78848  20010578.974    20010584.881
  21644083.188     -856711.16549   -671070.36347  21644082.374    21644088.642
  21034644.164    -1536430.42349   -995140.83847  21034643.599    21034648.485
 04  7 13 16 56 30.0000000  0  7G22G21G18G19G15G 3G14
  20607468.836     -910017.75549   -711499.09548  20607468.347    20607471.430
  22679217.621     -305143.90049   -248272.31446  22679216.594    22679221.715
  21986160.627     -468645.97149   -376507.34845  21986159.478    21986165.353
  22581471.050    -1138030.95849   -872071.18346  22581470.264    22581475.252
  20012554.332    -1028543.83249   -798933.41948  20012553.388    20012559.258
  21650039.432     -825409.82849   -646679.72847  21650038.780    21650045.194
  21022167.165    -1601997.40349  -1046231.95747  21022166.567    21022171.477
 04  7 13 16 57  0.0000000  0  7G22G21G18G19G15G 3G14
  20611656.553     -888010.63949   -694350.69548  20611656.167    20611659.243
  22695354.625     -220344.13349   -182194.60846  22695353.563    22695358.775
  21998640.865     -403061.14849   -325402.27045  21998639.878    21998645.707
  22571267.778    -1191651.77449   -913853.63446  22571266.667    22571271.061
  20014612.050    -1017730.30849   -790507.30348  20014611.153    20014617.045
  21656097.054     -793577.21249   -621875.12647  21656096.386    21656102.787
  21009780.633    -1667088.76049  -1096952.47647  21009780.032    21009785.114
 04  7 13 16 57 30.0000000  0  7G22G21G18G19G15G 3G14
  20615893.027     -865748.92249   -677003.90148  20615892.545    20615895.564
  22711541.935     -135278.70449   -115909.89746  22711541.087    22711546.512
  22011148.747     -337333.57149   -274185.97145  22011147.869    22011153.163
  22561159.610    -1244771.11949   -955245.30346  22561158.405    22561162.716
  20016753.378    -1006478.46949   -781739.65048  20016752.421    20016758.289
  21662255.582     -761215.45449   -596658.19847  21662254.743    21662260.980
  20997484.799    -1731703.90149  -1147301.90047  20997484.184    20997489.195
 04  7 13 16 58  0.0000000  0  7G22G21G18G19G15G 3G14
  20620176.709     -843237.49849   -659462.53848  20620176.299    20620179.204
  22727779.279      -49951.94949    -49421.58346  22727778.197    22727783.607
  22023682.521     -271467.97649   -222862.07445  22023681.772    22023686.816
  22551146.119    -1297391.11949   -996247.85446  22551145.097    22551149.627
  20018977.316     -994791.47149   -772632.89148  20018976.361    20018982.232
  21668513.518     -728330.10049   -571033.27447  21668512.691    21668518.793
  20985279.115    -1795845.14649  -1197282.07347  20985278.494    20985283.523
 04  7 13 16 58 30.0000000  0  7G22G21G18G19G15G 3G14
  20624508.904     -820472.38449   -641723.49248  20624508.460    20624511.330
  22744066.635       35639.61849     17273.08246  22744065.770    22744071.218
  22036242.670     -205460.43649   -171427.55445  22036242.106    22036247.445
  22541229.506    -1349504.96049  -1036856.04446  22541228.282    22541232.663
  20021285.230     -982663.43849   -763182.48148  20021284.313    20021290.082
  21674871.813     -694917.39749   -544997.43147  21674870.998    21674876.998
  20973164.765    -1859505.75549  -1246887.72547  20973164.211    20973169.223
 04  7 13 16 59  0.0000000  0  7G22G21G18G19G15G 3G14
  20628889.169     -797453.80349   -623786.94248  20628888.728    20628891.534
  22760404.888      121496.05849     84174.15446  22760403.840    22760409.086
  22048830.999     -139310.99549   -119882.50245  22048830.332    22048835.213
  22531409.680    -1401110.28849  -1077067.99346  22531408.200    22531412.405
  20023677.368     -970093.01949   -753387.35448  20023676.427    20023682.192
  21681330.388     -660978.45849   -518551.54347  21681329.548    21681335.284
  20961142.393    -1922683.89649  -1296117.41747  20961141.873    20961146.785
 04  7 13 16 59 30.0000000  0  7G22G21G18G19G15G 3G14
  20633317.229     -774183.59349   -605654.31648  20633316.852    20633319.705
  22776793.150      207615.87549    151280.46546  22776792.105    22776797.403
  22061445.645      -73021.52849    -68228.42845  22061445.027    22061450.085
  22521686.539    -1452205.82649  -1116882.69646  22521685.072    22521689.220
  20026153.574     -957080.24149   -743247.52548  20026152.673    20026158.569
  21687888.300     -626515.29249   -491697.13647  21687887.538    21687893.529
  20949212.089    -1985378.46049  -1344970.30047  20949211.523    20949216.493
 04  7 13 17  0  0.0000000  0  7G22G21G18G19G15G 3G14
  20637793.918     -750658.73649   -587323.26848  20637793.533    20637796.424
  22793231.515      294001.60249    218593.96846  22793230.674    22793236.016
  22074087.685       -6589.44349    -16463.25745  22074086.918    22074091.503
  22512061.332    -1502786.30649  -1156296.04347  22512060.015    22512064.243
  20028714.776     -943620.74449   -732759.62548  20028713.830    20028719.832
  21694546.626     -591525.83649   -464432.66147  21694545.858    21694551.887
  20937374.610    -2047584.41849  -1393442.45347  20937374.097    20937378.986
 04  7 13 17  0 30.0000000  0  7G22G21G18G19G15G 3G14
  20642318.714     -726880.82549   -568795.03748  20642318.291    20642321.196
  22809721.033      380651.95449    286113.64746  22809719.930    22809724.975
  22086756.541       59983.90849     35411.96145  22086755.965    22086760.040
  22502534.765    -1552850.49149  -1195307.11647  22502533.320    22502537.342
  20031361.030     -929714.35649   -721923.48848  20031360.138    20031366.197
  21701304.476     -556012.16149   -436759.69047  21701303.861    21701310.071
  20925630.485    -2109300.85449  -1441533.16248  20925629.898    20925634.799
 04  7 13 17  1  0.0000000  0  7G22G21G18G19G15G 3G14
  20646890.705     -702854.65149   -550073.33648  20646890.375    20646893.329
  22826259.446      467562.46249    353836.07746  22826258.420    22826263.588
  22099451.052      126694.08249     87393.76145  22099451.018    22099454.673
  22493105.895    -1602400.33549  -1233917.39146  22493104.437    22493108.217
  20034091.806     -915364.33949   -710741.66048  20034090.897    20034096.891
  21708161.030     -519979.57549   -408682.37347  21708160.573    21708166.956
  20913978.977    -2170530.06949  -1489244.22548  20913978.364    20913983.262
 04  7 13 17  1 30.0000000  0  7G22G21G18G19G15G 3G14
  20651510.295     -678579.57849   -531157.70648  20651509.847    20651512.921
  22842847.493      554733.40049    421761.43946  22842846.496    22842851.755
  22112172.447      193541.67949    139482.68245  22112171.624    22112175.494
  22483775.342    -1651432.58249  -1272124.32246  22483773.769    22483777.728
  20036907.494     -900568.53349   -699212.46648  20036906.538    20036912.451
  21715116.795     -483428.09149   -380200.73647  21715116.178    21715122.538
  20902420.775    -2231268.89749  -1536573.16948  20902420.136    20902425.137
 04  7 13 17  2  0.0000000  0  7G22G21G18G19G15G 3G14
  20656176.944     -654055.63949   -512048.15648  20656176.596    20656179.684
  22859485.249      642165.06749    489889.93446  22859484.398    22859489.642
  22124919.415      260526.36948    191678.70445  22124918.397    22124922.163
  22474543.038    -1699944.94249  -1309926.11246  22474541.798    22474546.211
  20039808.231     -885325.41649   -687334.72248  20039807.320    20039813.060
  21722170.834     -446358.64649   -351315.48747  21722170.255    21722176.654
  20890956.375    -2291515.18349  -1583518.30648  20890955.682    20890960.601
 04  7 13 17  2 30.0000000  0  7G22G21G18G19G15G 3G14
  20660890.998     -629284.05349   -492745.61748  20660890.613    20660893.635
  22876172.356      729855.58649    558220.15746  22876171.266    22876176.795
  22137691.971      327647.08549    243980.76644  22137693.273    22137693.645
  22465410.698    -1747935.99149  -1347321.73046  22465409.470    22465413.810
  20042794.191     -869634.65849   -675108.16848  20042793.243    20042798.892
  21729323.035     -408773.11949   -322028.08847  21729322.583    21729329.147
  20879585.812    -2351268.01549  -1630078.94748  20879585.114    20879590.112
 04  7 13 17  3  0.0000000  0  7G22G21G18G19G15G 3G14
  20665652.250     -604263.70549   -473249.26248  20665651.887    20665654.903
  22892908.387      817806.08349    626752.97246  22892907.700    22892913.226
  22150491.559      394904.93648    296389.48944  22150492.497    22150496.066
  22456378.157    -1795401.97649  -1384308.22246  22456377.034    22456381.235
  20045865.754     -853493.74749   -662530.83548  20045864.767    20045870.349
  21736573.902     -370671.26049   -292338.37747  21736573.303    21736579.647
  20868309.757    -2410524.01449  -1676252.43648  20868309.090    20868314.048
 04  7 13 17  3 30.0000000  0  7G22G21G18G19G15G 3G14
  20670459.613     -579001.32749   -453564.28948  20670459.229    20670462.225
  22909693.335      906009.89449    695483.14145  22909692.509    22909697.676
  22163313.449      462293.40549    348899.90944  22163313.379    22163319.526
  22447444.876    -1842347.16149  -1420888.88747  22447443.788    22447447.879
  20049021.978     -836907.80149   -649606.73848  20049020.972    20049026.588
  21743921.069     -332060.70749   -262252.25647  21743920.617    21743926.920
  20857127.356    -2469287.74349  -1722042.34048  20857126.732    20857131.691
 04  7 13 17  4  0.0000000  0  7G22G21G18G19G15G 3G14
  20675314.169     -553490.75649   -433685.92948  20675313.768    20675316.755
  22926527.587      994473.35449    764415.66745  22926526.476    22926531.651
  22176163.028      529818.64749    401516.88445  22176162.672    22176168.957
  22438612.439    -1888762.79649  -1457056.90947  22438611.312    22438615.396
  20052264.356     -819868.96049   -636329.72648  20052263.367    20052269.051
  21751366.205     -292935.92149   -231765.43247  21751365.902    21751372.220
  20846040.311    -2527550.46149  -1767441.85348  20846039.647    20846044.724
 04  7 13 17  4 30.0000000  0  7G22G21G18G19G15G 3G14
  20680214.581     -527739.24349   -413619.82648  20680214.185    20680217.161
  22943409.137     1083189.18549    833544.83546  22943408.309    22943413.884
  22189036.760      597473.40449    454234.77744  22189036.410    22189043.300
  22429879.876    -1934653.30749  -1492815.73347  22429878.748    22429882.745
  20055591.877     -802382.90749   -622704.24548  20055590.873    20055596.624
  21758908.049     -253304.86749   -200884.12747  21758907.502    21758913.737
  20835047.697    -2585317.10249  -1812454.80548  20835047.027    20835052.021
 04  7 13 17  5  0.0000000  0  8G22G21G 9G18G19G15G 3G14
  20685160.982     -501745.77649   -393365.17848  20685160.561    20685163.519
  22960339.602     1172157.90449    902871.06346  22960338.768    22960344.387
                   -868571.75749   -675324.27143
  22201936.009      665258.58349    507054.29844  22201935.929    22201941.923
  22421247.798    -1980015.41949  -1528162.80147  22421246.713    22421250.688
  20059004.873     -784447.48149   -608728.60448  20059003.890    20059009.658
  21766545.954     -213167.31849   -169608.14047  21766545.504    21766551.802
  20824150.122    -2642584.55149  -1857078.77248  20824149.481    20824154.344
 04  7 13 17  5 30.0000000  0  8G22G21G 9G18G19G15G 3G14
  20690152.934     -475512.97649   -372924.03248  20690152.535    20690155.354
  22977317.564     1261376.68249    972392.12346  22977316.684    22977322.417
                   -871000.17749   -677216.22744                  23447430.228
  22214859.754      733171.54348    559973.49644  22214859.354    22214864.282
  22412716.512    -2024849.46349  -1563098.42447  22412715.180    22412719.133
  20062503.285     -766063.72749   -594403.60948  20062502.289    20062508.058
  21774279.649     -172526.96749   -137940.37547  21774279.210    21774285.529
  20813347.424    -2699353.28849  -1901314.14148  20813346.740    20813351.732
 04  7 13 17  6  0.0000000  0  8G22G21G 9G18G19G15G 3G14
  20695190.439     -449040.18349   -352295.90748  20695190.018    20695193.060
  22994343.176     1350846.58949   1042108.87046  22994342.179    22994347.665
  23447080.650     -872821.81549   -678635.64745  23447080.314    23447085.123
  22227806.865      801213.39149    612993.18844  22227806.299    22227812.266
  22404285.806    -2069152.18349  -1597620.02047  22404284.527    22404288.554
  20066087.347     -747229.48749   -579727.59448  20066086.377    20066092.147
  21782108.969     -131383.74749   -105880.75047  21782108.500    21782114.904
  20802640.154    -2755620.42649  -1945158.64348  20802639.432    20802644.378
 04  7 13 17  6 30.0000000  0  8G22G21G 9G18G19G15G 3G14
  20700273.978     -422326.42049   -331479.98248  20700273.568    20700276.487
  23011416.652     1440568.44949   1112021.90145  23011415.799    23011421.087
  23446848.665     -874034.07249   -679580.27245  23446848.515    23446854.906
  22240780.064      869385.17149    666114.04845  22240779.557    22240785.291
  22395956.987    -2112920.04849  -1631724.88147  22395955.803    22395959.708
  20069757.545     -727942.16749   -564698.52048  20069756.626    20069762.411
  21790034.014      -89737.64849    -73429.27047  21790033.593    21790040.100
  20792028.895    -2811382.76249  -1988609.80448  20792028.169    20792033.197
 04  7 13 17  7  0.0000000  0  8G22G21G 9G18G19G15G 3G14
  20705402.785     -395374.38849   -310478.41348  20705402.318    20705405.312
  23028537.713     1530539.41149   1182129.12046  23028536.934    23028542.268
  23446732.507     -874637.87749   -680050.80145  23446732.996    23446739.794
  22253777.361      937684.10549    719333.86645  22253776.622    22253782.204
  22387729.922    -2156153.66349  -1665413.39447  22387728.668    22387732.791
  20073513.955     -708203.28749   -549317.59048  20073512.936    20073518.687
  21798054.296      -47592.50549    -40588.93447  21798053.741    21798060.231
  20781513.623    -2866641.01849  -2031668.17148  20781512.908    20781517.956
 04  7 13 17  7 30.0000000  0  8G22G21G 9G18G19G15G 3G14
  20710576.832     -368184.52649   -289291.52748  20710576.416    20710579.373
  23045706.664     1620758.87849   1252429.89946  23045705.460    23045710.512
  23446734.186     -874632.26349   -680046.47344  23446734.234    23446739.953
  22266798.028     1006109.75549    772652.42045  22266797.316    22266803.170
  22379604.662    -2198850.97449  -1698684.00347  22379603.623    22379607.886
  20077356.239     -688011.97949   -533584.11248  20077355.216    20077361.064
  21806169.098       -4949.68749     -7360.80347  21806168.443    21806174.829
  20771094.563    -2921393.37249  -2074332.33348  20771093.921    20771098.809
 04  7 13 17  8  0.0000000  0  8G22G21G 9G18G19G15G 3G14
  20715795.951     -340757.86449   -267920.11048  20715795.533    20715798.439
  23062921.491     1711225.71449   1322923.46946  23062920.493    23062925.928
  23446851.830     -874016.56649   -679566.70044  23446851.501    23446857.319
  22279843.696     1074661.21749    826069.11445  22279842.935    22279847.887
  22371582.112    -2241010.49349  -1731535.57247  22371581.086    22371585.270
  20081284.484     -667367.77749   -517497.73548  20081283.576    20081289.567
  21814378.127       38188.93249     26253.67647  21814377.491    21814383.853
  20760771.978    -2975638.86449  -2116601.54148  20760771.307    20760776.251
 04  7 13 17  8 30.0000000  0  8G22G21G 9G18G19G15G 3G14
  20721059.897     -313095.85849   -246365.30548  20721059.479    20721062.344
  23080183.250     1801938.14649   1393608.39846  23080182.482    23080188.011
  23447084.857     -872790.70849   -678611.53544  23447084.612    23447091.018
  22292912.247     1143337.34749    879582.97945  22292911.389    22292916.417
  22363662.123    -2282631.30649  -1763967.38547  22363661.000    22363664.962
  20085299.308     -646270.57549   -501058.36348  20085298.307    20085304.364
  21822681.253       81821.05849     60252.68747  21822680.473    21822686.654
  20750546.118    -3029376.75849  -2158475.19948  20750545.367    20750550.277
 04  7 13 17  9  0.0000000  0  8G22G21G 9G18G19G15G 3G14
  20726368.782     -285198.28149   -224626.95248  20726368.324    20726371.150
  23097492.062     1892895.87749   1464484.49446  23097491.219    23097496.658
  23447434.887     -870953.39549   -677179.88344  23447434.430    23447440.787
  22306004.949     1212138.21049    933194.00545  22306004.154    22306008.698
  22355845.039    -2323711.15249  -1795977.66547  22355843.851    22355847.701
  20089400.384     -624719.17749   -484265.09148  20089399.408    20089405.446
  21831077.646      125945.40749     94635.27247  21831077.049    21831083.146
  20740417.109    -3082604.95749  -2199951.70148  20740416.408    20740421.235
 04  7 13 17  9 30.0000000  0  8G22G21G 9G18G19G15G 3G14
  20731721.903     -257067.13449   -202706.58648  20731721.468    20731724.408
  23114847.197     1984097.04249   1535550.27546  23114846.175    23114851.767
  23447900.627     -868505.19649   -675272.20345  23447900.117    23447907.660
  22319120.353     1281061.68049    986900.59145  22319119.953    22319124.293
  22348131.068    -2364249.82149  -1827566.21447  22348129.671    22348133.610
  20093587.763     -602714.17549   -467118.33648  20093586.799    20093592.887
  21839567.524      170559.31349    129399.32247  21839566.793    21839572.896
  20730385.128    -3135323.61349  -2241031.15848  20730384.443    20730389.187
 04  7 13 17 10  0.0000000  0  8G22G21G 9G18G19G15G 3G14
  20737119.630     -228701.96349   -180603.86448  20737119.172    20737122.172
  23132248.534     2075542.16549   1606806.11046  23132247.798    23132253.401
  23448483.335     -865444.01549   -672886.73645  23448482.763    23448489.778
  22332259.333     1350108.64048   1040703.48744  22332259.187    22332262.741
  22340520.357    -2404244.32549  -1858730.77247  22340519.090    22340522.823
  20097862.033     -580253.42649   -449616.47648  20097861.000    20097866.889
  21848150.293      215662.01949    164544.24447  21848149.700    21848155.590
  20720450.638    -3187530.02849  -2281711.46448  20720449.981    20720454.682
 04  7 13 17 10 30.0000000  0  8G22G21G 9G18G19G15G 3G14
  20742561.501     -200104.24549   -158319.94048  20742561.124    20742564.140
  23149696.087     2167229.59249   1678250.76546  23149695.338    23149700.869
  23449182.170     -861770.02248   -670023.83244  23449181.483    23449189.346
  22345421.747     1419277.50649   1094601.32144  22345421.475    22345424.989
  22333013.389    -2443693.85649  -1889470.67047  22333012.048    22333015.867
  20102222.815     -557337.29449   -431759.75948  20102221.822    20102227.746
  21856825.635      261251.12049    200068.18547  21856825.025    21856830.813
  20710613.671    -3239223.85549  -2321992.35848  20710613.011    20710617.707
 04  7 13 17 11  0.0000000  0  8G22G21G 9G18G19G15G 3G14
  20748047.718     -171274.54749   -135855.25448  20748047.266    20748050.312
  23167189.996     2259158.20749   1749883.40146  23167189.119    23167194.543
  23449997.579     -857482.29948   -666682.74844  23449995.277    23450006.356
  22358606.963     1488567.83648   1148593.74244  22358607.090    22358610.994
  22325610.371    -2482596.84949  -1919784.70347  22325609.013    22325612.748
  20106670.270     -533965.22849   -413547.76948  20106669.302    20106675.299
  21865593.405      307324.87449    235969.76947  21865592.655    21865598.520
  20700874.479    -3290403.56649  -2361872.63048  20700873.893    20700878.527
 04  7 13 17 11 30.0000000  0  8G22G21G 9G18G19G15G 3G14
  20753577.869     -142213.18349   -113210.06148  20753577.437    20753580.521
  23184729.246     2351327.42849   1821703.47445  23184728.367    23184733.702
  23450930.597     -852579.91649   -662862.76744  23450930.636    23450937.327
  22371814.868     1557979.39749   1202680.52544  22371814.485
  22318311.378    -2520951.64249  -1949671.54947  22318310.235    22318313.958
  20111204.825     -510136.37449   -394979.84048  20111203.823    20111209.845
  21874452.757      353881.88749    272247.92747  21874452.202    21874458.304
  20691233.391    -3341067.64049  -2401351.11748  20691232.768    20691237.500
 04  7 13 17 12  0.0000000  0  8G22G21G 9G18G19G15G 3G14
  20759151.846     -112922.27949    -90385.98048  20759151.408    20759154.408
  23202313.617     2443735.00849   1893709.30945  23202312.964    23202318.363
  23451980.846     -847063.84249   -658564.42845  23451980.891    23451988.204
  22385046.395     1627510.31949   1256860.34244  22385046.283    22385051.716
  22311117.146    -2558757.87749  -1979130.95447  22311115.956    22311119.727
  20115826.017     -485851.36149   -376056.46248  20115825.064    20115831.086
  21883403.557      400919.13449    308900.27547  21883403.045    21883409.193
  20681690.425    -3391215.98549  -2440427.72948  20681689.844    20681694.499
 04  7 13 17 12 30.0000000  0  8G22G21G 9G18G19G15G 3G14
  20764769.244      -83402.98349    -67383.93348  20764768.750    20764771.715
  23219943.861     2536379.54249   1965899.76545  23219942.767    23219948.140
  23453147.779     -840936.18957   -653789.48844  23453147.893    23453154.495
  22398300.892     1697159.09549   1311132.09745  22398300.589    22398306.276
  22304027.077    -2596014.88349  -2008162.37247  22304026.024    22304029.954
  20120534.219     -461110.29049   -356777.72448  20120533.284    20120539.221
  21892445.154      448433.93549    345924.75447  21892444.766    21892451.270
  20672245.831    -3440848.17649  -2479102.15348  20672245.093    20672249.873
 04  7 13 17 13  0.0000000  0  7G22G21G18G19G15G 3G14
  20770429.499      -53657.97149    -44206.03048  20770429.041    20770432.091
  23237618.126     2629258.45149   2038272.88645  23237617.083    23237622.509
  22411576.548     1766923.49349   1365493.96144  22411576.189    22411581.591
  22297042.056    -2632722.98249  -2036766.09847  22297040.829    22297044.771
  20125328.963     -435914.35849   -337144.55048  20125328.005    20125333.862
  21901577.110      496422.45349    383318.35447  21901576.744    21901583.296
  20662899.124    -3489964.76449  -2517374.79648  20662898.503    20662903.224
 04  7 13 17 13 30.0000000  0  7G22G21G18G19G15G 3G14
  20776133.573      -23683.19349    -20849.08248  20776133.092    20776136.216
  23255337.301     2722375.04449   2110831.21645  23255336.555    23255342.145
  22424875.013     1836807.55649   1419949.05044  22424874.731    22424879.582
  22290162.760    -2668875.95949  -2064937.26347  22290161.323    22290165.151
  20130211.173     -410258.37049   -317152.87948  20130210.225    20130216.163
  21910799.801      544887.64149    421083.38947  21910799.369    21910805.979
  20653651.752    -3538560.13149  -2555241.30448  20653651.065    20653655.885
 04  7 13 17 14  0.0000000  0  7G22G21G18G19G15G 3G14
  20781880.742        6518.05449      2684.36248  20781880.273    20781883.253
  23273101.638     2815725.92749   2183572.07245  23273100.757    23273106.104
  22438196.070     1906808.14749   1474494.97145  22438195.781    22438200.480
  22283388.205    -2704475.28949  -2092676.97947  22283386.972    22283390.911
  20135180.454     -384144.44949   -296804.38448  20135179.485    20135185.468
  21920111.998      593824.85149    459216.25947  21920111.722    21920118.359
  20644503.163    -3586635.98049  -2592702.98848  20644502.468    20644507.360
 04  7 13 17 14 30.0000000  0  7G22G21G18G19G15G 3G14
  20787670.986       36945.78849     26394.26248  20787670.495    20787673.572
  23290909.727     2909310.59849   2256495.12645  23290909.119    23290914.708
  22451538.929     1976925.21949   1529131.67145  22451538.474    22451542.956
  22276719.688    -2739518.81949  -2119983.66147  22276718.489    22276722.192
  20140237.052     -357571.57549   -276098.26048  20140236.105    20140242.106
  21929514.305      643232.95949    497716.03747  21929513.863    21929520.275
  20635453.837    -3634190.43349  -2629758.38848  20635453.173    20635458.102
 04  7 13 17 15  0.0000000  0  7G22G21G18G19G15G 3G14
  20793503.961       67598.08849     50279.14848  20793503.517    20793506.619
  23308763.107     3003127.49949   2329599.07845  23308762.219    23308767.358
  22464903.631     2047157.33449   1583857.98945  22464903.092    22464908.114
  22270156.943    -2774006.35649  -2146857.07547  22270155.702    22270159.438
  20145380.915     -330540.05749   -255034.75948  20145380.053    20145385.967
  21939005.478      693108.75749    536580.24847  21939005.012    21939011.365
  20626503.828    -3681223.18149  -2666407.26448  20626503.119    20626507.964
 04  7 13 17 15 30.0000000  0  7G22G21G18G19G15G 3G14
  20799379.678       98474.73149     74338.86848  20799379.199    20799382.248
  23326659.722     3097175.29049   2402883.03845  23326658.960    23326664.554
  22478290.380     2117504.08949   1638673.52745  22478289.733    22478294.639
  22263700.295    -2807936.26249  -2173295.97147  22263699.112    22263702.804
  20150612.488     -303049.22749   -233613.35048  20150611.502    20150617.411
  21948585.515      743450.91849    575807.85347  21948584.951    21948591.168
  20617653.384    -3727733.06049  -2702648.70648  20617652.596    20617657.463
 04  7 13 17 16  0.0000000  0  7G22G21G18G19G15G 3G14
  20805298.024      129575.65349     98573.32248  20805297.562    20805300.631
  23344600.449     3191453.88749   2476346.80145  23344599.789    23344605.280
  22491698.908     2187965.47749   1693578.42745  22491698.251    22491702.995
  22257350.026    -2841306.68049  -2199298.88447  22257348.828    22257352.639
  20155931.391     -275098.21349   -211833.36348  20155930.460    20155936.223
  21958253.483      794257.70549    615397.52847  21958253.108    21958259.439
  20608902.599    -3773718.45249  -2738481.47248  20608901.884    20608906.801
 04  7 13 17 16 30.0000000  0  7G22G21G18G19G15G 3G14
  20811258.736      160899.34249    122981.38348  20811258.285    20811261.278
  23362584.927     3285961.81049   2549989.23445  23362584.190    23362589.564
  22505128.657     2258540.33549   1748571.72445  22505128.094    22505133.078
  22251106.313    -2874116.83849  -2224865.24347  22251105.231    22251109.024
  20161337.828     -246687.35149   -189695.04548  20161336.867    20161342.655
  21968009.805      845526.62449    655347.28647  21968009.333    21968015.734
  20600251.784    -3819178.88349  -2773905.17648  20600251.073    20600256.017
 04  7 13 17 17  0.0000000  0  7G22G21G18G19G15G 3G14
  20817261.647      192444.05749    147561.68048  20817261.150    20817263.961
  23380612.339     3380696.41749   2623808.28645  23380611.499    23380616.999
  22518579.983     2329226.62249   1803651.89645  22518579.262    22518584.335
  22244969.145    -2906366.91349  -2249995.17347  22244968.129    22244972.014
  20166831.572     -217817.51849   -167199.07248  20166830.614    20166836.543
  21977853.447      897254.48249    695654.66147  21977852.840    21977859.297
  20591700.674    -3864114.66149  -2808920.05148  20591700.073    20591704.890
 04  7 13 17 17 30.0000000  0  7G22G21G18G19G15G 3G14
  20823306.413      224209.50849    172313.94448  20823305.945    20823308.693
  23398682.992     3475657.26649   2697803.65245  23398682.170    23398687.444
  22532052.446     2400024.55549   1858819.12445  22532051.686    22532056.901
  22238939.391    -2938055.15649  -2274687.33747  22238938.233    22238942.188
  20172412.904     -188487.56949   -144344.59048  20172411.930    20172417.810
  21987784.030      949439.88149    736318.55247  21987783.583    21987789.864
  20583249.846    -3908524.51949  -2843525.11248  20583249.213    20583253.920
 04  7 13 17 18  0.0000000  0  7G22G21G18G19G15G 3G14
  20829392.968      256195.12249    197237.78548  20829392.512    20829395.368
  23416796.494     3570843.62349   2771974.74445  23416795.689    23416801.091
  22545545.741     2470933.51549   1914072.87645  22545545.114    22545550.154
  22233016.562    -2969180.19349  -2298940.58847  22233015.284    22233019.405
  20178081.951     -158696.97849   -121131.16948  20178080.995    20178086.868
  21997801.406     1002080.86249    777337.46947  21997800.859    21997807.098
  20574899.182    -3952407.08849  -2877719.31248  20574898.574    20574903.373
 04  7 13 17 18 30.0000000  0  8G22G21G 9G18G19G15G 3G14
  20835521.291      288400.37649    222332.78748  20835520.859    20835523.851
  23434952.552     3666254.60549   2846320.83845  23434951.780    23434957.330
                   -599805.15949   -467940.08443
  22559060.672     2541953.39349   1969413.03945  22559059.878    22559064.850
  22227200.797    -2999741.02349  -2322754.23547  22227199.680    22227203.868
  20183838.519     -128445.73749    -97558.79148  20183837.560    20183843.545
  22007904.999     1055174.97149    818709.45347  22007904.395    22007910.593
  20566649.133    -3995761.66049  -2911502.08348  20566648.505    20566653.298
 04  7 13 17 19  0.0000000  0  7G22G21G18G19G15G 3G14
  20841691.267      320824.08149    247598.00648  20841690.877    20841693.932
  23453150.709     3761888.29749   2920840.51445  23453150.122    23453155.818
  22572595.982     2613082.75049   2024838.45145  22572595.317    22572600.368
  22221492.580    -3029737.05049  -2346127.76947  22221491.512    22221495.862
  20189682.786      -97733.87149    -73627.48548  20189681.834    20189687.800
  22018094.359     1108719.79849    860432.65947  22018093.641    22018099.846
  20558499.710    -4038587.76549  -2944873.05548  20558498.998    20558503.756
 04  7 13 17 19 30.0000000  0  7G22G21G18G19G15G 3G14
  20847903.014      353465.93049    273033.19948  20847902.587    20847905.524
  23471391.886     3857744.01049   2995533.19245  23471391.242    23471397.062
  22586152.454     2684321.71649   2080349.24945  22586151.774    22586156.626
  22215892.473    -3059166.25349  -2369059.61247  22215891.368    22215895.740
  20195614.909      -66560.47649    -49336.54648  20195613.967    20195619.872
  22028369.285     1162713.98649    902505.99047  22028368.478    22028374.637
  20550451.007    -4080884.17349  -2977831.29048  20550450.299    20550455.123
 04  7 13 17 20  0.0000000  0  8G22G21G 9G18G19G15G 3G14
  20854155.623      386323.52049    298636.47948  20854155.119    20854158.105
  23489674.832     3953819.35549   3070396.99145  23489673.928    23489679.603
                   -555525.82849   -447568.64343
  22599728.688     2755667.73749   2135943.57045  22599728.143    22599733.430
  22210400.335    -3088029.41349  -2391550.40247  22210399.180    22210403.272
  20201634.636      -34927.04549    -24687.14448  20201633.680    20201639.460
  22038728.856     1217153.61949    944926.44947  22038728.126    22038734.262
  20542503.031    -4122651.59949  -3010377.32448  20542502.252    20542507.053
 04  7 13 17 20 30.0000000  0  7G22G21G18G19G15G 3G14
  20860449.138      419395.83449    324407.10148  20860448.711    20860451.634
  23507998.079     4050112.63649   3145430.62445  23507997.652    23508003.849
  22613326.225     2827119.99049   2191620.52345  22613325.600    22613330.260
  22205015.845    -3116326.17749  -2413599.83047  22205014.488    22205018.558
  20207741.861       -2833.82349       320.54548  20207740.862    20207746.655
  22049172.864     1272035.66949    987691.63547  22049171.976    22049178.091
  20534655.580    -4163889.62049  -3042510.82848  20534654.884    20534659.614
 04  7 13 17 21  0.0000000  0  7G22G21G18G19G15G 3G14
  20866784.380      452686.31749    350347.74448  20866783.806    20866786.636
  23526363.727     4146626.41049   3220636.06045  23526363.308    23526369.731
  22626944.078     2898681.89349   2247383.01345  22626943.403    22626948.314
  22199740.030    -3144051.39049  -2435203.90047  22199738.601    22199742.729
  20213937.297       29723.67549     25690.00748  20213936.363    20213942.212
  22059701.077     1327361.95949   1030802.98047  22059700.277    22059706.288
  20526909.949    -4204593.40349  -3074228.04848  20526909.206    20526913.918
 04  7 13 17 21 30.0000000  0  7G22G21G18G19G15G 3G14
  20873160.058      486191.40449    376455.60348  20873159.522    20873162.508
  23544771.232     4243357.42349   3296010.79145  23544770.525    23544777.291
  22640581.903     2970349.98249   2303228.23445  22640581.183    22640586.367
  22194572.432    -3171206.59049  -2456363.79547  22194571.108    22194575.342
  20220220.766       62743.19049     51419.47048  20220219.813    20220225.672
  22070313.301     1383128.20749   1074257.15547  22070312.341    22070318.247
  20519265.373    -4244765.03949  -3105530.61948  20519264.679    20519269.476
 04  7 13 17 22  0.0000000  0  7G22G21G18G19G15G 3G14
  20879576.697      519910.96049    402730.57348  20879576.170    20879579.204
  23563219.760     4340305.02949   3371554.25345  23563219.293    23563225.686
  22654239.594     3042124.65449   2359156.54245  22654239.117    22654244.884
  22189513.446    -3197790.34049  -2477078.44347  22189512.301    22189516.453
  20226592.131       96225.31149     77509.42948  20226591.212    20226597.205
  22081008.302     1439332.23149   1118052.47247  22081007.506    22081013.565
  20511722.522    -4284403.24749  -3136417.51748  20511721.851    20511726.631
 04  7 13 17 22 30.0000000  0  7G22G21G18G19G15G 3G14
  20886033.799      553843.92049    429171.80948  20886033.310    20886036.364
  23581708.778     4437467.26949   3447265.02545  23581708.761    23581715.245
  22667918.351     3114004.91249   2415167.11245  22667917.775    22667923.085
  22184563.409    -3223802.26949  -2497347.46147  22184562.277    22184566.624
  20233051.564      130169.68349    103959.56148  20233050.611    20233056.580
  22091786.540     1495971.59549   1162186.96647  22091785.765    22091791.692
  20504281.170    -4323507.76149  -3166888.55348  20504280.552    20504285.241
 04  7 13 17 23  0.0000000  0  7G22G21G18G19G15G 3G14
  20892531.091      587987.31349    455777.03747  20892530.562    20892533.528
  23600239.222     4534840.56049   3523140.20245  23600238.565    23600244.760
  22681616.147     3185987.41249   2471257.34945  22681615.425    22681620.801
  22179722.209    -3249243.62949  -2517171.87747  22179720.979    22179725.630
  20239598.542      164574.35649    130768.38048  20239597.588    20239603.740
  22102646.311     1553041.87249   1206657.28547  22102645.697    22102651.861
  20496941.186    -4362080.01549  -3196944.84648  20496940.493    20496945.199
 04  7 13 17 23 30.0000000  0  7G22G21G18G19G15G 3G14
  20899068.757      622343.23349    482547.89847  20899068.306    20899071.305
  23618809.320     4632426.96749   3599181.46445  23618808.470    23618815.008
  22695333.565     3258074.59749   2527429.16845  22695333.275    22695338.178
  22174989.969    -3274110.86949  -2536548.96047  22174988.865    22174993.536
  20246233.559      199442.11149    157938.05048  20246232.635    20246238.882
  22113588.457     1610543.54549   1251463.73947  22113587.851    22113594.217
  20489703.093    -4400116.77649  -3226583.87048  20489702.394    20489707.014
 04  7 13 17 24  0.0000000  0  7G22G21G18G19G15G 3G14
  20905646.603      656909.27949    509482.48248  20905646.082    20905649.084
  23637419.897     4730223.53149   3675386.49445  23637418.545    23637425.276
  22709071.084     3330264.42749   2583680.90244  22709070.397    22709074.633
  22170367.158    -3298404.74149  -2555479.25547  22170365.935    22170370.572
  20252956.539      234771.26149    185467.22948  20252955.601    20252961.737
  22124612.258     1668472.36849   1296603.02247  22124611.510    22124617.788
  20482566.626    -4437618.98949  -3255806.36548  20482565.945    20482570.542
 04  7 13 17 24 30.0000000  0  7G22G21G18G19G15G 3G14
  20912264.166      691684.92349    536580.34848  20912263.671    20912266.762
  23656069.885     4828228.87349   3751754.16045  23656068.623    23656075.207
  22722827.777     3402556.08549   2640012.01444  22722826.995    22722830.627
  22165853.474    -3322124.14349  -2573961.90547  22165852.220    22165856.942
  20259767.267      270562.08949    213356.16148  20259766.326    20259772.464
  22135716.237     1726826.31149   1342073.58047  22135715.873    22135722.414
  20475532.091    -4474585.91449  -3284611.75448  20475531.375    20475536.069
 04  7 13 17 25  0.0000000  0  7G22G21G18G19G15G 3G14
  20918921.575      726670.37749    563841.71548  20918921.172    20918924.275
  23674758.649     4926443.07549   3828284.62445  23674757.866    23674764.746
  22736603.896     3474950.11649   2696422.91645  22736603.047    22736607.317
  22161449.386    -3345267.55149  -2591995.75147  22161448.169    22161452.840
  20266666.019      306815.65749    241605.67848  20266665.170    20266671.334
  22146901.434     1785603.76849   1387874.13847  22146900.900    22146907.440
  20468599.615    -4511016.05049  -3312998.86548  20468598.964    20468603.641
 04  7 13 17 25 30.0000000  0  7G22G21G18G19G15G 3G14
  20925619.077      761865.90349    591266.78948  20925618.656    20925621.827
  23693487.831     5024865.81249   3904977.53845  23693487.200    23693494.316
  22750399.262     3547447.34949   2752914.22045  22750398.407    22750403.431
  22157155.495    -3367833.35949  -2609579.51947  22157154.142    22157158.772
  20273653.132      343532.94549    270216.54048  20273652.193    20273658.398
  22158166.702     1844803.57049   1434003.81547  22158166.311    22158172.969
  20461769.649    -4546907.93449  -3340966.55748  20461768.952    20461773.553
 04  7 13 17 26  0.0000000  0  7G22G21G18G19G15G 3G14
  20932355.723      797268.18049    618852.97947  20932355.352    20932358.517
  23712256.475     5123492.87249   3981829.69945  23712255.716    23712262.558
  22764214.269     3620044.19749   2809483.18845  22764213.522    22764218.468
  22152970.721    -3389823.40849  -2626714.60847  22152969.498    22152974.243
  20280727.995      380711.76249    299187.03348  20280727.065    20280733.334
  22169511.577     1904420.62149   1480458.61247  22169510.947    22169517.566
  20455041.699    -4582263.68549  -3368516.48448  20455040.950    20455045.555
 04  7 13 17 26 30.0000000  0  7G22G21G18G19G15G 3G14
  20939131.742      832876.55149    646599.74447  20939131.351    20939134.489
  23731063.548     5222323.16049   4058840.14545  23731062.558    23731069.171
  22778048.043     3692739.95349   2866129.17845  22778047.206    22778052.085
  22148896.070    -3411236.87149  -2643400.45547  22148894.659    22148899.224
  20287890.625      418351.82749    328516.93348  20287889.756    20287896.003
  22180935.203     1964452.65149   1527236.77947  22180934.689    22180941.075
  20448415.795    -4617082.82249  -3395648.27648  20448415.097    20448419.696
 04  7 13 17 27  0.0000000  0  7G22G21G18G19G15G 3G14
  20945947.232      868691.03349    674507.11248  20945946.782    20945949.887
  23749909.048     5321356.23549   4136008.65945  23749908.021    23749914.207
  22791901.180     3765535.27248   2922852.62145  22791900.265    22791904.862
  22144931.184    -3432072.42049  -2659635.92747  22144929.814    22144934.375
  20295141.213      456453.96149    358206.89148  20295140.376    20295146.638
  22192437.619     2024898.07349   1574337.06447  22192437.065    22192443.515
  20441892.337    -4651364.04449  -3422360.91548  20441891.622    20441896.139
 04  7 13 17 27 30.0000000  0  7G22G21G18G19G15G 3G14
  20952801.818      904711.40149    702574.91948  20952801.307    20952804.379
  23768793.338     5420591.50649   4213334.68545  23768792.198    23768798.357
  22805772.125     3838429.43949   2979653.44345  22805771.350    22805776.343
  22141076.295    -3452328.90549  -2675420.20747  22141075.093    22141079.776
  20302479.854      495018.58949    388257.24448  20302478.976    20302485.244
  22204018.269     2085754.78349   1621757.82347  22204017.778    22204024.120
  20435471.471    -4685106.53749  -3448653.75648  20435470.688    20435475.172
 04  7 13 17 28  0.0000000  0  7G22G21G18G19G15G 3G14
  20959695.328      940937.28149    730802.86047  20959694.855    20959697.953
  23787715.489     5520027.66849   4290817.29045  23787714.248    23787720.461
  22819662.803     3911423.21149   3036531.60645  22819662.188    22819666.678
  22137331.628    -3472005.27549  -2690752.43347  22137330.555    22137335.556
  20309906.623      534046.06649    418668.24948  20309905.735    20309912.000
  22215676.822     2147020.71449   1669497.47247  22215676.337    22215682.742
  20429153.046    -4718309.39149  -3474526.10848  20429152.392    20429156.957
 04  7 13 17 28 30.0000000  0  7G22G21G18G19G15G 3G14
  20966627.949      977367.87949    759190.32047  20966627.446    20966630.498
  23806675.493     5619663.61149   4368455.57645  23806674.443    23806680.869
  22833571.607     3984515.24549   3093486.36645  22833571.077    22833575.940
  22133698.078    -3491101.06049  -2705632.26547  22133696.900    22133701.837
  20317421.308      573536.00149    449439.60648  20317420.393    20317426.705
  22227412.610     2208693.22549   1717553.91547  22227412.193    22227418.769
  20422937.425    -4750972.51949  -3499977.89748  20422936.725    20422941.296
 04  7 13 17 29  0.0000000  0  7G22G21G18G19G15G 3G14
  20973599.197     1014001.64449    787736.11347  20973598.660    20973601.656
  23825673.170     5719497.20049   4446247.87145  23825672.189    23825678.791
  22847499.095     4057704.27449   3150516.70545  22847498.506    22847503.596
  22130174.876    -3509616.81449  -2720060.14947  22130173.629    22130178.330
  20325023.901      613487.75149    480570.81848  20325023.019    20325029.311
  22239225.388     2270768.93049   1765924.53747  22239224.925    22239231.489
  20416824.524    -4783096.28349  -3525009.38448  20416823.847    20416828.321
 04  7 13 17 29 30.0000000  0  7G22G21G18G19G15G 3G14
  20980608.848     1050837.85949    816439.65347  20980608.327    20980611.336
  23844708.646     5819526.94049   4524192.98745  23844707.394    23844713.890
  22861445.016     4130989.48149   3207622.02146  22861444.540    22861449.259
  22126761.926    -3527551.69149  -2734035.36947  22126760.712    22126765.354
  20332714.496      653901.57449    512062.08848  20332713.595    20332719.776
  22251114.333     2333245.59449   1814607.63047  22251113.864    22251120.578
  20410814.288    -4814680.42649  -3549620.40648  20410813.588    20410818.100
 04  7 13 17 30  0.0000000  0  7G22G21G18G19G15G 3G14
  20987656.928     1087875.88349    845300.42748  20987656.398    20987659.495
  23863780.927     5919751.52249   4602289.90045  23863779.697    23863785.706
  22875409.289     4204370.69349   3264802.20746  22875408.605    22875413.234
  22123459.760    -3544905.39649  -2747557.77247  22123458.588    22123462.948
  20340492.908      694776.96249    543913.03248  20340491.980    20340498.147
  22263079.110     2396120.52249   1863601.01247  22263078.751    22263085.230
  20404906.804    -4845724.53349  -3573810.60448  20404906.158    20404910.608
 04  7 13 17 30 30.0000000  0  7G22G21G18G19G15G 3G14
  20994743.263     1125114.94949    874317.85448  20994742.752    20994746.005
  23882889.474     6020169.66549   4680537.71245  23882888.620    23882894.987
  22889391.274     4277847.23049   3322056.66045  22889390.614    22889395.492
  22120268.520    -3561677.39649  -2760626.87547  22120267.128    22120271.375
  20348359.119      736113.66649    576123.43848  20348358.195    20348364.260
  22275119.104     2459391.18049   1912902.78947  22275118.646    22275125.366
  20399101.916    -4876228.43449  -3597579.88748  20399101.306    20399105.929
 04  7 13 17 31  0.0000000  0  7G22G21G18G19G15G 3G14
  21001868.064     1162556.06749    903492.73848  21001867.590    21001870.807
  23902035.352     6120781.81749   4758936.67345  23902034.555    23902041.194
  22903391.673     4351419.97949   3379386.06445  22903390.963    22903396.071
  22117187.827    -3577865.58049  -2773241.02647  22117186.511    22117191.012
  20356313.333      777913.60049    608694.80348  20356312.368    20356318.442
  22287234.237     2523056.61949   1962512.16847  22287233.809    22287240.568
  20393400.524    -4906190.12749  -3620926.64548  20393399.833    20393404.407
 04  7 13 17 31 30.0000000  0  7G22G21G18G19G15G 3G14
  21009031.001     1200197.12049    932823.42548  21009030.550    21009033.554
  23921217.747     6221585.03849   4837484.50645  23921216.946    23921223.579
  22917410.165     4425087.40949   3436789.17045  22917409.418    22917414.692
  22114218.218    -3593470.87449  -2785401.00247  22114216.936    22114221.399
  20364355.432      820174.95249    641625.70248  20364354.431    20364360.545
  22299423.820     2587113.23049   2012426.36647  22299423.290    22299430.266
  20387801.931    -4935610.69249  -3643851.75848  20387801.259    20387805.849
 04  7 13 17 32  0.0000000  0  7G22G21G18G19G15G 3G14
  21016231.915     1238037.96249    962309.78447  21016231.416    21016234.462
  23940436.159     6322578.28449   4916180.40545  23940435.732    23940442.177
  22931446.159     4498849.13949   3494265.80245  22931445.491    22931451.467
  22111359.740    -3608492.44949  -2797106.16847  22111358.495    22111362.818
  20372485.314      862898.11749    674916.46548  20372484.392    20372490.600
  22311687.400     2651558.90549   2062643.73347  22311687.010    22311693.834
  20382306.479    -4964489.39949  -3666354.64348  20382305.833    20382310.357
 04  7 13 17 32 30.0000000  0  7G22G21G18G19G15G 3G14
  21023470.455     1276077.42149    991950.92347  21023470.044    21023473.163
  23959690.392     6423759.79049   4995023.04245  23959689.741    23959696.542
  22945500.256     4572704.25449   3551815.17145  22945499.601    22945505.362
  22108612.045    -3622930.56349  -2808356.63347  22108610.967    22108615.479
  20380702.958      906082.28149    708566.44648  20380702.044    20380708.354
  22324024.818     2716390.43349   2113161.75346  22324024.120    22324030.739
  20376914.188    -4992826.63549  -3688435.59548  20376913.466    20376917.948
 04  7 13 17 33  0.0000000  0  8G22G21G 9G18G19G15G 3G14
  21030746.888     1314314.64849   1021746.15347  21030746.397    21030749.483
  23978980.358     6525128.60849   5074011.60245  23978979.768    23978986.555
                   -343686.08949   -273402.79943
  22959571.994     4646652.11249   3609436.82845  22959571.379    22959577.121
  22105976.086    -3636784.76049  -2819152.15247  22105974.762    22105979.141
  20389008.329      949727.29649    742575.53448  20389007.414    20389013.806
  22336434.802     2781604.97749   2163978.22546  22336434.098    22336440.629
  20371624.860    -5020622.37449  -3710094.60148  20371624.158    20371628.592
 04  7 13 17 33 30.0000000  0  8G22G21G 9G18G19G15G 3G14
  21038060.614     1352748.72149   1051694.73848  21038060.094    21038063.313
  23998305.574     6626682.44349   5153144.31445  23998304.770    23998311.776
                   -311764.22049   -248528.39743
  22973661.632     4720692.00649   3667130.20646  22973660.915    22973666.474
  22103450.636    -3650055.31849  -2829492.84147  22103449.351    22103453.816
  20397401.384      993832.63949    776943.30148  20397400.463    20397406.721
  22348917.303     2847199.58249   2215090.84646  22348916.517    22348922.976
  20366438.541    -5047876.70649  -3731331.73748  20366437.799    20366442.265
 04  7 13 17 34  0.0000000  0  7G22G21G18G19G15G 3G14
  21045411.863     1391379.82649   1081796.88548  21045411.415    21045414.692
  24017665.734     6728421.05949   5232421.05445  24017664.777    24017672.367
  22987768.024     4794823.88049   3724895.35445  22987767.578    22987773.411
  22101036.524    -3662740.74149  -2839377.59447  22101035.451    22101039.905
  20405882.047     1038398.89549    811670.24448  20405881.162    20405887.453
  22361471.938     2913172.84549   2266498.53646  22361470.926    22361477.318
  20361355.367    -5074588.56549  -3752146.16548  20361354.747    20361359.173
 04  7 13 17 34 30.0000000  0  7G22G21G18G19G15G 3G14
  21052800.461     1430206.67049   1112051.57648  21052799.980    21052803.174
  24037061.317     6830342.43649   5311840.16245  24037060.258    24037067.190
  23001892.711     4869046.94949   3782731.51845  23001892.003    23001897.475
  22098733.993    -3674841.57949  -2848806.83447  22098732.766    22098737.081
  20414450.261     1083425.25149    846755.70448  20414449.341    20414455.727
  22374097.541     2979521.61849   2318198.83846  22374096.685    22374103.126
  20356375.499    -5100758.50749  -3772538.31848  20356374.755    20356379.147
 04  7 13 17 35  0.0000000  0  7G22G21G18G19G15G 3G14
  21060226.136     1469228.52249   1142458.22447  21060225.599    21060228.618
  24056491.644     6932444.75749   5391400.25245  24056490.347    24056496.855
  23016033.982     4943360.67149   3840638.29045  23016033.370    23016039.049
  22096542.611    -3686357.69749  -2857780.45347  22096541.373    22096545.511
  20423105.853     1128911.07649    882199.18548  20423104.959    20423111.341
  22386794.114     3046242.85149   2370189.35646  22386793.276    22386799.879
  20351498.567    -5126386.61749  -3792508.27148  20351497.871    20351502.285
 04  7 13 17 35 30.0000000  0  7G22G21G18G19G15G 3G14
  21067688.841     1508444.61349   1173016.19147  21067688.293    21067691.206
  24075954.853     7034726.63949   5471100.37145  24075953.645    24075960.663
  23030193.077     5017764.14849   3898614.93545  23030192.190    23030197.324
  22094462.449    -3697288.87549  -2866298.25947  22094461.262    22094465.488
  20431849.079     1174856.15849    918000.52648  20431848.106    20431854.373
  22399561.108     3113333.85649   2422468.00146  22399560.287    22399567.084
  20346724.774    -5151472.99849  -3812056.09348  20346724.056    20346728.439
 04  7 13 17 36  0.0000000  0  7G22G21G18G19G15G 3G14
  21075188.627     1547856.32549   1203726.59947  21075188.001    21075191.056
  24095452.471     7137189.04349   5550941.04045  24095451.705    24095458.690
  23044368.541     5092258.96149   3956662.75445  23044367.946    23044373.438
  22092494.133    -3707632.77949  -2874358.44947  22092492.776    22092497.090
  20440679.975     1221262.30249    954161.13048  20440678.982    20440685.147
  22412398.197     3180793.92249   2475034.22746  22412397.539    22412404.281
  20342054.644    -5176015.32549  -3831179.96748  20342053.829    20342058.200
 04  7 13 17 36 30.0000000  0  7G22G21G18G19G15G 3G14
  21082725.283     1587462.48349   1234588.51948  21082724.753    21082727.912
  24114984.419     7239830.00749   5630920.83245  24114983.535    24114990.620
  23058561.703     5166844.19849   4014780.99045  23058561.011    23058566.537
  22090636.992    -3717390.14249  -2881961.59147  22090635.881    22090640.274
  20449598.254     1268128.58549    990680.29448  20449597.288    20449603.587
  22425305.151     3248620.05949   2527885.70446  22425304.624    22425311.109
  20337487.784    -5200014.11249  -3849880.31448  20337487.051    20337491.412
 04  7 13 17 37  0.0000000  0  7G22G21G18G19G15G 3G14
  21090298.854     1627261.14749   1265600.43448  21090298.320    21090301.455
  24134549.926     7342646.66549   5711037.56445  24134549.099    24134556.208
  23072771.372     5241518.22649   4072968.50445  23072770.754    23072776.374
  22088891.805    -3726561.77849  -2889108.32947  22088890.689    22088894.883
  20458603.903     1315453.65749   1027556.95848  20458602.944    20458609.313
  22438280.993     3316808.27049   2581019.32946  22438280.492    22438287.006
  20333024.132    -5223470.69249  -3868158.16548  20333023.321    20333027.770
 04  7 13 17 37 30.0000000  0  7G22G21G18G19G15G 3G14
  21097908.810     1667251.75849   1296761.96148  21097908.282    21097911.382
  24154148.718     7445637.40449   5791289.91245  24154147.881    24154154.972
  23086998.056     5316280.40049   4131224.78245  23086997.604    23087003.476
  22087258.170    -3735147.64549  -2895798.63347  22087256.800    22087261.032
  20467696.849     1363237.27249   1064790.92048  20467695.909    20467702.215
  22451325.416     3385356.11349   2634433.18246  22451324.831    22451331.282
  20328663.690    -5246385.05749  -3886013.50448  20328662.919    20328667.375
 04  7 13 17 38  0.0000000  0  7G22G21G18G19G15G 3G14
  21105554.960     1707432.97749   1328071.99947  21105554.419    21105557.569
  24173779.596     7548800.24949   5871676.40745  24173779.051    24173786.546
  23101242.210     5391129.73449   4189548.84245  23101241.502    23101247.059
  22085735.615    -3743148.36049  -2902032.97847  22085734.275    22085738.511
  20476877.039     1411478.33749   1102381.33148  20476876.014    20476882.184
  22464437.405     3454260.03149   2688124.49246  22464436.734    22464443.258
  20324406.222    -5268757.65549  -3903446.69048  20324405.517    20324409.849
 04  7 13 17 38 30.0000000  0  6G22G21G19G15G 3G14
  21113237.298     1747803.35749   1359529.39847  21113236.770    21113239.924
  24193443.268     7652133.02549   5952195.27045  24193442.758    24193450.653
  22084323.927    -3750564.64649  -2907811.90447  22084322.751    22084327.193
  20486143.764     1460175.45549   1140327.11748  20486142.778    20486148.973
  22477616.541     3523516.35349   2742090.38846  22477615.910    22477622.449
  20320251.817    -5290589.92049  -3920458.82748  20320251.103    20320255.400
 04  7 13 17 39  0.0000000  0  7G22G21G18G19G15G 3G14
  21120954.998     1788359.85149   1391131.85247  21120954.457    21120957.617
  24213138.291     7755632.10749   6032843.79545  24213137.752    24213145.831
                   -250616.087 9    815301.705 1
  22083023.574    -3757398.71149  -2913137.17447  22083022.371    22083026.688
  20495496.917     1509326.09449   1178626.29048  20495495.903    20495501.989
  22490861.819     3593120.29549   2796327.18346  22490861.151    22490867.815
  20316199.697    -5311883.91049  -3937051.54848  20316198.928    20316203.309
 04  7 13 17 39 30.0000000  0  7G22G21G18G19G15G 3G14
  21128709.109     1829108.04049   1422883.67747  21128708.549    21128711.659
  24232866.767     7859301.90749   6113625.25545  24232865.785    24232873.806
                   -175510.06449   -161969.59843
  22081835.229    -3763644.42749  -2918003.98047  22081833.835    22081837.980
  20504937.392     1558936.01749   1217283.34448  20504936.368    20504942.444
  22504174.059     3663075.56849   2850837.72246  22504173.265    22504179.934
  20312251.134    -5332633.49549  -3953220.04248  20312250.432    20312254.750
 04  7 13 17 40  0.0000000  0  8G22G21G11G18G19G15G 3G14
  21136499.049     1870044.09949   1454781.87847  21136498.437    21136501.503
  24252626.140     7963137.83349   6194536.23545  24252625.207    24252633.371
  24616193.655    -1694842.07149   -784042.61244  24616191.336    24616200.567
                   -100318.85049   -103379.06943                  23158386.943
  22080757.619    -3769305.27449  -2922415.02647  22080756.501    22080760.825
  20514464.341     1609001.13449   1256295.11448  20514463.353    20514469.626
  22517551.835     3733375.81549   2905617.06846  22517551.024    22517557.702
  20308405.492    -5352842.31649  -3968967.16948  20308404.814    20308409.196
 04  7 13 17 40 30.0000000  0  8G22G21G11G18G19G15G 3G14
  21144324.703     1911168.63549   1486826.97147  21144324.069    21144327.234
  24272417.031     8067139.77449   6275576.49145  24272415.957    24272424.126
  24597099.638    -1795181.58549   -862229.15944  24597097.971    24597105.913
                    -25042.00548    -44721.65344                  23172709.591
  22079792.220    -3774379.81349  -2926369.21847  22079790.938    22079795.290
  20524078.268     1659522.56249   1295662.43748  20524077.277    20524083.492
  22530994.521     3804019.50449   2960664.05146  22530993.938    22531000.733
  20304663.028    -5372508.93849  -3984291.80948  20304662.395    20304666.748
 04  7 13 17 41  0.0000000  0  8G22G21G11G18G19G15G 3G14
  21152187.315     1952486.93449   1519023.04548  21152186.775    21152189.830
  24292239.971     8171311.82549   6356749.34944  24292239.063    24292247.217
  24578020.227    -1895446.68949   -940357.75144  24578018.842    24578025.959
  23187044.060       50325.65749     14006.70944  23187047.351    23187048.498
  22078939.223    -3778862.51349  -2929862.22847  22078937.780    22078942.265
  20533780.137     1710505.74249   1335389.56348  20533779.140    20533785.310
  22544503.651     3875009.60149   3015980.95646  22544502.866    22544509.700
  20301024.838    -5391627.97649  -3999189.74248  20301024.183    20301028.434
 04  7 13 17 41 30.0000000  0  8G22G21G11G18G19G15G 3G14
  21160086.137     1993995.21449   1551367.15048  21160085.558    21160088.670
  24312095.352     8275649.85148   6438051.49944  24312094.100    24312102.147
  24558954.335    -1995638.60049  -1018429.37945  24558952.970    24558960.470
  23201403.882      125781.19749     72803.23744  23201403.803    23201408.994
  22078197.993    -3782756.19649  -2932896.27947  22078196.773    22078201.531
  20543569.107     1761947.09949   1375473.70948  20543568.144    20543574.294
  22558077.597     3946340.54849   3071563.45346  22558076.778    22558083.472
  20297490.147    -5410202.67749  -4013663.53048  20297489.491    20297493.800
 04  7 13 17 42  0.0000000  0  8G22G21G11G18G19G15G 3G14
  21168020.302     2035690.55949   1583857.00247  21168019.775    21168023.040
  24331980.535     8380149.59949   6519479.67744  24331979.600    24331987.962
  24539902.836    -2095758.07149  -1096444.47645  24539901.419    24539908.533
  23215779.093      201321.32349    131665.89544  23215778.750    23215785.382
  22077568.758    -3786063.74249  -2935473.58647  22077567.427    22077572.206
  20553444.720     1813843.68049   1415912.59648  20553443.727    20553449.999
  22571715.358     4018007.24149   3127407.58346  22571714.567    22571721.142
  20294058.548    -5428235.45849  -4027715.04148  20294057.986    20294062.254
 04  7 13 17 42 30.0000000  0  8G22G21G11G18G19G15G 3G14
  21175990.018     2077571.53049   1616491.48747  21175989.557    21175992.705
  24351897.731     8484808.89449   6601032.17744  24351896.271    24351903.751
  24520864.817    -2195804.04049  -1174402.25745  24520863.350    24520870.080
  23230169.732      276944.97549    190593.49144  23230169.338    23230175.787
  22077051.061    -3788786.07749  -2937594.92847  22077049.616    22077054.093
  20563406.631     1866194.21249   1456705.19248  20563405.700    20563411.896
  22585416.157     4090005.74749   3183510.25746  22585415.462    22585422.124
  20290730.032    -5445727.50949  -4041345.20348  20290729.371    20290733.670
 04  7 13 17 43  0.0000000  0  8G22G21G11G18G19G15G 3G14
  21183994.805     2119636.60449   1649269.45147  21183994.306    21183997.434
  24371844.134     8589625.44549   6682707.21345  24371842.953    24371850.228
  24501840.138    -2295775.53149  -1252302.03445  24501839.161    24501845.682
  23244576.197      352650.58449    249584.96845  23244575.646    23244581.977
  22076644.228    -3790924.30849  -2939261.08747  22076642.888    22076647.316
  20573454.896     1918997.46349   1497850.55448  20573453.914    20573460.070
  22599179.792     4162332.71349   3239868.87246  22599178.894    22599185.616
  20287504.074    -5462679.84149  -4054554.80248  20287503.463    20287507.774
 04  7 13 17 43 30.0000000  0  8G22G21G11G18G19G15G 3G14
  21192034.568     2161886.22749   1682191.21647  21192034.100    21192037.266
  24391820.299     8694598.68049   6764504.34845  24391818.756    24391826.452
  24482830.698    -2395669.59749  -1330141.47945  24482829.660    24482836.572
  23258998.225      428438.78849    308640.67545  23258997.562    23259003.354
  22076348.758    -3792477.32949  -2940471.23947  22076347.393    22076351.920
  20583589.112     1972253.83549   1539349.00847  20583588.169    20583594.440
  22613005.246     4234986.30149   3296482.00546  22613004.542    22613011.342
  20284381.042    -5479091.58749  -4067343.18048  20284380.336    20284384.769
 04  7 13 17 44  0.0000000  0  8G22G21G11G18G19G15G 3G14
  21200109.804     2204321.51249   1715257.67547  21200109.369    21200112.456
  24411825.012     8799728.67349   6846423.67645  24411824.174    24411832.438
  24463836.731    -2495482.34749  -1407917.61145  24463836.138    24463842.699
  23273436.189      504310.85049    367761.66845  23273435.614    23273440.745
  22076164.879    -3793443.86149  -2941224.41147  22076163.490    22076167.901
  20593809.854     2025964.41849   1581201.40047  20593808.942    20593815.270
  22626892.919     4307965.57349   3353348.91346  22626892.109    22626898.836
  20281361.118    -5494961.79449  -4079709.55848  20281360.377    20281364.783
 04  7 13 17 44 30.0000000  0  8G22G21G11G18G19G15G 3G14
  21208219.737     2246939.25449   1748466.30447  21208219.286    21208222.393
  24431860.958     8905011.51449   6928462.07745  24431859.665    24431867.759
  24444857.683    -2595214.88648  -1485631.23644  24444857.121    24444863.752
  23287889.934      580263.32848    426945.50445  23287889.402    23287893.957
  22076092.136    -3793826.61849  -2941522.67747  22076090.770    22076095.164
  20604116.675     2080126.10349   1623405.27848  20604115.668    20604121.842
  22640841.265     4381264.82049   3410465.15746  22640840.612    22640847.146
  20278443.646    -5510292.98649  -4091655.93448  20278442.946    20278447.344
 04  7 13 17 45  0.0000000  0  8G22G 9G11G18G19G15G 3G14
  21216364.778     2289742.65349   1781819.58947  21216364.377    21216367.579
                   -156017.55149   -136011.04943
  24425893.684    -2694861.59849  -1563278.02345  24425894.334    24425901.682
  23302359.257      656300.22949    486195.08745  23302358.712    23302363.262
  22076131.256    -3793622.44849  -2941363.60247  22076129.723    22076134.069
  20614509.693     2134741.94449   1665963.06547  20614508.752    20614514.917
  22654850.591     4454885.05449   3467831.52446  22654849.994    22654856.697
  20275629.385    -5525081.94949  -4103179.80448  20275628.674    20275633.167
 04  7 13 17 45 30.0000000  0  7G22G11G18G19G15G 3G14
  21224545.880     2332734.09549   1815319.39847  21224545.433    21224548.538
  24406949.720    -2794417.51849  -1640854.01845  24406949.969    24406957.156
  23316844.891      732424.19249    545512.38245  23316844.435    23316849.479
  22076282.339    -3792828.44849  -2940744.91047  22076280.799    22076285.293
  20624989.790     2189814.57549   1708876.77047  20624988.807    20624994.762
  22668921.416     4528826.75649   3525448.35046  22668920.633    22668927.272
  20272918.869    -5539326.14449  -4114279.15848  20272918.121    20272922.541
 04  7 13 17 46  0.0000000  0  7G22G11G18G19G15G 3G14
  21232760.961     2375904.32549   1848958.54747  21232760.496    21232763.588
  24388021.238    -2893889.46549  -1718364.55645  24388021.325    24388028.519
  23331345.776      808625.92149    604890.27545  23331345.176    23331350.067
  22076543.875    -3791453.43649  -2939673.48547  22076542.537    22076546.967
  20635554.856     2245334.57049   1752139.08147  20635553.864    20635559.869
  22683050.923     4603078.26749   3583306.61946  22683050.340    22683056.955
  20270310.142    -5553034.28649  -4124960.83048  20270309.497    20270313.996
 04  7 13 17 46 30.0000000  0  7G22G11G18G19G15G 3G14
  21241010.247     2419253.81649   1882737.37547  21241009.745    21241012.929
  24369108.815    -2993274.31849  -1795807.23245  24369108.587    24369115.510
  23345861.644      884906.00348    664329.22845  23345860.964    23345865.339
  22076916.248    -3789497.00449  -2938149.00047  22076914.840    22076919.365
  20646205.077     2301302.27449   1795750.26847  20646204.190    20646210.433
  22697239.228     4677637.79449   3641404.89646  22697238.708    22697245.125
  20267803.607    -5566205.99549  -4135224.49548  20267802.992    20267807.433
 04  7 13 17 47  0.0000000  0  6G22G11G19G15G 3G14
  21249293.617     2462784.08749   1916657.03647  21249293.151    21249296.495
  24350214.198    -3092568.17049  -1873178.95644  24350213.757    24350219.820
  22077399.457    -3786957.44449  -2936170.14747  22077398.085    22077402.642
  20656940.899     2357719.17149   1839711.45247  20656939.998    20656946.181
  22711485.809     4752504.42749   3699742.49046  22711485.346    22711492.052
  20265399.528    -5578839.57349  -4145068.84148  20265398.876    20265403.369
 04  7 13 17 47 30.0000000  0  7G22G11G18G19G15G 3G14
  21257611.476     2506495.16049   1950717.57047  21257611.062    21257614.340
  24331337.217    -3191768.67849  -1950477.97544  24331336.228    24331342.085
                   -116926.15049   -110560.14443
  22077993.794    -3783834.58149  -2933736.75447  22077992.394    22077996.867
  20667762.199     2414584.91849   1884022.39547  20667761.277    20667767.341
  22725790.249     4827675.66749   3758317.40646  22725789.913    22725796.789
  20263097.834    -5590934.97749  -4154493.82148  20263097.130    20263101.637
 04  7 13 17 48  0.0000000  0  7G22G11G18G19G15G 3G14
  21265963.618     2550386.48149   1984918.58447  21265963.210    21265966.538
  24312477.281    -3290873.52349  -2027702.47744  24312476.572    24312482.417
                    -40406.75949    -50935.22243
  22078698.963    -3780128.85849  -2930849.20247  22078697.665    22078702.015
  20678668.701     2471899.34849   1928682.96847  20678667.796    20678673.965
  22740152.253     4903149.09849   3817127.82046  22740151.890    22740159.120
  20260898.473    -5602492.25549  -4163499.49048  20260897.862    20260902.420
 04  7 13 17 48 30.0000000  0  7G22G11G18G19G15G 3G14
  21274350.264     2594458.28149   2019260.22447  21274349.884    21274353.166
  24293637.020    -3389880.54549  -2104850.73544  24293636.247    24293641.065
                     36192.20249      8751.97543
  22079515.140    -3775840.15549  -2927507.36347  22079513.841    22079518.083
  20689660.628     2529662.32549   1973693.05247  20689659.746    20689665.888
  22754571.801     4978922.52349   3876171.98446  22754571.287    22754578.249
  20258801.648    -5613511.59249  -4172085.97848  20258800.984    20258805.562
 04  7 13 17 49  0.0000000  0  7G22G11G18G19G15G 3G14
  21282770.548     2638705.97649   2053738.93447  21282770.065    21282773.243
  24274814.624    -3488791.51548  -2181924.16144  24274813.498    24274818.683
                    112866.67349     68498.26144                  23418672.419
  22080441.472    -3770972.74649  -2923714.59647  22080440.129    22080444.377
  20700737.067     2587869.10649   2019048.95647  20700736.119    20700742.383
  22769047.564     5054989.10449   3935444.57446  22769046.527    22769053.230
  20256806.249    -5623997.12949  -4180256.52448  20256805.625    20256810.238
 04  7 13 17 49 30.0000000  0  7G22G11G18G19G15G 3G14
  21291224.829     2683133.60549   2088357.84748  21291224.392    21291227.526
  24256011.177    -3587600.19448  -2258917.91044  24256011.074    23433271.083
                    189621.05449    128306.88445  23433270.255    23433278.871
  22081478.517    -3765522.64649  -2919467.78047  22081477.142    22081481.570
  20711898.603     2646523.51149   2064753.66847  20711897.662    20711904.017
  22783578.561     5131350.63949   3994947.02146  22783577.678    22783584.377
  20254913.429    -5633944.94649  -4188008.06148  20254912.716    20254917.245
 04  7 13 17 50  0.0000000  0  7G22G11G18G19G15G 3G14
  21299713.220     2727740.18049   2123116.19148  21299712.706    21299715.904
  24237229.360    -3686304.75049  -2335830.40044  24237228.614    24237234.352
  23447892.016      266454.31749    188177.07844  23447894.691    23447898.835
  22082626.430    -3759490.72349  -2914767.60447  22082625.067    22082629.428
  20723145.389     2705624.46549   2110806.31947  20723144.376    20723150.683
  22798165.212     5208003.77549   4054676.68046  22798164.219    22798171.064
  20253122.589    -5643356.14849  -4195341.45548  20253121.865    20253126.328
 04  7 13 17 50 30.0000000  0  8G22G11G18G19G15G 3G25G14
  21308234.273     2772518.88349   2158008.67448  21308233.816    21308237.055
  24218466.527    -3784909.47149  -2412665.18144  24218465.214    24218470.962
  23462526.747      343359.53248    248103.12244  23462526.704    23462532.471
  22083883.381    -3752884.09749  -2909619.58847  22083882.127    22083886.620
  20734475.531     2765164.93349   2157201.47547  20734474.472    20734480.939
  22812805.408     5284939.14849   4114626.26146  22812804.524    22812811.635
  24500417.763    -3532330.14249  -2735229.23245  24500417.354    24500425.774
  20251432.576    -5652237.58149  -4202262.05148  20251431.796    20251436.247
 04  7 13 17 51  0.0000000  0  8G22G11G18G19G15G 3G25G14
  21316789.131     2817474.33649   2193038.88847  21316788.644    21316791.770
  24199723.997    -3883407.35749  -2489416.79344  24199722.139    24199727.705
  23477176.054      420338.91657    308086.90444  23477175.664
  22085250.737    -3745697.96049  -2904020.02047  22085249.590    22085254.113
  20745890.246     2825149.54949   2203942.69247  20745889.210    20745895.629
  22827499.520     5362159.04149   4174797.55446  22827498.891    22827506.141
  24481298.860    -3632798.96849  -2813516.59445  24481298.560    24481306.969
  20249844.235    -5660584.39049  -4208766.06248  20249843.435    20249847.869
 04  7 13 17 51 30.0000000  0  7G22G11G19G15G 3G25G14
  21325376.616     2862602.46649   2228203.65947  21325376.169    21325379.446
  24181000.339    -3981800.03349  -2566086.38844  24180999.053    24181004.463
  22086727.635    -3737936.62549  -2897972.24947  22086726.468    22086731.187
  20757388.495     2885573.52749   2251026.28147  20757387.500    20757393.970
  22842247.057     5439657.05249   4235185.55046  22842246.451    22842253.617
  24462173.496    -3733301.38649  -2891830.05845  24462173.231    24462181.685
  20248356.916    -5668400.96549  -4214856.88148  20248356.045    20248360.365
 04  7 13 17 52  0.0000000  0  7G22G11G19G15G 3G25G14
  21333998.618     2907911.39749   2263509.29147  21333998.141    21334001.402
  24162298.587    -4080076.97049  -2642665.75445  24162297.679    24162302.852
  22088315.483    -3729592.18649  -2891470.09047  22088314.418    22088319.262
  20768972.050     2946444.94449   2298458.51447  20768970.951    20768977.290
  22857048.901     5517438.97349   4295794.77946  22857048.065    22857055.194
  24443044.735    -3833825.83149  -2970160.62645  24443044.004    24443052.764
  20246971.721    -5675679.38349  -4220528.37548  20246970.993    20246975.311
 04  7 13 17 52 30.0000000  0  7G22G11G19G15G 3G25G14
  21342654.513     2953398.68549   2298953.91347  21342654.088    21342657.417
  24143618.686    -4178237.91649  -2719154.72545  24143618.081    24143623.430
  22090014.159    -3720666.95449  -2884515.40247  22090012.932    22090017.734
  20780639.964     3007761.14649   2346237.36147  20780638.953    20780645.489
  22871903.113     5595499.97149   4356621.48046  22871902.481    22871909.641
  24423910.997    -3934371.69449  -3048507.95445  24423910.608    24423919.312
  20245688.775    -5682422.05449  -4225782.39248  20245687.902    20245692.119
 04  7 13 17 53  0.0000000  0  7G22G11G19G15G 3G25G14
  21351344.273     2999063.11949   2334536.56747  21351343.763    21351347.320
  24124961.411    -4276281.71049  -2795552.38645  24124961.056    24124966.744
  22091822.776    -3711162.51249  -2877109.36147  22091821.610    22091826.283
  20792392.382     3069520.45049   2394361.45147  20792391.427    20792397.817
  22886810.255     5673836.63649   4417662.95446  22886809.571    22886816.600
  24404773.483    -4034937.06149  -3126870.49845  24404773.218    24404782.460
  20244507.207    -5688630.29849  -4230619.98948  20244506.390    20244510.784
 04  7 13 17 53 30.0000000  0  7G22G11G19G15G 3G25G14
  21360066.936     3044901.95249   2370255.13647  21360066.543    21360070.117
  24106326.690    -4374208.47349  -2871858.89345  24106326.338    24106331.892
  22093741.291    -3701081.83549  -2869254.29747  22093739.942    22093744.786
  20804228.501     3131719.63749   2442828.33347  20804227.473    20804234.028
  22901768.609     5752443.57649   4478915.05746  22901767.956    22901775.171
  24385633.039    -4135521.65749  -3205247.99245  24385632.699    24385641.413
  20243426.962    -5694307.06949  -4235043.43348  20243426.198    20243430.477
 04  7 13 17 54  0.0000000  0  7G22G11G19G15G 3G25G14
  21368823.183     3090915.11249   2406109.53447  21368822.702    21368826.189
  24087714.891    -4472015.97849  -2948072.47345  24087714.212    24087719.580
  22095769.163    -3690425.29749  -2860950.52247  22095767.838    22095772.493
  20816148.343     3194358.41349   2491637.72847  20816147.301    20816153.776
  22916778.259     5831318.28449   4540375.81046  22916777.385    22916784.762
  24366489.298    -4236122.54849  -3283638.17645  24366488.911    24366497.898
  20242447.776    -5699452.82949  -4239053.11448  20242446.956    20242451.274
 04  7 13 17 54 30.0000000  0  7G22G11G19G15G 3G25G14
  21377612.050     3137101.16149   2442098.68047  21377611.607    21377615.109
  24069125.804    -4569702.94749  -3024192.07145  24069124.842    24069130.198
  22097906.457    -3679194.27049  -2852199.11247  22097905.098    22097909.632
  20828151.625     3257435.16749   2540788.41547  20828150.591    20828156.952
  22931838.172     5910456.92649   4602042.21946  22931837.130    22931844.399
  24347342.430    -4336737.83949  -3362039.59645  24347342.326    24347351.678
  20241569.283    -5704068.98649  -4242650.10448  20241568.544    20241572.749
 04  7 13 17 55  0.0000000  0  7G22G11G19G15G 3G25G14
  21386434.277     3183461.22749   2478223.41747  21386433.770    21386437.072
  24050559.759    -4667265.77149  -3100214.94245  24050559.105    24050564.419
  22100153.163    -3667388.20349  -2842999.60747  22100151.684    22100156.260
  20840238.229     3320950.52949   2590280.89047  20840237.184    20840243.494
  22946947.367     5989858.14949   4663913.24746  22946946.570    22946953.921
  24328193.715    -4437363.65449  -3440449.23445  24328193.612    24328203.218
  20240791.780    -5708154.70549  -4245833.78148  20240790.942    20240795.372
 04  7 13 17 55 30.0000000  0  7G22G11G19G15G 3G25G14
  21395289.352     3229994.07749   2514482.78047  21395288.819    21395292.031
  24032018.201    -4764703.23049  -3176140.15045  24032017.111    24032022.541
  22102508.797    -3655008.77249  -2833353.30147  22102507.452    22102512.029
  20852408.203     3384902.85849   2640113.83147  20852407.039    20852413.159
  22962106.060     6069518.51549   4725986.18846  22962105.455    22962112.820
  24309043.838    -4537997.61849  -3518865.22045  24309043.769    24309052.924
  20240114.809    -5711711.49449  -4248605.29848  20240114.120    20240118.525
 04  7 13 17 56  0.0000000  0  7G22G11G19G15G 3G25G14
  21404176.862     3276698.86149   2550876.07947  21404176.269    21404179.564
  24013500.493    -4862013.93649  -3251966.67445  24013499.491    24013505.026
  22104973.638    -3642057.11349  -2823261.12747  22104972.106    22104976.598
  20864660.791     3449290.74549   2690286.18047  20864659.657    20864665.921
  22977313.678     6149434.57749   4788258.38746  22977312.988    22977320.412
  24289893.336    -4638637.76649  -3597285.99645  24289892.717    24289901.547
  20239538.551    -5714740.44849  -4250965.50948  20239537.780    20239542.121
 04  7 13 17 56 30.0000000  0  7G22G11G19G15G 3G25G14
  21413096.837     3323576.05749   2587403.71246  21413096.332    21413099.890
  23995007.688    -4959194.43249  -3327691.67245  23995006.682    23995012.240
  22107546.924    -3628532.98849  -2812722.86647  22107545.535    22107550.183
  20876996.283     3514114.45249   2740798.13947  20876995.237    20877001.457
  22992569.296     6229604.59049   4850728.47646  22992568.786    22992576.286
  24270741.989    -4739280.52449  -3675708.84045  24270741.115    24270749.847
  20239062.571    -5717241.36349  -4252914.26448  20239061.829    20239066.239
 04  7 13 17 57  0.0000000  0  8G22G 9G11G19G15G 3G25G14
  21422050.201     3370625.55749   2624065.60547  21422049.584    21422053.288
                    -21727.95649    -25223.47143
  23976539.436    -5056242.73349  -3403313.71345  23976538.847    23976544.503
  22110229.401    -3614437.23449  -2801739.19247  22110227.888    22110232.477
  20889414.675     3579373.02049   2791648.93947  20889413.580    20889419.789
  23007873.173     6310025.58649   4913394.12146  23007872.481    23007880.183
  24251589.891    -4839922.96849  -3754131.45445  24251589.355    24251598.286
  20238686.895    -5719215.08649  -4254452.23448  20238686.149    20238690.752
 04  7 13 17 57 30.0000000  0  7G22G11G19G15G 3G25G14
  21431035.992     3417845.78649   2660860.57647  21431035.433    21431039.159
  23958097.344    -5153157.30249  -3478831.49945  23958095.986    23958102.110
  22113019.936    -3599771.59949  -2790311.44347  22113018.626    22113023.121
  20901915.395     3645065.05249   2842837.49747  20901914.256    20901920.548
  23023223.928     6390693.80249   4976252.41546  23023223.174    23023230.831
  24232438.377    -4940562.95949  -3832552.14445  24232437.864    24232447.099
  20238411.334    -5720663.02549  -4255580.48148  20238410.680    20238415.057
 04  7 13 17 58  0.0000000  0  7G22G11G19G15G 3G25G14
  21440054.462     3465237.90449   2697789.46147  21440053.949    21440057.419
  23939680.633    -5249934.89849  -3554242.56245  23939679.755    23939685.774
  22115919.274    -3584535.46749  -2778439.15747  22115917.978    22115922.396
  20914498.599     3711190.82649   2894364.04147  20914497.535    20914503.937
  23038621.311     6471607.65949   5039302.10346  23038620.535    23038628.265
  24213287.720    -5041196.40949  -3910967.72745  24213287.810    24213296.884
  20238236.065    -5721584.44949  -4256298.46548  20238235.341    20238239.704
 04  7 13 17 58 30.0000000  0  7G22G11G19G15G 3G25G14
  21449105.330     3512800.05449   2734850.87647  21449104.824    21449108.190
  23921290.494    -5346574.87649  -3629546.38745  23921289.725    23921295.698
  22118926.943    -3568731.33349  -2766124.27647  22118925.517    22118929.644
  20927164.070     3777747.96649   2946226.72147  20927162.966    20927169.430
  23054064.085     6552762.80049   5102539.81946  23054063.804    23054071.583
  24194139.294    -5141821.99649  -3989377.17445  24194139.007    24194148.141
  20238160.485    -5721981.88749  -4256608.15648  20238159.744    20238164.203
 04  7 13 17 59  0.0000000  0  7G22G11G19G15G 3G25G14
  21458188.430     3560531.20349   2772044.00547  21458187.925    21458191.285
  23902927.199    -5443075.70449  -3704741.83345  23902926.388    23902932.502
  22122041.817    -3552360.66949  -2753367.90847  22122040.690    22122044.951
  20939911.295     3844735.01149   2998424.38047  20939910.292    20939916.699
  23069553.144     6634156.17949   5165963.16246  23069552.521    23069560.328
  24174992.727    -5242438.08849  -4067779.22644  24174992.270    24175000.960
  20238184.226    -5721856.54249  -4256510.47948  20238183.477    20238187.921
 04  7 13 17 59 30.0000000  0  7G22G11G19G15G 3G25G14
  21467303.418     3608429.90649   2809367.69647  21467302.866    21467306.129
  23884590.479    -5539436.62849  -3779828.22445  23884589.503    23884595.617
  22125264.787    -3535425.59349  -2740171.76347  22125263.369    22125267.440
  20952739.957     3912149.83349   3050955.37947  20952738.981    20952745.319
  23085086.384     6715783.59149   5229568.87046  23085085.827    23085093.460
  24155849.379    -5343042.70749  -4146172.37444  24155848.333    24155856.513
  20238307.249    -5721210.70749  -4256007.21748  20238306.472    20238310.903
 04  7 13 18  0  0.0000000  0  7G22G11G19G15G 3G25G14
  21476450.451     3656497.57549   2846823.01747  21476449.903    21476453.022
  23866281.100    -5635653.06949  -3854802.00945  23866280.147    23866286.001
  22128594.875    -3517925.21649  -2726535.11547  22128593.523    22128597.688
  20965650.174     3979993.27849   3103820.37747  20965649.173    20965655.537
  23100663.842     6797644.07149   5293356.20546  23100663.464    23100670.933
  24136708.441    -5443631.50949  -4224553.20545  24136707.074    24136714.868
  20238529.393    -5720043.32149  -4255097.56548  20238528.598    20238533.139
 04  7 13 18  0 30.0000000  0  7G22G11G19G15G 3G25G14
  21485629.435     3704733.43249   2884409.36847  21485628.819    21485632.145
  23848000.012    -5731723.74049  -3929662.17345  23847998.913    23848004.022
  22132032.479    -3499861.04149  -2712459.15847  22132031.104    22132035.308
  20978641.648     4048263.90349   3157018.23147  20978640.580    20978647.008
  23116285.358     6879734.12549   5357322.42746  23116284.819    23116292.117
  24117570.045    -5544201.95849  -4302919.70645  24117568.965    24117577.017
  20238850.615    -5718355.35749  -4253782.25548  20238849.836    20238854.272
 04  7 13 18  1  0.0000000  0  7G22G11G19G15G 3G25G14
  21494840.492     3753138.10649   2922127.27647  21494839.852    21494843.300
  23829747.067    -5827645.25449  -4004406.13145  23829745.760    23829750.671
  22135577.311    -3481232.89149  -2697943.74247  22135575.919    22135580.188
  20991714.491     4116961.88949   3210549.09447  20991713.469    20991719.749
  23131950.450     6962051.98049   5421466.14946  23131949.495    23131956.906
  24098435.709    -5644750.09949  -4381268.85145  24098435.121    24098443.610
  20239270.843    -5716146.75549  -4252061.26248  20239270.105    20239274.533
 04  7 13 18  1 30.0000000  0  7G22G11G19G15G 3G25G14
  21504083.526     3801710.90149   2959976.19047  21504082.973    21504086.338
  23811522.562    -5923415.87749  -4079032.55745  23811521.267    23811526.270
  22139229.098    -3462042.26749  -2682990.02447  22139227.712    22139232.015
  21004868.374     4186085.74949   3264411.81847  21004867.293    21004873.575
  23147657.656     7044594.41849   5485784.86146  23147656.701    23147664.245
  24079307.089    -5745273.53849  -4459598.73545  24079306.422    24079314.713
  20239789.962    -5713418.82649  -4249935.60348  20239789.235    20239793.665
 04  7 13 18  2  0.0000000  0  7G22G11G19G15G 3G25G14
  21513358.427     3850451.03149   2997955.48447  21513357.893    21513361.284
  23793326.421    -6019033.67149  -4153539.90345  23793325.464    23793330.806
  22142987.750    -3442290.55549  -2667599.10247  22142986.469    22142990.815
  21018103.043     4255634.32849   3318605.50147  21018102.030    21018108.365
  23163406.556     7127358.14749   5550276.01846  23163406.067    23163413.591
  24060183.659    -5845770.13149  -4537907.73045  24060182.483    24060190.930
  20240407.669    -5710172.93449  -4247406.33248  20240406.908    20240411.367
 04  7 13 18  2 30.0000000  0  7G22G11G19G15G 3G25G14
  21522665.318     3899359.28249   3036065.82847  21522664.789    21522668.189
  23775160.312    -6114495.77849  -4227925.87445  23775159.481    23775164.898
  22146853.348    -3421977.87649  -2651771.07047  22146851.883    22146856.081
  21031418.513     4325607.44549   3373129.97947  21031417.493    21031423.817
  23179198.294     7210341.15249   5614938.02146  23179197.585    23179204.651
  24041065.232    -5946236.19949  -4616192.91945  24041064.418    24041072.861
  20241123.923    -5706408.96849  -4244473.36548  20241123.162    20241127.654
 04  7 13 18  3  0.0000000  0  7G22G11G19G15G 3G25G14
  21532004.072     3948433.92449   3074305.77947  21532003.554    21532006.718
  23757023.688    -6209801.45649  -4302189.94945  23757023.194    23757028.918
  22150824.953    -3401106.91449  -2635507.99847  22150823.494    22150827.752
  21044814.143     4396002.68949   3427983.39347  21044813.159    21044819.616
  23195030.245     7293539.10649   5679767.56946  23195029.575    23195036.754
  24021953.669    -6046670.07949  -4694452.99845  24021952.578    24021961.034
  20241938.179    -5702129.31249  -4241138.56648  20241937.468    20241942.014
 04  7 13 18  3 30.0000000  0  7G22G11G19G15G 3G25G14
  21541374.202     3997673.47449   3112674.23847  21541373.578    21541376.798
  23738918.212    -6304949.04849  -4376330.86445  23738917.439    23738922.777
  22154902.392    -3379679.65349  -2618811.45647  22154900.812    22154905.427
  21058290.030     4466818.28749   3483164.34747  21058289.010    21058295.413
  23210902.784     7376948.56649   5744761.87646  23210902.056    23210909.157
  24002848.641    -6147069.74049  -4772686.41945  24002847.264    24002855.763
  20242850.462    -5697335.77249  -4237403.32448  20242849.737    20242854.175
 04  7 13 18  4  0.0000000  0  7G22G11G19G15G 3G25G14
  21550775.547     4047078.46949   3151171.60347  21550775.059    21550778.427
  23720842.899    -6399935.71449  -4450346.44245  23720842.043    23720847.416
  22159085.423    -3357696.39349  -2601681.65447  22159084.085    22159088.937
  21071845.755     4538053.60149   3538672.35547  21071844.646    21071851.026
  23226815.001     7460566.85249   5809918.89746  23226814.132    23226821.068
  23983750.179    -6247432.12249  -4850890.75245  23983748.826    23983757.592
  20243860.376    -5692028.75049  -4233267.97748  20243859.608    20243864.050
 04  7 13 18  4 30.0000000  0  7G22G11G19G15G 3G25G14
  21560208.672     4096649.89949   3189798.66347  21560208.179    21560211.583
  23702798.674    -6494758.22549  -4524234.07645  23702798.034    23702803.577
  22163374.435    -3335157.06249  -2584118.57347  22163373.156    22163378.138
  21085481.208     4609709.08549   3594507.77747  21085480.225    21085486.610
  23242766.492     7544392.79849   5875237.77046  23242765.768    23242772.794
  23964658.963    -6347752.76049  -4929062.64445  23964658.174    23964667.275
  20244967.978    -5686207.69949  -4228732.08348  20244967.310    20244971.697
 04  7 13 18  5  0.0000000  0  7G22G11G19G15G 3G25G14
  21569673.217     4146386.39149   3228554.35947  21569672.677    21569675.919
  23684786.428    -6589415.44849  -4597992.87845  23684785.584    23684790.944
  22167768.738    -3312063.99349  -2566123.98747  22167767.594    22167772.789
  21099196.393     4681782.61849   3650668.95747  21099195.371    21099201.840
  23258757.192     7628422.45249   5940715.35246  23258756.338    23258763.255
  23945576.996    -6448029.79849  -5007200.43445  23945575.983    23945584.876
  20246173.180    -5679874.75349  -4223797.31848  20246172.427    20246176.936
 04  7 13 18  5 30.0000000  0  7G22G11G19G15G 3G25G14
  21579169.055     4196287.40949   3267438.27247  21579168.573    21579171.722
  23666805.463    -6683904.74749  -4671620.85245  23666804.752    23666810.059
  22172268.516    -3288418.57049  -2547699.03047  22172267.189    22172272.444
  21112991.015     4754272.94249   3707154.88847  21112989.931    21112996.393
  23274785.297     7712652.45249   6006349.06146  23274784.592    23274791.728
  23926503.030    -6548260.84449  -5085302.49945  23926502.307    23926511.418
  20247475.386    -5673031.14749  -4218464.63448  20247474.685    20247479.197
 04  7 13 18  6  0.0000000  0  7G22G11G19G15G 3G25G14
  21588696.391     4246353.38949   3306450.74046  21588695.956    21588699.172
  23648857.401    -6778223.53149  -4745115.92745  23648856.259    23648861.623
  22176873.190    -3264221.27649  -2528844.03447  22176871.931    22176877.072
  21126864.718     4827179.69349   3763965.30047  21126863.697    21126870.053
  23290851.609     7797080.79749   6072137.30246  23290850.790    23290857.910
  23907439.055    -6648442.50349  -5163366.03245  23907438.216    23907447.205
  20248874.988    -5665677.23949  -4212734.29648  20248874.216    20248878.541
 04  7 13 18  6 30.0000000  0  7G22G11G19G15G 3G25G14
  21598255.152     4296582.92949   3345590.60846  21598254.350    21598257.465
  23630940.632    -6872370.65849  -4818477.29145  23630939.901    23630945.783
  22181582.355    -3239474.49049  -2509560.83347  22181581.061    22181586.354
  21140817.199     4900500.62249   3821098.47747  21140816.217    21140822.678
  23306954.836     7881703.47449   6138076.98546  23306953.992    23306961.296
  23888384.585    -6748572.75349  -5241389.59245  23888383.846    23888392.975
  20250370.984    -5657815.04649  -4206607.92248  20250370.270    20250374.649
 04  7 13 18  7  0.0000000  0  7G22G11G19G15G 3G25G14
  21607844.342     4346976.88349   3384858.62646  21607843.871    21607847.033
  23613058.813    -6966343.01249  -4891702.45845  23613057.659    23613062.986
  22186395.992    -3214178.53349  -2489849.73047  22186394.818    22186399.905
  21154848.659     4974235.67649   3878554.33547  21154847.564    21154854.023
  23323094.567     7966518.81749   6204166.80946  23323093.817    23323101.244
  23869341.041    -6848647.69949  -5319370.04945  23869340.429    23869349.396
  20251963.878    -5649444.52549  -4200085.42148  20251963.158    20251967.419
 04  7 13 18  7 30.0000000  0  7G22G11G19G15G 3G25G14
  21617464.912     4397532.53549   3424252.60646  21617464.351    21617467.544
  23595210.025    -7060140.43249  -4964791.32245  23595208.656    23595213.480
  22191313.859    -3188336.90649  -2469713.43147  22191312.593    22191317.521
  21168957.978     5048381.24749   3936330.07647  21168956.976    21168963.379
  23339270.207     8051521.44649   6270402.55646  23339269.460    23339276.677
  23850308.308    -6948667.03749  -5397307.18145  23850307.485    23850316.065
  20253652.767    -5640569.28449  -4193169.64248  20253651.989    20253656.315
 04  7 13 18  8  0.0000000  0  7G22G11G19G15G 3G25G14
  21627116.079     4448251.42549   3463773.85846  21627115.649    21627118.998
  23577394.215    -7153758.90349  -5037740.73745  23577393.331    23577398.386
  22196335.547    -3161949.18349  -2449151.58447  22196334.127    22196338.834
  21183145.541     5122938.11749   3994426.33247  21183144.594    21183151.062
  23355481.029     8136710.37449   6336783.48746  23355480.248    23355487.786
  23831287.022    -7048626.31949  -5475197.50045  23831285.884    23831294.326
  20255437.712    -5631188.47649  -4185859.93248  20255437.003    20255441.505
 04  7 13 18  8 30.0000000  0  7G22G11G19G15G 3G25G14
  21636798.830     4499133.87949   3503422.56046  21636798.365    21636801.966
  23559613.057    -7247195.58749  -5110548.45245  23559612.540    23559618.144
  22201461.084    -3135015.96149  -2428164.68947  22201459.519    22201464.030
  21197411.743     5197905.95149   4052842.78547  21197410.678    21197417.018
  23371726.840     8222083.36149   6403307.79746  23371726.110    23371733.557
  23812277.630    -7148521.68449  -5553037.97745  23812276.555    23812284.888
  20257318.980    -5621302.53749  -4178156.59348  20257318.250    20257322.635
 04  7 13 18  9  0.0000000  0  7G22G11G19G15G 3G25G14
  21646512.759     4550179.16749   3543198.08746  21646512.181    21646515.798
  23541867.336    -7340448.96549  -5183213.34845  23541867.034    23541872.800
  22206689.711    -3107539.41249  -2406754.42647  22206688.239    22206692.495
  21211755.431     5273282.78349   4111577.96247  21211754.348    21211760.807
  23388006.851     8307636.95849   6469972.88446  23388006.451    23388013.910
  23793280.353    -7248350.94649  -5630826.94245  23793279.714    23793287.770
  20259296.184    -5610913.21949  -4170061.00548  20259295.411    20259299.662
 04  7 13 18  9 30.0000000  0  7G22G11G19G15G 3G25G14
  21656256.761     4601385.48149   3583099.06646  21656256.217    21656260.094
  23524157.066    -7433518.14349  -5255734.71745  23524156.685    23524162.435
  22212021.166    -3079522.43549  -2384923.02447  22212019.599    22212023.986
  21226176.323     5349065.85149   4170629.67747  21226175.275    21226181.910
  23404320.809     8393366.75349   6536775.26946  23404320.217    23404327.874
  23774296.912    -7348112.85749  -5708563.36845  23774295.549    23774303.824
  20261368.505    -5600023.04649  -4161575.15548  20261367.667    20261372.043
 04  7 13 18 10  0.0000000  0  7G22G11G19G15G 3G25G14
  21666031.650     4652754.51149   3623126.83046  21666031.249    21666035.074
  23506482.858    -7526398.91749  -5328109.27245  23506482.390    23506487.923
  22217455.350    -3050964.52949  -2362670.13347  22217453.967    22217458.396
  21240674.789     5425255.78049   4229998.43047  21240673.757    21240680.467
  23420668.275     8479271.78549   6603714.16846  23420667.409    23420675.406
  23755324.572    -7447802.67949  -5786243.70245  23755324.771    23755333.511
  20263536.213    -5588631.59249  -4152698.69548  20263535.436    20263539.802
 04  7 13 18 10 30.0000000  0  7G22G11G19G15G 3G25G14
  21675837.883     4704284.57549   3663280.04646  21675837.349    21675841.050
  23488844.318    -7619090.55849  -5400336.48845  23488843.743    23488849.430
  22222992.425    -3021868.34949  -2339997.80647  22222990.783    22222995.207
  21255250.256     5501850.09649   4289682.28447  21255249.257    21255255.853
  23437047.318     8565347.74649   6670786.28146  23437046.850    23437055.109
  23736368.733    -7547419.24249  -5863866.89445  23736368.364    23736377.183
  20265798.946    -5576741.20949  -4143433.45848  20265798.120    20265802.438
 04  7 13 18 11  0.0000000  0  7G22G11G19G15G 3G25G14
  21685674.288     4755974.34149   3703557.72246  21685673.671    21685677.050
  23471241.530    -7711591.38949  -5472415.00445  23471241.138    23471247.111
  22228631.122    -2992236.51249  -2316908.08747  22228629.530    22228634.075
  21269902.333     5578846.96249   4349679.81747  21269901.334    21269907.908
  23453459.208     8651590.73649   6737988.52046  23453458.508    23453466.518
  23717426.954    -7646959.94049  -5941430.98245  23717426.657    23717435.025
  20268156.157    -5564354.07549  -4133781.13748  20268155.358    20268159.585
 04  7 13 18 11 30.0000000  0  7G22G11G19G15G 3G25G14
  21695540.807     4807824.90549   3743960.73646  21695540.270    21695543.988
  23453675.977    -7803897.77349  -5544342.04845  23453675.728    23453681.684
  22234371.904    -2962069.03649  -2293401.00847  22234370.156    22234374.672
  21284630.917     5656246.34649   4409991.00247  21284629.898    21284636.517
  23469901.912     8737999.23049   6805319.76346  23469901.415    23469909.555
  23698500.540    -7746420.97449  -6018932.98745  23698499.821    23698507.841
  20270607.984    -5551469.84349  -4123741.46148  20270607.191    20270611.346
 04  7 13 18 12  0.0000000  0  7G22G11G19G15G 3G25G14
  21705438.402     4859836.30349   3784489.07346  21705437.878    21705441.304
  23436148.014    -7896007.79849  -5616116.02545  23436147.723    23436153.574
  22240214.045    -2931367.53749  -2269477.79647  22240212.491    22240216.997
  21299435.742     5734046.88849   4470614.78147  21299434.828    21299441.616
  23486375.976     8824570.49149   6872777.79546  23486375.590    23486383.626
  23679589.391    -7845799.32049  -6096370.57945  23679588.603    23679596.652
  20273154.032    -5538089.87049  -4113315.51548  20273153.188    20273157.485
 04  7 13 18 12 30.0000000  0  7G22G11G19G15G 3G25G14
  21715366.039     4912006.41749   3825141.10147  21715365.485    21715368.912
  23418657.763    -7987920.14149  -5687736.00845  23418657.191    23418663.203
  22246157.385    -2900134.93049  -2245140.71947  22246155.797    22246160.371
  21314316.767     5812245.63549   4531548.83547  21314315.636    21314322.394
  23502880.441     8911300.03749   6940359.19246  23502879.825    23502887.832
  23660694.244    -7945093.65649  -6173742.68545  23660693.433    23660701.614
  20275793.898    -5524216.96049  -4102505.44948  20275793.120    20275797.382
 04  7 13 18 13  0.0000000  0  7G22G11G19G15G 3G25G14
  21725324.131     4964336.42749   3865917.74247  21725323.621    21725327.021
  23401205.681    -8079631.99149  -5759199.74845  23401204.863    23401210.409
  22252201.701    -2868371.57049  -2220390.06647  22252200.222    22252204.891
  21329273.226     5890842.73949   4592793.30647  21329272.162    21329278.910
  23519414.305     8998186.28849   7008062.68246  23519413.788    23519422.080
  23641816.230    -8044300.03649  -6251046.25745  23641815.231    23641823.441
  20278527.791    -5509851.05949  -4091311.22848  20278526.958    20278531.187
 04  7 13 18 13 30.0000000  0  7G22G11G19G15G 3G25G14
  21735312.616     5016825.97749   3906818.67547  21735312.126    21735315.430
  23383792.017    -8171140.90449  -5830505.36045  23383791.089    23383796.686
  22258346.670    -2836079.24649  -2195227.25647  22258345.258    22258350.035
  21344305.298     5969836.63149   4654346.95947  21344304.315    21344310.983
  23535977.341     9085226.02049   7075885.76746  23535977.012    23535985.279
  23622954.968    -8143415.31549  -6328278.85245  23622954.169    23622962.398
  20281355.107    -5494993.68249  -4079734.03848  20281354.251    20281358.417
 04  7 13 18 14  0.0000000  0  7G22G11G19G15G 3G25G14
  21745331.365     5069475.26949   3947844.09747  21745330.861    21745334.319
  23366417.376    -8262444.16149  -5901650.72545  23366416.547    23366422.212
  22264592.192    -2803259.26249  -2169653.27547  22264590.735    22264595.471
  21359412.730     6049226.34049   4716209.03147  21359411.597    21359418.302
  23552569.491     9172416.90049   7143826.65346  23552569.086    23552577.094
  23604111.708    -8242437.00249  -6405438.50345  23604110.915    23604118.985
  20284275.495    -5479645.62149  -4067774.52248  20284274.739    20284279.131
 04  7 13 18 14 30.0000000  0  7G22G11G19G15G 3G25G14
  21755380.520     5122282.78749   3988992.78746  21755380.023    21755383.211
  23349082.488    -8353540.62849  -5972634.90645  23349081.328    23349087.196
  22270937.196    -2769914.34349  -2143670.23247  22270935.932    22270940.872
  21374594.802     6129009.52249   4778377.71447  21374593.896    21374600.783
  23569189.521     9259755.02949   7211882.27046  23569188.970    23569197.119
  23585286.493    -8341363.16249  -6482523.71945  23585285.657    23585293.833
  20287289.079    -5463809.28349  -4055434.50448  20287288.382    20287292.637
 04  7 13 18 15  0.0000000  0  7G22G11G19G15G 3G25G14
  21765459.755     5175248.88249   4030265.05846  21765459.127    21765462.274
  23331787.088    -8444427.24449  -6043455.56045  23331786.329    23331792.214
  22277382.476    -2736045.26549  -2117278.76847  22277380.920    22277385.922
  21389851.895     6209185.75349   4840852.67047  21389850.944    21389857.804
  23585836.782     9347238.16649   7280050.85446  23585836.505    23585844.693
  23566480.197    -8440189.82749  -6559531.40845  23566479.606    23566487.625
  20290395.606    -5447485.16849  -4042714.40548  20290394.802    20290398.995
 04  7 13 18 15 30.0000000  0  7G22G11G19G15G 3G25G14
  21775568.888     5228374.13749   4071661.36846  21775568.408    21775571.774
  23314532.814    -8535101.09949  -6114110.45145  23314532.044    23314537.632
  22283926.913    -2701653.27349  -2090479.85447  22283925.470    22283930.461
  21405183.498     6289754.11449   4903633.18547  21405182.600    21405189.420
  23602511.849     9434863.95149   7348330.61146  23602511.121    23602519.352
  23547693.354    -8538913.69349  -6636458.95545  23547692.981    23547701.105
  20293594.611    -5430674.29149  -4029615.01648  20293593.798    20293598.010
 04  7 13 18 16  0.0000000  0  7G22G11G19G15G 3G25G14
  21785708.296     5281656.28549   4113179.91846  21785707.709    21785710.923
  23297318.753    -8625561.90849  -6184599.36945  23297318.043    23297323.368
  22290570.390    -2666741.94849  -2063276.25647  22290568.880    22290574.061
  21420589.364     6370711.34749   4966716.71647  21420588.275    21420595.112
  23619213.105     9522627.51549   7416717.73445  23619212.239    23619220.181
  23528926.845    -8637533.96749  -6713305.78145  23528925.995    23528934.195
  20296885.573    -5413379.68849  -4016138.71148  20296884.799    20296889.069
 04  7 13 18 16 30.0000000  0  7G22G11G19G15G 3G25G14
  21795877.548     5335096.11249   4154821.32246  21795876.978    21795880.272
  23280145.561    -8715806.43849  -6254919.76645  23280144.921    23280150.389
  22297311.972    -2631312.25949  -2035668.73247  22297310.724    22297315.877
  21436068.884     6452056.97749   5030102.88747  21436067.849    21436074.718
  23635939.716     9610526.96849   7485210.74145  23635938.980    23635947.059
  23510180.676    -8736046.67049  -6790068.76345  23510179.462    23510187.494
  20300268.660    -5395601.92449  -4002285.89748  20300267.857    20300272.072
 04  7 13 18 17  0.0000000  0  7G22G11G19G15G 3G25G14
  21806076.974     5388693.59749   4196585.59346  21806076.378    21806079.562
  23263014.529    -8805832.31249  -6325069.66845  23263013.571    23263019.313
  22304152.231    -2595365.42349  -2007658.22947  22304151.107    22304156.387
  21451622.399     6533790.12249   5093791.01047  21451621.331    21451628.166
  23652691.437     9698559.73249   7553807.61145  23652691.063    23652699.238
  23491454.818    -8834448.79549  -6866745.63645  23491453.995    23491462.169
  20303743.431    -5377341.87549  -3988057.28748  20303742.562    20303746.869
 04  7 13 18 17 30.0000000  0  7G22G11G19G15G 3G25G14
  21816306.025     5442448.27749   4238472.33546  21816305.526    21816308.941
  23245925.338    -8895637.15849  -6395047.42045  23245924.361    23245930.222
  22311090.850    -2558903.62649  -1979246.49847  22311089.654    22311094.620
  21467248.890     6615908.68549   5157779.47447  21467247.943    21467254.711
  23669467.804     9786722.68749   7622505.95245  23669467.718    23669476.030
  23472751.445    -8932737.80649  -6943334.31646  23472750.373    23472758.271
  20307309.585    -5358601.49249  -3973454.38648  20307308.743    20307313.126
 04  7 13 18 18  0.0000000  0  7G22G11G19G15G 3G25G14
  21826565.051     5496359.86949   4280481.32346  21826564.564    21826568.021
  23228878.182    -8985218.82149  -6464851.24945  23228877.464    23228883.254
  22318126.970    -2521928.47949  -1950434.72647  22318125.822    22318130.846
  21482948.776     6698411.47449   5222067.32547  21482947.844    21482954.702
  23686269.014     9875012.71949   7691303.27845  23686269.007    23686276.948
  23454069.899    -9030910.61549  -7019832.46446  23454068.676    23454076.589
  20310966.808    -5339382.07149  -3958478.21748  20310966.051    20310970.447
 04  7 13 18 18 30.0000000  0  7G22G11G19G15G 3G25G14
  21836853.886     5550429.09849   4322613.15346  21836853.351    21836856.898
  23211874.411    -9074574.15749  -6534478.72145  23211873.625    23211879.449
  22325260.837    -2484441.28049  -1921223.94347  22325259.504    22325264.560
  21498721.742     6781297.70149   5286653.95947  21498720.666    21498727.483
  23703093.783     9963427.86449   7760198.14045  23703093.988    23703101.937
  23435410.132    -9128963.76049  -7096237.42846  23435409.564    23435417.405
  20314715.208    -5319684.24949  -3943129.25748  20314714.426    20314718.741
 04  7 13 18 19  0.0000000  0  7G22G11G19G15G 3G25G14
  21847172.779     5604655.45949   4364867.39546  21847172.327    21847175.808
  23194913.837    -9163701.01549  -6603928.20245  23194913.236    23194918.986
  22332491.366    -2446443.95749  -1891615.66047  22332490.258    22332495.307
  21514566.942     6864565.89149   5351538.23847  21514565.846    21514572.821
  23719942.097    10051965.08649   7829188.09445  23719942.086    23719950.097
  23416774.312    -9226894.57849  -7172547.03346  23416773.725    23416781.559
  20318554.382    -5299509.39049  -3927408.58448  20318553.538    20318557.838
 04  7 13 18 19 30.0000000  0  7G22G11G19G15G 3G25G14
  21857521.607     5659038.10349   4407243.47947  21857521.023    21857524.510
  23177997.042    -9252597.65449  -6673198.30345  23177996.617    23178002.109
  22339819.075    -2407938.68249  -1861611.60347  22339817.806    22339822.627
  21530484.509     6948214.19049   5416718.70247  21530483.656    21530490.592
  23736812.943    10140621.18949   7898270.66145  23736812.776    23736820.694
  23398162.312    -9324700.65949  -7248759.44446  23398161.939    23398169.529
  20322483.893    -5278859.82549  -3911318.00648  20322483.087    20322487.394
 04  7 13 18 20  0.0000000  0  7G22G11G19G15G 3G25G14
  21867900.008     5713576.20149   4449740.66946  21867899.448    21867902.645
  23161124.543    -9341262.54949  -6742287.81445  23161124.168    23161129.619
  22347242.399    -2368928.37149  -1831213.97547  22347241.236    22347246.219
  21546474.247     7032240.16549   5482193.45247  21546473.267    21546480.185
  23753705.874    10229392.30149   7967442.89845  23753705.560    23753713.475
  23379574.519    -9422380.00549  -7324873.11046  23379574.117    23379581.615
  20326503.341    -5257737.54849  -3894859.10148  20326502.515    20326506.886
 04  7 13 18 20 30.0000000  0  7G22G11G19G15G 3G25G14
  21878307.573     5768268.69649   4492358.21546  21878306.974    21878310.239
  23144297.029    -9429694.31749  -6811195.63645  23144296.207    23144301.828
  22354761.611    -2329415.62649  -1800424.87047  22354760.441    22354765.400
  21562535.215     7116641.66749   5547960.82047  21562534.388    21562541.319
  23770620.271    10318274.61749   8036701.75645  23770619.712    23770627.329
  23361011.060    -9519930.63349  -7400886.48045  23361010.590    23361018.138
  20330612.274    -5236144.98649  -3878033.71748  20330611.490    20330615.810
 04  7 13 18 21  0.0000000  0  7G22G11G19G15G 3G25G14
  21888744.452     5823116.45249   4535096.73646  21888743.958    21888747.328
  23127514.543    -9517889.23449  -6879918.90445  23127513.425    23127518.883
  22362375.959    -2289401.13949  -1769244.78447  22362374.900    22362379.940
  21578667.794     7201418.10349   5614020.33747  21578666.830    21578673.745
  23787554.414    10407266.25049   8106045.81345  23787554.029    23787561.848
  23342473.238    -9617348.46149  -7476796.34845  23342472.483    23342480.237
  20334810.673    -5214082.34649  -3860842.04648  20334809.835    20334814.185
 04  7 13 18 21 30.0000000  0  7G22G11G19G15G 3G25G14
  21899211.250     5878119.17449   4577955.98746  21899210.712    21899213.771
  23110777.195    -9605845.34649  -6948456.08545  23110776.172    23110781.244
  22370085.564    -2248887.23549  -1737675.55547  22370084.353    22370089.379
  21594871.167     7286567.85649   5680370.75947  21594870.322    21594877.212
  23804509.508    10496364.34849   8175472.81645  23804508.852    23804516.696
  23323960.625    -9714630.78549  -7552600.65445  23323960.269    23323968.110
  20339098.014    -5191551.44849  -3843285.51148  20339097.266    20339101.643
 04  7 13 18 22  0.0000000  0  7G22G11G19G15G 3G25G14
  21909707.343     5933277.06749   4620936.18946  21909706.905    21909710.353
  23094085.315    -9693559.58649  -7016804.81446  23094084.718    23094089.670
  22377889.800    -2207875.35649  -1705718.28047  22377888.621    22377893.565
  21611145.749     7372089.91149   5747011.28347  21611144.785    21611151.486
  23821484.332    10585566.43849   8244980.84645  23821483.420    23821491.228
  23305474.984    -9811774.13849  -7628296.66046  23305474.505    23305482.384
  20343474.552    -5168553.06049  -3825364.67448  20343473.776    20343477.982
 04  7 13 18 22 30.0000000  0  7G22G11G19G15G 3G25G14
  21920233.360     5988591.06349   4664037.95246  21920232.889    21920236.291
  23077440.281    -9781029.26649  -7084962.94845  23077439.701    23077444.683
  22385788.747    -2166366.47449  -1673373.74247  22385787.591    22385792.423
  21627490.757     7457983.57549   5813941.37047  21627489.840    21627496.485
  23838478.411    10674870.76149   8314568.53845  23838477.735    23838485.497
  23287016.295    -9908774.82649  -7703881.50446  23287015.655    23287023.690
  20347939.921    -5145087.94849  -3807080.17248  20347939.055    20347943.293
 04  7 13 18 23  0.0000000  0  7G22G11G19G15G 3G25G14
  21930788.586     6044058.99749   4707259.71146  21930788.131    21930791.786
  23060842.279    -9868253.69749  -7152929.97845  23060841.431    23060846.176
  22393781.699    -2124364.35549  -1640644.85847  22393780.428    22393785.068
  21643905.860     7544245.62649   5881158.51847  21643904.946    21643911.704
  23855491.507    10764272.64249   8384232.25845  23855490.458    23855498.234
  23268584.821   -10005631.90349  -7779354.45646  23268584.344    23268592.172
  20352493.260    -5121159.66149  -3788434.75348  20352492.463    20352496.671
 04  7 13 18 23 30.0000000  0  7G22G11G19G15G 3G25G14
  21941373.237     6099679.93949   4750600.66346  21941372.624    21941376.219
  23044291.407    -9955230.80849  -7220704.33445  23044290.400    23044294.903
  22401867.888    -2081871.72049  -1607533.74447  22401866.650    22401870.961
  21660390.609     7630873.77349   5948660.94647  21660389.794    21660396.559
  23872521.570    10853768.43049   8453969.16045  23872520.898    23872528.996
  23250182.053   -10102343.21049  -7854713.80346  23250180.855    23250188.502
  20357134.486    -5096770.15649  -3769429.95348  20357133.669    20357137.953
 04  7 13 18 24  0.0000000  0  7G22G11G19G15G 3G25G14
  21951986.679     6155454.82649   4794061.60546  21951985.987    21951989.623
  23027787.791   -10041957.20749  -7288283.31445  23027786.816    23027791.358
  22410047.663    -2038889.14049  -1574040.86547  22410046.128    22410050.357
  21676945.347     7717867.70049   6016448.37147  21676944.294    21676951.009
  23889569.663    10943356.45149   8523777.90245  23889569.005    23889577.051
  23231806.438   -10198904.48249  -7929956.26846  23231805.596    23231813.406
  20361863.447    -5071919.93249  -3750066.13448  20361862.546    20361866.788
 04  7 13 18 24 30.0000000  0  7G22G11G19G15G 3G25G14
  21962629.691     6211384.93449   4837643.50746  21962629.098    21962632.763
  23011332.282   -10128429.51149  -7355664.23845  23011331.367    23011336.252
  22418319.873    -1995417.54249  -1540166.91747  22418318.551    22418322.683
  21693569.259     7805227.21349   6084520.68647  21693568.275    21693575.076
  23906635.359    11033035.30349   8593657.48045  23906634.531    23906642.586
  23213460.543   -10295311.64949  -8005078.61646  23213459.817    23213467.649
  20366679.736    -5046609.07449  -3730343.37648  20366678.942    20366683.202
 04  7 13 18 25  0.0000000  0  7G22G11G19G15G 3G25G14
  21973302.339     6267468.13649   4881344.69846  21973301.569    21973305.113
  22994925.359   -10214647.22249  -7422846.84245  22994924.675    22994929.357
  22426684.244    -1951461.01049  -1505915.11847  22426683.240    22426687.423
  21710262.203     7892948.83649   6152875.15547  21710261.049    21710267.939
  23923716.848    11122800.00249   8663603.90345  23923716.167    23923724.463
  23195144.609   -10391564.12349  -8080080.43446  23195143.706    23195151.333
  20371583.198    -5020841.06649  -3710264.42348  20371582.417    20371586.769
 04  7 13 18 25 30.0000000  0  7G22G11G19G15G 3G25G14
  21984003.914     6323704.42449   4925165.17146  21984003.121    21984006.627
  22978567.798   -10300608.04949  -7489829.28645  22978566.860    22978571.391
  22435140.950    -1907021.60749  -1471287.05547  22435139.756    22435144.247
  21727023.554     7981031.13849   6221510.67647  21727022.506    21727029.524
  23940814.139    11212647.90649   8733615.16445  23940813.439    23940821.963
  23176858.299   -10487658.44849  -8154959.05746  23176857.386    23176865.050
  20376573.467    -4994617.34749  -3689830.34848  20376572.672    20376576.973
 04  7 13 18 26  0.0000000  0  7G22G11G19G15G 3G25G14
  21994734.891     6380094.44749   4969105.44046  21994734.063    21994737.394
  22962259.161   -10386308.58449  -7556608.88945  22962258.400    22962263.205
  22443688.873    -1862100.44449  -1436283.59147  22443687.859    22443692.726
  21743853.716     8069473.35349   6290426.63847  21743852.664    21743859.504
  23957927.129    11302577.14749   8803689.85245  23957926.562    23957935.013
  23158602.652   -10583591.10649  -8229711.65546  23158601.964    23158609.636
  20381650.219    -4967938.87449  -3669041.91848  20381649.418    20381653.666
 04  7 13 18 26 30.0000000  0  7G22G11G19G15G 3G25G14
  22005494.216     6436637.49149   5013164.88446  22005493.573    22005496.944
  22946001.024   -10471747.08749  -7623184.35045  22946000.065    22946004.741
  22452328.259    -1816700.28049  -1400906.87947  22452327.257    22452332.190
  21760751.736     8158273.27449   6359621.34347  21760750.776    21760757.505
  23975055.707    11392584.36749   8873825.24445  23975054.605    23975063.048
  23140378.369   -10679359.70949  -8304336.44546  23140377.620    23140385.305
  20386813.034    -4940807.78049  -3647900.80448  20386812.204    20386816.522
 04  7 13 18 27  0.0000000  0  7G22G11G19G15G 3G25G14
  22016283.027     6493333.07149   5057343.20146  22016282.365    22016285.743
  22929792.972   -10556921.65249  -7689554.12445  22929791.897    22929796.754
  22461058.483    -1770823.56649  -1365158.83947  22461057.254    22461062.357
  21777717.517     8247428.78249   6429093.13747  21777716.540    21777723.382
  23992197.048    11482665.86149   8944018.54845  23992196.498    23992205.104
  23122185.785   -10774961.74049  -8378831.45646  23122185.224    23122192.474
  20392061.566    -4913226.06649  -3626408.56948  20392060.800    20392065.213
 04  7 13 18 27 30.0000000  0  7G22G11G19G15G 3G25G14
  22027100.999     6550181.90249   5101640.91846  22027100.435    22027103.633
  22913635.124   -10641828.80049  -7755715.49145  22913634.142    22913639.700
  22469878.977    -1724471.46749  -1329040.35147  22469877.787    22469883.061
  21794751.015     8336939.37249   6498841.59447  21794749.909    21794756.599
  24009353.108    11572820.02749   9014268.44745  24009352.221    24009360.882
  23104026.073   -10870393.46949  -8453193.73645  23104025.097    23104032.122
  20397395.846    -4885194.27949  -3604565.61648  20397395.067    20397399.533
 04  7 13 18 28  0.0000000  0  7G22G11G19G15G 3G25G14
  22037947.995     6607183.09649   5146057.42847  22037947.426    22037950.843
  22897528.906   -10726467.05249  -7821667.31146  22897527.831    22897533.569
  22478789.662    -1677646.92549  -1292553.73147  22478788.468    22478793.408
  21811851.371     8426802.68749   6568864.91247  21811850.321    21811857.112
  24026522.285    11663043.17649   9084572.14345  24026521.314    24026529.639
  23085898.724   -10965652.58149  -8527421.53445  23085897.815    23085904.509
  20402815.297    -4856714.66649  -3582373.70348  20402814.545    20402818.929
 04  7 13 18 28 30.0000000  0  7G22G11G19G15G 3G25G14
  22048823.984     6664335.81049   5190592.03847  22048823.358    22048826.786
  22881474.753   -10810834.80249  -7887408.35446  22881473.454    22881478.727
  22487789.784    -1630352.87249  -1255701.26247  22487788.438    22487792.918
  21829018.148     8517016.18049   6639161.10746  21829017.286    21829024.119
  24043703.932    11753332.00849   9154927.01945  24043702.980    24043710.817
  23067804.762   -11060737.06449  -8601513.27646  23067803.792    23067810.582
  20408319.563    -4827789.75049  -3559834.80848  20408318.815    20408323.197
 04  7 13 18 29  0.0000000  0  7G22G11G19G15G 3G25G14
  22059728.567     6721640.62849   5235245.14247  22059727.998    22059731.612
  22865472.268   -10894929.03449  -7952936.32146  22865471.123    22865476.050
  22496878.581    -1582590.79949  -1218484.09947  22496877.316    22496881.765
  21846251.760     8607579.02549   6709729.50146  21846250.935    21846257.630
  24060896.946    11843684.34549   9225331.31745  24060896.518    24060904.321
  23049744.430   -11155643.43849  -8675466.21046  23049743.704    23049750.632
  20413908.494    -4798420.47849  -3536949.66948  20413907.696    20413912.047
 04  7 13 18 29 30.0000000  0  7G22G11G19G15G 3G25G14
  22070662.286     6779098.04349   5280017.14047  22070661.729    22070665.443
  22849522.403   -10978746.58149  -8018248.64746  22849521.345    22849526.103
  22506056.318    -1534362.24949  -1180903.44547  22506054.843    22506059.428
  21863551.630     8698490.21949   6780569.35846  21863550.769    21863557.690
  24078102.037    11934098.13349   9295783.57645  24078101.617    24078109.621
  23031718.774   -11250368.08549  -8749277.54346  23031718.163    23031725.349
  20419581.568    -4768607.94449  -3513719.12248  20419580.798    20419585.135
 04  7 13 18 30  0.0000000  0  7G22G11G19G15G 3G25G14
  22081624.859     6836706.59049   5324906.91047  22081624.270    22081628.058
  22833625.171   -11062286.64049  -8083344.76746  22833624.161    22833628.899
  22515321.730    -1485670.82249  -1142962.12446  22515320.348    22515325.117
  21880917.205     8789746.59649   6851678.14446  21880916.427    21880923.182
  24095318.477    12024568.90249   9366280.21345  24095317.938    24095325.835
  23013728.160   -11344909.59649  -8822946.16846  23013727.378    23013734.550
  20425338.334    -4738355.06049  -3490145.43948  20425337.603    20425341.903
 04  7 13 18 30 30.0000000  0  7G22G11G19G15G 3G25G14
  22092616.169     6894465.96749   5369914.17947  22092615.601    22092619.251
  22817781.017   -11145546.80849  -8148222.79146  22817780.120    22817785.113
  22524675.030    -1436518.73649  -1104661.85246  22524673.504    22524678.422
  21898347.908     8881346.39149   6923054.58746  21898347.199    21898354.103
  24112545.586    12115094.16149   9436819.28945  24112544.433    24112552.263
  22995772.906   -11439265.24749  -8896469.97346  22995772.088    22995779.207
  20431178.735    -4707663.36949  -3466229.82648  20431178.080    20431182.356
 04  7 13 18 31  0.0000000  0  7G22G11G19G15G 3G25G14
  22103636.209     6952377.79049   5415040.30246  22103635.652    22103639.532
  22801990.613   -11228523.22849  -8212879.69146  22801989.981    22801995.423
  22534115.510    -1386906.73249  -1066003.19446  22534114.168    22534119.355
  21915844.388     8973289.76649   6994698.72446  21915843.478    21915850.603
  24129781.509    12205672.46949   9507399.72345  24129780.661    24129788.891
  22977853.827   -11533430.40649  -8969845.32546  22977853.183    22977860.157
  20437102.702    -4676533.03449  -3441972.42848  20437102.019    20437106.361
 04  7 13 18 31 30.0000000  0  7G22G11G19G15G 3G25G14
  22114685.570     7010442.75149   5460285.69347  22114685.042    22114688.988
  22786255.138   -11311212.55849  -8277312.89246  22786254.625    22786260.117
  22543643.289    -1336836.10249  -1026987.14946  22543642.271    22543647.712
  21933405.565     9065575.84749   7066609.90546  21933404.849    21933412.085
  24147026.490    12296301.91549   9578019.99345  24147026.622    24147035.506
  22959971.797   -11627401.40849  -9043069.40046  22959971.023    22959978.000
  20443109.937    -4644964.94349  -3417373.92448  20443109.200    20443113.625
 04  7 13 18 32  0.0000000  0  7G22G11G19G15G 3G25G14
  22125763.383     7068657.44449   5505647.72547  22125762.972    22125766.918
  22770574.388   -11393615.45349  -8341522.92446  22770573.760    22770579.041
  22553257.741    -1286312.46149   -987618.13246  22553256.655    22553262.144
  21951031.410     9158199.72449   7138784.30846  21951030.668    21951037.873
  24164282.352    12386976.53549   9648675.44145  24164281.615    24164290.145
  22942126.429   -11721178.49349  -9116142.34946  22942125.678    22942132.710
  20449199.503    -4612963.92449  -3392438.05448  20449198.784    20449203.183
 04  7 13 18 32 30.0000000  0  7G22G11G19G15G 3G25G14
  22136869.922     7127022.26849   5551126.77647  22136869.484    22136873.379
  22754948.521   -11475729.32849  -8405507.72146  22754947.948    22754953.282
  22562958.056    -1235337.58749   -947897.48246  22562956.970    22562962.567
  21968721.121     9251159.98149   7211220.83346  21968720.401    21968727.638
  24181546.079    12477694.17149   9719364.43845  24181544.854    24181553.263
  22924318.345   -11814758.18949  -9189061.50046  22924317.925    22924324.924
  20455371.221    -4580531.29549  -3367165.86548  20455370.482    20455374.876
 04  7 13 18 33  0.0000000  0  7G22G11G19G15G 3G25G14
  22148005.160     7185538.03249   5596723.46147  22148004.755    22148008.515
  22739378.143   -11557551.14449  -8469264.94346  22739377.587    22739383.031
  22572743.645    -1183913.15749   -907826.53146  22572742.595    22572748.187
  21986474.940     9344455.83049   7283918.83446  21986474.130    21986481.228
  24198816.090    12568452.41849   9790085.05245  24198815.339    24198824.356
  22906549.324   -11908136.99949  -9261824.08946  22906548.547    22906555.181
  20461624.974    -4547668.22049  -3341558.27548  20461624.232    20461628.533
 04  7 13 18 33 30.0000000  0  7G22G11G19G15G 3G25G14
  22159169.175     7244204.32949   5642437.47346  22159168.567    22159172.297
  22723863.517   -11639078.78449  -8532792.93046  22723863.108    22723868.776
  22582614.483    -1132041.62949   -867407.21546  22582613.353    22582618.987
  22004292.204     9438085.29249   7356876.80246  22004291.276    22004298.227
  24216094.141    12659248.50549   9860835.16345  24216093.137    24216102.302
  22888818.586   -12001312.05949  -9334427.93646  22888817.851    22888824.397
  20467960.246    -4514376.36249  -3315616.56148  20467959.457    20467963.707
 04  7 13 18 34  0.0000000  0  7G22G11G19G15G 3G25G14
  22170361.514     7303020.77049   5688268.49147  22170361.068    22170364.831
  22708405.525   -11720309.87049  -8596089.83746  22708405.218    22708410.976
  22592569.359    -1079725.62649   -826641.52746  22592568.580    22592574.528
  22022172.162     9532046.32549   7430093.15646  22022171.288    22022178.380
  24233379.603    12750079.74549   9931612.65945  24233378.191    24233386.942
  22871127.066   -12094280.70949  -9406870.94446  22871126.399    22871132.937
  20474376.640    -4480657.68949  -3289342.27048  20474375.815    20474380.218
 04  7 13 18 34 30.0000000  0  7G22G11G19G15G 3G25G14
  22181582.331     7361986.17449   5734215.55547  22181581.791    22181585.653
  22693004.753   -11801243.22749  -8659154.76146  22693004.399    22693009.903
  22602608.969    -1026968.63349   -785532.22946  22602608.020    22602613.929
  22040115.314     9626336.25649   7503565.76446  22040114.287    22040121.225
  24250670.129    12840941.95049  10002414.28245  24250668.810    24250677.436
  22853475.053   -12187041.73749  -9479152.16746  22853474.430    22853481.028
  20480873.737    -4446515.05849  -3262737.61348  20480872.957    20480877.367
 04  7 13 18 35  0.0000000  0  7G22G11G19G15G 3G25G14
  22192831.412     7421101.02049   5780279.03347  22192830.913    22192834.846
  22677661.523   -11881876.25349  -8721985.66346  22677660.792    22677665.940
  22612732.186     -973772.40549   -744080.67846  22612731.092    22612736.970
  22058120.221     9720953.69249   7577293.60846  22058119.401    22058126.281
  24267966.118    12931833.01149  10073238.41545  24267964.787    24267973.555
  22835863.161   -12279591.74049  -9551268.97346  22835862.611    22835869.247
  20487451.358    -4411949.69549  -3235803.57448  20487450.533    20487454.917
 04  7 13 18 35 30.0000000  0  7G22G11G19G15G 3G25G14
  22204109.001     7480365.27349   5826458.90547  22204108.465    22204112.421
  22662375.563   -11962206.14049  -8784580.35246  22662374.594    22662379.484
  22622938.589     -920139.32549   -702288.72846  22622937.426    22622943.174
  22076187.753     9815897.08549   7651275.41146  22076186.674    22076193.469
  24285267.979    13022750.27849  10144082.91845  24285266.160    24285274.567
  22818292.637   -12371927.55749  -9623218.84046  22818291.865    22818298.473
  20494109.165    -4376963.12049  -3208541.29748  20494108.364    20494112.603
 04  7 13 18 36  0.0000000  0  7G22G11G19G15G 3G25G14
  22215415.217     7539779.36449   5872755.54347  22215414.698    22215418.665
  22647147.292   -12042230.00449  -8846936.58746  22647146.526    22647151.222
  22633227.575     -866071.35249   -660157.89946  22633226.303    22633232.103
  22094316.582     9911165.13349   7725510.20746  22094315.683    22094322.609
  24302573.276    13113691.28449  10214945.98445  24302571.769    24302580.231
  22800763.218   -12464045.65749  -9694999.09246  22800762.351    22800768.897
  20500846.793    -4341556.78049  -3180951.94548  20500845.990    20500850.226
 04  7 13 18 36 30.0000000  0  7G22G11G19G15G 3G25G14
  22226749.984     7599343.80149   5919169.35047  22226749.452    22226753.499
  22631977.848   -12121944.91049  -8909052.06746  22631977.109    22631982.071
  22643599.074     -811570.02049   -617689.40246  22643597.524    22643603.496
  22112507.132    10006756.62549   7799997.01946  22112506.141    22112513.106
  24319882.853    13204654.28449  10285826.10545  24319881.248    24319890.089
  22783275.758   -12555942.75449  -9766607.11446  22783274.818    22783281.425
  20507663.956    -4305731.74649  -3153036.35048  20507663.180    20507667.562
 04  7 13 18 37  0.0000000  0  7G22G11G19G15G 3G25G14
  22238113.440     7659058.26049   5965700.07547  22238112.944    22238116.810
  22616867.276   -12201348.99249  -8970925.38646  22616866.849    22616872.111
  22654051.657     -756638.21049   -574885.48346  22654050.597    22654056.661
  22130758.607    10102669.49249   7874734.23046  22130757.785    22130764.737
  24337195.752    13295635.85549  10356720.67645  24337194.540    24337203.459
  22765830.400   -12647616.34549  -9838041.04446  22765829.714    22765836.544
  20514560.558    -4269489.82749  -3124795.91548  20514559.796    20514564.181
 04  7 13 18 37 30.0000000  0  7G22G11G19G15G 3G25G14
  22249505.202     7718921.35549   6012346.61847  22249504.589    22249508.327
  22601816.853   -12280440.97549  -9032555.54346  22601816.328    22601821.450
  22664586.211     -701279.48949   -531748.94246  22664585.024    22664590.917
  22149070.788    10198900.77549   7949719.55346  22149069.898    22149077.026
  24354512.050    13386632.29449  10427626.81845  24354510.853    24354519.546
  22748428.218   -12739064.41149  -9909299.24146  22748427.622    22748434.512
  20521535.982    -4232834.29049  -3096233.19948  20521535.137    20521539.518
 04  7 13 18 38  0.0000000  0  7G22G11G19G15G 3G25G14
  22260925.184     7778933.38349   6059109.20447  22260924.602    22260928.295
  22586826.229   -12359218.15949  -9093940.36246  22586825.596    22586830.713
  22675201.416     -645496.40549   -488281.66346  22675200.295    22675206.126
  22167443.490    10295448.99149   8024951.83746  22167442.518    22167449.611
  24371830.291    13477641.09349  10498542.62945  24371829.144    24371838.116
  22731069.842   -12830284.12949  -9980379.45946  22731069.058    22731075.742
  20528589.825    -4195766.62349  -3067349.32748  20528588.983    20528593.221
 04  7 13 18 38 30.0000000  0  7G22G11G19G15G 3G25G14
  22272373.407     7839095.30449   6105988.59247  22272372.947    22272376.650
  22571895.791   -12437677.15449  -9155077.23546  22571895.332    22571900.466
  22685897.433     -589289.84049   -444484.38046  22685896.320    22685901.943
  22185876.431    10392313.55849   8100430.66846  22185875.328    22185882.246
  24389150.287    13568660.97649  10569467.10245  24389149.542    24389158.904
  22713755.346   -12921271.39949 -10051278.55446  22713754.605    22713761.401
  20535722.035    -4158287.33249  -3038144.68748  20535721.176    20535725.296
 04  7 13 18 39  0.0000000  0  7G22G11G19G15G 3G25G14
  22283850.218     7899405.87849   6152983.87146  22283849.593    22283853.413
  22557026.365   -12515816.68149  -9215965.14646  22557026.016    22557031.056
  22696673.607     -532663.68149   -400360.16646  22696672.130    22696677.506
  22204368.902    10489491.34049   8176153.55646  22204367.776    22204374.705
  24406472.980    13659687.87049  10640397.04845  24406471.621    24406480.827
  22696485.481   -13012024.88049 -10121995.43846  22696484.701    22696491.342
  20542931.827    -4120399.35949  -3008621.56748  20542930.945    20542935.006
 04  7 13 18 39 30.0000000  0  7G22G11G19G15G 3G25G14
  22295354.801     7959864.64249   6200094.57946  22295354.357    22295358.145
  22542218.411   -12593634.98649  -9276602.73446  22542217.717    22542222.671
  22707528.585     -475620.97449   -355911.36946  22707527.017    22707532.290
  22222920.262    10586979.91149   8252118.63146  22222919.223    22222926.270
  24423795.914    13750718.31449  10711329.81045  24423794.289    24423803.396
  22679260.734   -13102541.96849 -10192528.13046  22679259.865    22679266.502
  20550218.903    -4082104.94949  -2978781.76648  20550218.040    20550222.234
 04  7 13 18 40  0.0000000  0  7G22G11G19G15G 3G25G14
  22306888.235     8020471.37449   6247320.56546  22306887.573    22306891.131
  22527471.424   -12671129.69749  -9336988.18246  22527470.767    22527475.839
  22718461.684     -418164.22649   -311139.90346  22718460.426    22718466.114
  22241530.743    10684777.27049   8328324.31946  22241529.550    22241536.533
  24441117.357    13841749.69249  10782263.30345  24441116.597    24441126.472
  22662081.196   -13192819.78349 -10262874.38346  22662080.419    22662087.024
  20557582.872    -4043406.15149  -2948626.87148  20557582.082    20557586.487
 04  7 13 18 40 30.0000000  0  7G22G11G19G15G 3G25G14
  22318449.741     8081227.92849   6294663.27347  22318449.208    22318452.693
  22512786.570   -12748296.70349  -9397118.27546  22512786.003    22512791.369
  22729474.733     -360293.91349   -266046.22446  22729473.063    22729478.461
  22260200.023    10782883.64649   8404770.80646  22260198.595    22260205.696
  24458440.012    13932781.37049  10853196.94245  24458439.404    24458449.532
  22644948.190   -13282853.63049 -10333030.53346  22644947.529    22644954.052
  20565023.969    -4004302.84249  -2918156.74848  20565023.221    20565027.644
 04  7 13 18 41  0.0000000  0  7G22G11G19G15G 3G25G14
  22330039.481     8142132.30349   6342121.21847  22330038.876    22330042.589
  22498164.396   -12825135.49549  -9456992.60946  22498163.995    22498169.441
  22740564.940     -302014.71549   -220633.91046  22740563.355    22740568.455
  22278927.316    10881295.19849   8481455.08746  22278925.810    22278932.785
  24475762.823    14023808.57249  10924127.18645  24475761.791    24475771.393
  22627861.946   -13372642.80149 -10402996.03546  22627861.247    22627867.596
  20572541.366    -3964798.86849  -2887374.43048  20572540.606    20572545.026
 04  7 13 18 41 30.0000000  0  7G22G11G19G15G 3G25G14
  22341657.499     8203185.22349   6389694.88847  22341656.993    22341660.695
  22483605.473   -12901642.98149  -9516608.79746  22483605.045    22483610.581
  22751732.349     -243328.49149   -174904.40946  22751731.014    22751736.040
  22297712.330    10980010.90949   8558376.37646  22297710.916    22297717.934
  24493084.070    14114829.37649  10995052.36845  24493082.183    24493091.902
  22610822.818   -13462183.96449 -10472768.29246  22610822.104    22610828.580
  20580134.944    -3924895.16349  -2856280.63348  20580134.110    20580138.425
 04  7 13 18 42  0.0000000  0  7G22G11G19G15G 3G25G14
  22353303.676     8264386.49749   6437384.19247  22353303.200    22353306.988
  22469109.609   -12977816.92649  -9575965.06446  22469109.559    22469115.133
  22762977.096     -184237.80749   -128859.77146  22762975.840    22762980.613
  22316554.786    11079028.93449   8635533.22646  22316553.491    22316560.463
  24510402.092    14205840.99449  11065970.50045  24510401.152    24510411.042
  22593831.436   -13551473.84549 -10542344.74046  22593830.797    22593837.202
  20587804.059    -3884593.61849  -2824876.82848  20587803.250    20587807.603
 04  7 13 18 42 30.0000000  0  7G22G11G19G15G 3G25G14
  22364978.109     8325735.62549   6485188.71047  22364977.548    22364981.383
  22454678.257   -13053655.35849  -9635059.93746  22454678.060    22454683.402
  22774298.072     -124745.60049    -82502.25446  22774296.782    22774301.759
  22335454.408    11178347.08249   8712923.94946  22335453.118    22335460.174
  24527718.699    14296840.77949  11136879.30645  24527717.853    24527727.967
  22576888.261   -13640509.94149 -10611723.42946  22576887.587    22576894.130
  20595548.453    -3843896.39949  -2793164.70648  20595547.609    20595552.003
 04  7 13 18 43  0.0000000  0  7G22G11G19G15G 3G25G14
  22376680.431     8387231.22249   6533107.32647  22376679.867    22376683.590
  22440310.597   -13129157.30849  -9693892.57346  22440310.297    22440315.896
  22785694.807      -64855.91649    -35835.03046  22785693.433    22785698.592
  22354410.475    11277961.66149   8790545.63846  22354409.264    22354416.175
  24545032.998    14387824.15949  11207775.37945  24545031.807    24545041.493
  22559993.456   -13729291.45049 -10680903.75046  22559992.842    22559999.411
  20603367.459    -3802807.03849  -2761147.02648  20603366.676    20603371.010
 04  7 13 18 43 30.0000000  0  7G22G11G19G15G 3G25G14
  22388410.884     8448874.61549   6581141.09947  22388410.306    22388413.900
  22426007.822   -13204319.28549  -9752460.33946  22426007.448    22426013.026
  22797166.802       -4569.93349     11141.01846  22797165.401    22797170.703
  22373422.734    11377872.06949   8868397.86046  22373421.383    22373428.536
  24562342.810    14478789.81649  11278657.68945  24562341.844    24562351.713
  22543148.078   -13817814.00349 -10749882.27846  22543147.414    22543154.188
  20611261.144    -3761325.81349  -2728823.98448  20611260.311    20611264.583
 04  7 13 18 44  0.0000000  0  7G22G11G19G15G 3G25G14
  22400169.054     8510665.19049   6629289.59746  22400168.536    22400172.014
  22411770.336   -13279139.30749  -9810761.62846  22411769.754    22411775.058
  22808713.669       56109.20049     58423.38446  22808712.346    22808717.493
  22392490.803    11478076.34149   8946479.04246  22392489.652    22392496.888
  24579649.448    14569734.76749  11349523.79845  24579648.133    24579657.797
  22526352.149   -13906075.17349 -10818657.17646  22526351.642    22526358.481
  20619228.820    -3719454.91349  -2696197.31648  20619227.996    20619232.414
 04  7 13 18 44 30.0000000  0  7G22G11G19G15G 3G25G14
  22411955.485     8572602.50949   6677552.39946  22411954.936    22411958.151
  22397598.245   -13353615.62349  -9868795.08646  22397597.566    22397602.757
  22820335.427      117178.41549    106009.73346  22820333.761    22820338.896
  22411614.599    11578571.90249   9024787.21246  22411613.393    22411620.639
  24596951.737    14660655.63449  11420371.16045  24596950.056    24596959.513
  22509606.836   -13994072.64849 -10887226.54546  22509606.234    22509613.070
  20627270.171    -3677196.96649  -2663269.05048  20627269.339    20627273.839
 04  7 13 18 45  0.0000000  0  7G22G11G19G15G 3G25G14
  22423769.891     8634686.86449   6725929.78946  22423769.337    22423772.300
  22383491.904   -13427745.37149  -9926558.49346  22383491.222    22383496.430
  22832030.253      178635.27049    153898.14946  22832028.665    22832033.832
  22430793.245    11679357.19249   9103321.15546  22430792.255    22430799.597
  24614247.989    14751550.72249  11491198.47845  24614246.801    24614256.542
  22492912.421   -14081803.31449 -10955588.02046  22492911.691    22492918.461
  20635384.924    -3634553.31549  -2630040.24348  20635384.111    20635388.681
 04  7 13 18 45 30.0000000  0  7G22G11G19G15G 3G25G14
  22435612.294     8696918.34949   6774421.85146  22435611.699    22435614.860
  22369451.770   -13501526.05949  -9984049.88346  22369451.181    22369456.461
  22843798.410      240477.30549    202086.68346  22843796.898    22843801.856
  22450027.161    11780430.39749   9182079.43946  22450025.970    22450033.134
  24631539.605    14842417.29549  11562003.51145  24631538.141    24631547.847
  22476268.867   -14169264.11649 -11023739.23946  22476268.383    22476275.214
  20643572.826    -3591525.65949  -2596512.21648  20643572.003    20643576.685
 04  7 13 18 46  0.0000000  0  7G22G11G19G15G 3G25G14
  22447482.574     8759297.56149   6823028.99946  22447481.942    22447485.293
  22355478.926   -13574954.85949 -10041267.12147  22355478.334    22355483.392
  22855639.637      302702.87849    250574.07446  22855638.061    22855642.930
  22469315.324    11881790.41149   9261061.20146  22469314.287    22469321.351
  24648824.849    14933253.35049  11632784.78345  24648823.604    24648833.207
  22459677.639   -14256451.69249 -11091677.54746  22459677.169    22459683.825
  20651833.574    -3548115.06449  -2562685.77948  20651832.843    20651837.333
 04  7 13 18 46 30.0000000  0  7G22G11G19G15G 3G25G14
  22459381.000     8821824.82449   6871751.54046  22459380.414    22459383.822
  22341573.280   -13648029.15949 -10098208.09246  22341572.741    22341577.695
  22867552.892      365309.26649    299358.20446  22867551.404    22867556.489
  22488657.567    11983435.59049   9340265.20446  22488656.567    22488663.723
  24666104.039    15024056.61749  11703540.49145  24666103.142    24666112.576
  22443139.027   -14343363.06249 -11159400.62146  22443138.479    22443145.154
  20660166.955    -3504323.26649  -2528562.29247  20660166.214    20660170.498
 04  7 13 18 47  0.0000000  0  7G22G11G19G15G 3G25G14
  22471307.746     8884499.17249   6920588.67246  22471307.117    22471310.433
  22327735.574   -13720747.18649 -10154871.45846  22327735.050    22327739.929
  22879538.441      428293.16349    348436.51146  22879537.085    22879542.130
  22508053.766    12085363.09149   9419689.17946  22508052.740    22508059.864
  24683376.287    15114823.61149  11774267.96845  24683375.575    24683384.842
  22426652.929   -14429996.08949 -11226906.82246  22426652.781    22426659.540
  20668572.355    -3460152.86249  -2494143.80247  20668571.576    20668575.734
 04  7 13 18 47 30.0000000  0  7G22G11G19G15G 3G25G14
  22483261.848     8947319.25049   6969539.36646  22483261.263    22483264.458
  22313965.940   -13793108.33449 -10211256.75446  22313965.233    22313969.971
  22891594.954      491650.19849    397805.58346  22891593.630    22891598.539
  22527503.119    12187569.61249   9499330.55646  22527502.005    22527509.116
  24700641.385    15205550.29549  11844964.00845  24700640.592    24700649.673
  22410220.957   -14516349.53349 -11294195.14646  22410220.278    22410226.950
  20677049.120    -3415607.11049  -2459432.84048  20677048.397    20677052.545
 04  7 13 18 48  0.0000000  0  7G22G11G19G15G 3G25G14
  22495244.343     9010287.37049   7018605.35446  22495243.737    22495246.841
  22300264.960   -13865108.25449 -10267360.57646  22300264.228    22300268.768
  22903722.182      555380.21549    447465.27646  22903720.885    22903725.813
  22547005.715    12290055.43449   9579189.58746  22547004.444    22547011.736
  24717898.254    15296236.20849  11915628.27845  24717897.544    24717906.792
  22393842.388   -14602418.53249 -11361261.84846  22393841.756    22393848.374
  20685597.394    -3370685.71449  -2424429.15348  20685596.630    20685600.790
 04  7 13 18 48 30.0000000  0  7G22G11G19G15G 3G25G14
  22507254.266     9073400.28249   7067784.25446  22507253.712    22507257.202
  22286632.914   -13936746.94549 -10323182.92546  22286631.946    22286636.358
  22915919.553      619477.44549    497411.10146  22915918.320    22915923.282
  22566560.277    12392815.84849   9659262.56646  22566559.246    22566566.412
  24735147.192    15386876.01649  11986256.60245  24735146.203    24735155.084
  22377518.102   -14688203.07849 -11428106.88246  22377517.537    22377523.907
  20694216.092    -3325393.42249  -2389136.45247  20694215.373    20694219.595
 04  7 13 18 49  0.0000000  0  7G22G11G19G15G 3G25G14
  22519291.956     9136658.32049   7117076.23746  22519291.269    22519294.873
  22273069.581   -14008022.30449 -10378722.13946  22273068.596    22273073.170
  22928186.573      683939.31849    547641.09046  22928185.207    22928189.989
  22586167.102    12495848.91949   9739548.03646  22586165.832    22586173.068
  24752386.695    15477467.23749  12056847.16145  24752385.440    24752394.056
  22361248.168   -14773700.16849 -11494727.93546  22361247.840    22361254.312
  20702905.190    -3279731.94249  -2353556.08847  20702904.448    20702908.749
 04  7 13 18 49 30.0000000  0  7G22G11G19G15G 3G25G14
  22531357.834     9200064.37849   7166483.54746  22531357.116    22531360.696
  22259576.216   -14078929.21449 -10433974.24946  22259575.317    22259580.010
  22940523.137      748765.95249    598155.28346  22940521.577    22940526.088
  22605825.592    12599155.41949   9820046.53746  22605824.383    22605831.685
  24769616.486    15568010.24249  12127400.04245  24769615.312    24769624.240
  22345034.338   -14858904.16749 -11561120.59446  22345033.965    22345040.263
  20711664.708    -3233700.43249  -2317687.39047  20711663.983    20711668.223
 04  7 13 18 50  0.0000000  0  7G22G11G19G15G 3G25G14
  22543451.393     9263617.34749   7216005.27946  22543450.744    22543454.500
  22246153.065   -14149466.51549 -10488938.33246  22246152.280    22246157.225
  22952928.286      813953.75549    648950.92846  22952926.679    22952931.173
  22625535.558    12702732.36649   9900755.78746  22625534.538    22625541.851
  24786837.466    15658501.66049  12197912.73445  24786835.570    24786844.505
  22328876.845   -14943813.62549 -11627283.73946  22328876.311    22328882.443
  20720494.193    -3187301.66249  -2281532.51147  20720493.421    20720497.700
 04  7 13 18 50 30.0000000  0  7G22G11G19G15G 3G25G14
  22555573.388     9327317.57949   7265641.73546  22555572.811    22555576.334
  22232800.715   -14219631.31049 -10543612.17746  22232800.143    22232805.286
  22965401.257      879500.40249    700026.19646  22965399.625    22965404.610
  22645296.604    12806578.27449   9981674.61846  22645295.628    22645303.257
  24804046.861    15748939.23749  12268383.54845  24804045.188    24804054.227
  22312775.598   -15028424.93349 -11693214.58146  22312775.127    22312781.485
  20729393.203    -3140537.02349  -2245092.53047  20729392.430    20729396.746
 04  7 13 18 51  0.0000000  0  7G22G11G19G15G 3G25G14
  22567722.872     9391163.05749   7315391.45546  22567722.072    22567725.700
  22219519.539   -14289423.43849 -10597995.65146  22219519.087    22219524.161
  22977942.016      945400.94549    751377.18546  22977940.243    22977945.154
  22665108.408    12910689.42149  10062800.10246  22665107.573    22665114.952
  24821245.431    15839318.22149  12338808.63445  24821243.372    24821252.926
  22296731.613   -15112737.69549 -11758912.77146  22296731.005    22296737.320
  20738360.919    -3093410.54249  -2208370.60347  20738360.172    20738364.655
 04  7 13 18 51 30.0000000  0  7G22G11G19G15G 3G25G14
  22579899.970     9455155.47149   7365255.71246  22579899.311    22579903.266
  22206310.540   -14358838.46449 -10652085.26846  22206309.981    22206314.770
  22990549.355     1011654.49049    803003.26946  22990547.815    22990552.752
  22684970.205    13015065.30049  10144131.92946  22684969.542    22684977.050
  24838431.593    15929637.98949  12409187.58145  24838430.323    24838440.481
  22280745.250   -15196747.22949 -11824374.67846  22280744.681    22280750.948
  20747397.573    -3045922.39149  -2171366.84547  20747396.856    20747401.423
 04  7 13 18 52  0.0000000  0  6G22G11G19G15G25G14
  22592105.761     9519295.60749   7415234.99746  22592105.090    22592108.897
  22193173.979   -14427873.87349 -10705879.07646  22193173.066    22193177.761
  23003223.796     1078258.77549    854902.62946  23003222.211    23003227.100
  22704882.887    13119704.73949  10225669.06246  22704881.947    22704889.270
  22264816.718   -15280450.65249 -11889598.07746  22264816.278    22264822.511
  20756502.871    -2998073.76749  -2134082.21847  20756502.142    20756506.819
 04  7 13 18 52 30.0000000  0  6G22G11G19G15G25G14
  22604339.424     9583584.05249   7465329.84046  22604338.783    22604342.546
  22180109.420   -14496526.68149 -10759374.73246  22180108.661    22180113.591
  23015964.037     1145211.77749    907073.77946  23015962.881    23015967.872
  22724845.137    13224605.95149  10307410.18846  22724844.087    22724851.566
  22248947.357   -15363844.45149 -11954580.19646  22248946.895    22248953.151
  20765676.496    -2949866.07149  -2096517.79647  20765675.682    20765680.460
 04  7 13 18 53  0.0000000  0  6G22G11G19G15G25G14
  22616600.245     9648017.67849   7515537.79845  22616599.833    22616603.813
  22167117.443   -14564797.80949 -10812573.00046  22167116.935    22167122.037
  23028769.990     1212507.74049    959512.13946  23028768.935    23028773.999
  22744855.984    13329764.33049  10389351.72646  22744855.025    22744862.622
  22233136.924   -15446928.69749 -12019321.10046  22233136.549    22233142.623
  20774917.506    -2901303.88349  -2058677.14047  20774916.774    20774921.571
 04  7 13 18 53 30.0000000  0  6G22G11G19G15G25G14
  22628889.522     9712596.02049   7565858.49445  22628889.035    22628892.693
  22154198.957   -14632685.44249 -10865472.43947  22154198.487    22154203.607
  23041640.979     1280142.99549   1012214.86246  23041639.505    23041644.612
  22764915.412    13435176.97149  10471491.37446  22764914.368    22764921.630
  22217385.770   -15529701.45149 -12083819.30146  22217385.275    22217391.499
  20784225.650    -2852390.07149  -2020562.48547  20784224.890    20784229.602
 04  7 13 18 54  0.0000000  0  6G22G11G19G15G25G14
  22641205.492     9777315.57749   7616289.30845  22641204.751    22641208.549
  22141353.269   -14700190.76249 -10918073.95547  22141352.740    22141357.803
  23054574.731     1348111.55849   1065177.32646  23054573.491    23054578.814
  22785022.335    13540838.67549  10553825.08046  22785021.188    22785028.325
  22201693.427   -15612163.32949 -12148075.24846  22201693.238    22201699.559
  20793599.649    -2803129.59249  -1982177.68947  20793598.881    20793603.465
 04  7 13 18 54 30.0000000  0  6G22G11G19G15G25G14
  22653548.942     9842181.73649   7666834.28245  22653548.364    22653552.000
  22128581.762   -14767305.92049 -10970371.45846  22128581.222    22128586.113
  23067572.457     1416416.08549   1118401.56846  23067571.502    23067576.592
  22805176.905    13646752.88949  10636355.56746  22805175.965    22805183.149
  22186062.456   -15694306.01749 -12212082.46346  22186062.098    22186068.194
  20803040.153    -2753518.99849  -1943520.09447  20803039.386    20803044.121
 04  7 13 18 55  0.0000000  0  6G22G11G19G15G25G14
  22665920.538     9907192.06249   7717491.57245  22665919.741    22665923.001
  22115884.424   -14834031.41749 -11022365.33046  22115883.832    22115888.460
  23080633.387     1485051.19649   1171883.42046  23080632.251    23080637.521
  22825379.147    13752914.98449  10719079.20546  22825377.959    22825385.257
  22170491.908   -15776129.68249 -12275841.10946  22170491.349    22170497.514
  20812546.539    -2703562.77149  -1904593.17147  20812545.794    20812550.465
 04  7 13 18 55 30.0000000  0  6G22G11G19G15G25G14
  22678318.822     9972348.21849   7768262.63745  22678318.118    22678321.902
  22103261.878   -14900363.09149 -11074052.32746  22103261.181    22103265.805
  23093756.732     1554015.84849   1225622.04346  23093755.935    23093761.343
  22845628.089    13859324.89949  10801995.93046  22845627.071    22845634.706
  22154982.843   -15857629.63849 -12339347.51746  22154982.395    22154988.440
  20822118.706    -2653260.84149  -1865396.88547  20822117.967    20822122.595
 04  7 13 18 56  0.0000000  0  6G22G11G19G15G25G14
  22690745.421    10037651.70249   7819148.52845  22690745.082    22690749.037
  22090714.858   -14966297.37749 -11125429.65746  22090714.227    22090718.971
  23106942.942     1623308.58849   1279616.29846  23106941.847    23106947.341
  22865923.953    13965981.81649  10885105.13646  22865923.309    22865930.826
  22139536.173   -15938802.13249 -12402598.75646  22139535.689    22139541.755
  20831756.582    -2602613.91349  -1825931.73047  20831755.835    20831760.299
 04  7 13 18 56 30.0000000  0  6G22G11G19G15G25G14
  22703200.128    10103098.92949   7870146.31245  22703199.263    22703203.369
  22078243.430   -15031835.45749 -11176498.28246  22078242.840    22078247.347
  23120189.730     1692923.18349   1333861.37746  23120188.967    23120194.915
  22886266.637    14072880.03549  10968402.36446  22886265.578    22886272.993
  22124151.686   -16019648.10849 -12465595.57346  22124151.318    22124157.271
  20841459.033    -2551627.45149  -1786202.03348  20841458.299    20841462.802
 04  7 13 18 57  0.0000000  0  6G22G11G19G15G25G14
  22715681.629    10168691.29149   7921257.20745  22715681.001    22715684.961
  22065848.304   -15096973.77149 -11227255.38347  22065847.571    22065851.990
  23133497.891     1762858.16549   1388356.09846  23133497.113    23133502.998
  22906654.591    14180019.25049  11051887.39246  22906653.543    22906661.140
  22108830.466   -16100163.01349 -12528334.40347  22108829.866    22108835.855
  20851226.033    -2500301.76649  -1746208.01047  20851225.227    20851229.828
 04  7 13 18 57 30.0000000  0  6G22G11G19G15G25G14
  22728191.242    10234427.29449   7972480.01645  22728190.461    22728194.298
  22053529.184   -15161711.68849 -11277700.49747  22053528.450    22053532.941
  23146866.109     1833108.93049   1443096.92546  23146865.468    23146871.559
  22927087.504    14287395.33549  11135556.99646  22927086.408    22927094.332
  22093572.155   -16180346.12949 -12590814.69647  22093571.439    22093577.471
  20861056.713    -2448640.81749  -1705952.75047  20861055.892    20861060.552
 04  7 13 18 58  0.0000000  0  6G22G11G19G15G25G14
  22740727.896    10300307.60049   8023815.33445  22740727.042    22740730.887
  22041286.572   -15226046.36349 -11327831.39247  22041285.816    22041290.498
  23160294.528     1903673.32749   1498082.08146  23160293.523    23160299.352
  22947565.155    14395007.23149  11219410.35446  22947564.371    22947572.217
  22078377.338   -16260193.76449 -12653033.59347  22078376.818    22078382.902
  20870951.092    -2396645.26749  -1665436.73947  20870950.332    20870954.973
 04  7 13 18 58 30.0000000  0  6G22G11G19G15G25G14
  22753292.195    10366333.54349   8075264.11846  22753291.464    22753295.552
  22029121.198   -15289974.48349 -11377645.48746  22029120.527    22029125.417
  23173781.519     1974549.73249   1553310.41846  23173780.695    23173786.759
  22968088.480    14502854.27749  11303446.89846  22968087.223    22968094.758
  22063247.577   -16339702.15249 -12714988.13247  22063246.912    22063252.870
  20880909.067    -2344316.10749  -1624660.79447  20880908.288    20880912.985
 04  7 13 18 59  0.0000000  0  6G22G11G19G15G25G14
  22765884.031    10432504.96449   8126826.17846  22765883.487    22765887.473
  22017033.730   -15353494.05649 -11427141.22746  22017033.015    22017038.138
  23187328.236     2045735.46149   1608779.71246  23187327.117    23187332.888
  22988655.376    14610934.09949  11387664.86846  22988654.246    22988661.844
  22048182.565   -16418869.03949 -12776676.58147  22048181.822    22048188.053
  20890930.266    -2291655.23649  -1583626.34247  20890929.450    20890934.014
 04  7 13 18 59 30.0000000  0  6G22G11G19G15G25G14
  22778503.585    10498821.00849   8178500.95545  22778502.902    22778507.034
  22005024.433   -15416603.29249 -11476317.24946  22005023.749    22005028.853
  23200932.352     2117226.65149   1664487.11146  23200931.279    23200937.410
  23009266.230    14719244.26549  11472062.31346  23009265.167    23009272.842
  22033182.773   -16497692.56249 -12838097.44547  22033182.156    22033188.165
  20901013.954    -2238665.09549  -1542335.34147  20901013.130    20901017.680
 04  7 13 19  0  0.0000000  0  7G22G23G11G19G15G25G14
  22791148.777    10565273.97149   8230282.42945  22791148.356    22791152.492
  24756606.541    -3820807.24848  -2965151.87145  24756603.513    24756610.955
  21993092.189   -15479308.06949 -11525178.08847  21993091.479    21993096.560
  23214593.486     2189012.74849   1720424.20846  23214592.003    23214597.980
  23029919.141    14827774.62549  11556631.33546  23029917.870    23029925.392
  22018247.510   -16576177.49149 -12899254.48247  22018246.875    22018252.945
  20911158.390    -2185355.46849  -1500795.39647  20911157.617    20911162.180
 04  7 13 19  0 30.0000000  0  7G22G23G11G19G15G25G14
  22803822.761    10631876.04749   8282180.13945  22803822.075    22803826.469
  24737570.424    -3920833.01949  -3043093.96445  24737568.767    24737576.355
  21981239.785   -15541594.09249 -11573712.63147  21981238.995    21981244.015
  23228310.951     2261102.60749   1776598.08746  23228310.005    23228316.384
  23050615.495    14936535.06549  11641379.65346  23050614.342    23050621.916
  22003379.540   -16654309.73049 -12960136.68147  22003378.887    22003384.853
  20921365.745    -2131716.34649  -1458998.67147  20921364.920    20921369.384
 04  7 13 19  1  0.0000000  0  7G22G23G11G19G15G25G14
  22816524.853    10698626.76149   8334193.73945  22816524.418    22816528.933
  24718560.564    -4020728.27949  -3120934.31945  24718559.616    24718566.858
  21969467.354   -15603459.27149 -11621919.26047  21969466.584    21969471.477
  23242086.547     2333493.27449   1833006.32446  23242085.589    23242091.961
  23071355.251    15045523.31349  11726305.45445  23071354.004    23071361.654
  21988579.316   -16732086.50349 -13020741.90247  21988578.484    21988584.470
  20931635.236    -2077749.91049  -1416946.91747  20931634.401    20931638.858
 04  7 13 19  1 30.0000000  0  7G22G23G11G19G15G25G14
  22829254.515    10765520.07649   8386318.36446  22829253.876    22829258.225
  24699574.931    -4120498.12949  -3198676.91145  24699574.012    24699581.541
  21957774.452   -15664907.85149 -11669801.27647  21957773.480    21957778.153
  23255917.496     2406175.64649   1889641.89646  23255916.495    23255923.117
  23092136.222    15154730.92649  11811402.22245  23092135.218    23092143.312
  21973845.631   -16809511.62749 -13081073.11447  21973844.884    21973850.843
  20941965.503    -2023464.30849  -1374646.47647  20941964.620    20941969.105
 04  7 13 19  2  0.0000000  0  7G22G23G11G19G15G25G14
  22842011.649    10832558.38849   8438555.93746  22842011.124    22842015.067
  24680613.077    -4220138.79049  -3276318.89645  24680612.459    24680620.556
  21946161.197   -15725935.25149 -11717355.07047  21946160.250    21946164.980
  23269803.990     2479149.38849   1946504.51146  23269802.990    23269809.709
  23112959.533    15264158.64449  11896670.47546  23112958.880    23112966.831
  21959179.637   -16886580.11649 -13141126.43747  21959179.136    21959185.173
  20952356.501    -1968858.93749  -1332096.84547  20952355.636    20952360.200
 04  7 13 19  2 30.0000000  0  7G22G23G11G19G15G25G14
  22854795.488    10899739.64049   8490904.94145  22854795.085    22854799.263
  24661676.823    -4319650.97449  -3353860.76745  24661675.996    24661683.533
  21934628.124   -15786541.20649 -11764580.47747  21934627.184    21934631.938
  23283745.281     2552409.39249   2003590.14846  23283743.980    23283750.482
  23133824.774    15373802.34449  11982107.02146  23133823.736    23133831.464
  21944582.127   -16963291.49849 -13200901.48647  21944581.532    21944587.582
  20962807.474    -1913937.60349  -1289301.01247  20962806.701    20962811.441
 04  7 13 19  3  0.0000000  0  7G22G23G11G19G15G25G14
  22867607.459    10967064.94649   8543366.16945  22867607.015    22867610.773
  24642765.475    -4419032.76249  -3431300.99545  24642764.460    24642771.361
  21923175.874   -15846722.69849 -11811475.11447  21923174.972    21923179.833
  23297740.225     2625953.85749   2060897.46146  23297739.160    23297745.564
  23154730.498    15483660.65949  12067710.79646  23154729.204    23154736.954
  21930053.223   -17039642.35549 -13260395.59447  21930052.441    21930058.439
  20973318.402    -1858701.56449  -1246259.95947  20973317.635    20973322.443
 04  7 13 19  3 30.0000000  0  7G22G23G11G19G15G25G14
  22880446.212    11034533.61149   8595939.04045  22880445.707    22880449.044
  24623878.146    -4518283.43749  -3508639.10045  24623877.554    24623884.467
  21911804.714   -15906478.31449 -11858037.91147  21911803.864    21911808.626
  23311788.623     2699779.20649   2118423.69246  23311787.516    23311794.260
  23175675.933    15593731.14649  12153479.92646  23175674.834    23175683.007
  21915592.821   -17115630.43749 -13319607.04747  21915592.251    21915598.199
  20983888.946    -1803152.95449  -1202975.33547  20983888.117    20983892.893
 04  7 13 19  4  0.0000000  0  7G22G23G11G19G15G25G14
  22893312.649    11102147.53449   8648625.18545  22893312.220    22893315.756
  24605016.926    -4617400.04049  -3585872.66845  24605016.581    24605023.402
  21900515.286   -15965804.20749 -11904265.86647  21900514.480    21900519.244
  23325890.425     2773884.04749   2176167.61946  23325889.293    23325895.699
  23196662.298    15704013.08449  12239413.81446  23196660.836    23196669.097
  21901202.787   -17191251.55849 -13378532.53747  21901202.053    21901207.921
  20994518.791    -1747292.02649  -1159447.36647  20994517.978    20994522.873
 04  7 13 19  4 30.0000000  0  7G22G23G11G19G15G25G14
  22906206.421    11169904.18849   8701422.54546  22906205.963    22906209.645
  24586181.883    -4716383.76949  -3663002.70345  24586180.731    24586187.255
  21889307.773   -16024700.51649 -11950159.08347  21889306.858    21889311.689
  23340044.216     2848263.22249   2234125.38246  23340043.114    23340049.635
  23217687.742    15814502.14449  12325509.09045  23217686.390    23217694.425
  21886882.160   -17266505.80149 -13437172.16147  21886881.557    21886887.481
  21005207.357    -1691123.18649  -1115679.46047  21005206.638    21005211.560
 04  7 13 19  5  0.0000000  0  7G22G23G11G19G15G25G14
  22919127.542    11237804.26449   8754331.65546  22919127.068    22919130.672
  24567370.859    -4815232.51449  -3740027.58245  24567370.773    24567377.043
  21878182.545   -16083164.47849 -11995715.44547  21878181.630    21878186.282
  23354249.998     2922914.54349   2292295.19646  23354248.700    23354255.279
  23238751.993    15925196.87249  12411764.64345  23238751.086    23238758.759
  21872632.027   -17341389.73649 -13495523.23247  21872631.562    21872637.444
  21015954.436    -1634647.59149  -1071672.49947  21015953.698    21015958.457
 04  7 13 19  5 30.0000000  0  7G22G23G11G19G15G25G14
  22932075.906    11305848.13949   8807352.83945  22932075.355    22932078.814
  24548587.348    -4913944.98049  -3816946.29645  24548586.397    24548592.926
  21867139.839   -16141193.99349 -12040933.23347  21867138.925    21867143.742
  23368507.224     2997835.38749   2350674.97446  23368505.780    23368512.379
  23259855.902    16036095.62949  12498179.14345  23259854.587    23259862.009
  21858453.105   -17415900.71249 -13553583.69447  21858452.528    21858458.409
  21026759.577    -1577866.73549  -1027427.68847  21026758.828    21026763.519
 04  7 13 19  6  0.0000000  0  7G22G23G11G19G15G25G14
  22945051.575    11374035.76349   8860485.99145  22945051.052    22945054.483
  24529829.442    -5012519.89149  -3893757.83645  24529828.333    24529834.055
  21856180.029   -16198786.71349 -12085810.63547  21856179.193    21856184.278
  23382814.590     3073022.72049   2409262.44546  23382813.386    23382820.004
  23280997.536    16147196.06849  12584750.81745  23280996.241    23281003.883
  21844345.726   -17490036.20949 -13611351.54147  21844345.035    21844350.733
  21037622.391    -1520782.51749   -982946.49447  21037621.648    21037626.182
 04  7 13 19  6 30.0000000  0  7G22G23G11G19G15G25G14
  22958054.707    11442367.39449   8913731.38246  22958054.090    22958057.864
  24511097.498    -5110956.12249  -3970461.27045  24511096.502    24511101.740
  21845303.919   -16255940.63549 -12130346.11647  21845303.131    21845308.271
  23397172.461     3148473.72749   2468055.37646  23397171.434    23397178.194
  23302177.344    16258496.30549  12671478.15845  23302176.109    23302183.838
  21830309.958   -17563793.73949 -13668824.89647  21830309.391    21830315.212
  21048542.513    -1463396.80249   -938230.39747  21048541.807    21048546.345
 04  7 13 19  7  0.0000000  0  7G22G23G11G19G15G25G14
  22971085.202    11510842.77849   8967088.79146  22971084.580    22971088.641
  24492391.459    -5209252.70749  -4047055.90045  24492390.991    24492396.547
  21834511.943   -16312653.91549 -12174538.28747  21834511.132    21834515.965
  23411580.524     3224185.14149   2527051.23046  23411578.961    23411585.560
  23323395.222    16369994.04049  12758359.38345  23323393.450    23323401.427
  21816346.911   -17637171.09349 -13726001.98547  21816346.178    21816351.868
  21059519.683    -1405711.76549   -893281.01347  21059518.949    21059523.366
 04  7 13 19  7 30.0000000  0  7G22G23G11G19G15G25G14
  22984142.456    11579462.11249   9020558.38645  22984142.070    22984146.549
  24473713.147    -5307407.82449  -4123540.30345  24473712.691    24473718.702
  21823804.166   -16368924.01549 -12218385.11447  21823803.316    21823807.960
  23426037.190     3300154.54249   2586248.11146  23426035.542    23426042.033
  23344648.829    16481687.53849  12845393.19845  23344647.767    23344656.148
  21802456.156   -17710165.10449 -13782880.40347  21802455.684    21802461.580
  21070553.333    -1347728.94349   -848099.60147  21070552.670    21070557.134
 04  7 13 19  8  0.0000000  0  7G22G23G11G19G15G25G14
  22997227.671    11648223.95749   9074138.99245  22997227.130    22997231.260
  24455062.443    -5405422.07549  -4199914.92645  24455061.234    24455066.986
  21813180.446   -16424750.62449 -12261886.36047  21813179.780    21813184.450
  23440541.834     3376377.17549   2645642.31346  23440540.332    23440546.795
  23365940.203    16593573.02849  12932576.59045  23365938.898    23365947.285
  21788639.012   -17782775.36649 -13839459.76547  21788638.450    21788644.177
  21081643.186    -1289451.68149   -802688.76447  21081642.462    21081646.966
 04  7 13 19  8 30.0000000  0  7G22G23G11G19G15G25G14
  23010339.900    11717129.12449   9127831.33446  23010339.472    23010343.700
  24436437.485    -5503293.44949  -4276178.18145  24436436.458    24436442.371
  21802641.946   -16480130.76249 -12305039.71647  21802641.266    21802645.863
  23455094.323     3452851.05749   2705232.29046  23455092.758    23455099.239
  23387267.313    16705649.22649  13019908.58346  23387266.442    23387275.043
  21774895.365   -17854998.49549 -13895737.48647  21774894.744    21774900.578
  21092788.785    -1230881.25549   -757049.48647  21092788.047    21092792.709
 04  7 13 19  9  0.0000000  0  7G22G23G11G19G15G25G14
  23023479.493    11786177.14749   9181634.93646  23023478.908    23023483.113
  24417839.945    -5601021.20749  -4352329.61245  24417839.242    24417844.941
  21792188.244   -16535063.05849 -12347844.07447  21792187.793    21792192.528
  23469693.975     3529572.76849   2765015.35646  23469692.340    23469699.057
  23408630.467    16817913.46849  13107387.09346  23408629.793    23408638.433
  21761225.669   -17926832.40349 -13951711.90947  21761225.117    21761231.038
  21103989.739    -1172019.86949   -711183.49847  21103989.042    21103993.805
 04  7 13 19  9 30.0000000  0  7G22G23G11G19G15G25G14
  23036646.378    11855368.66949   9235550.32646  23036645.762    23036649.766
  24399270.782    -5698603.85549  -4428367.89845  24399269.568    24399275.506
  21781820.635   -16589544.90149 -12390297.43847  21781820.180    21781824.934
  23484340.070     3606539.72349   2824989.53446  23484338.650    23484345.288
  23430029.153    16930363.97549  13195010.77145  23430028.468    23430037.080
  21747630.706   -17998274.18649 -14007380.78047  21747630.229    21747636.009
  21115245.930    -1112868.96649   -665091.90447  21115245.150    21115249.855
 04  7 13 19 10  0.0000000  0  7G22G23G11G19G15G25G14
  23049840.206    11924701.98849   9289576.31245  23049839.548    23049843.460
  24380728.175    -5796041.68849  -4504293.40645  24380727.444    24380733.500
  21771539.170   -16643575.84549 -12432399.46747  21771538.527    21771543.231
  23499032.497     3683747.50549   2885151.39146  23499030.970    23499037.504
  23451463.041    17042997.21049  13282776.81345  23451461.950    23451470.309
  21734110.588   -18069322.86949 -14062743.34347  21734110.148    21734115.923
  21126556.431    -1053432.06649   -618777.46747  21126555.650    21126560.387
 04  7 13 19 10 30.0000000  0  8G22G23G 1G11G19G15G25G14
  23063060.733    11994177.21849   9343712.82745  23063060.365    23063064.325
  24362214.524    -5893333.29149  -4580104.89945  24362213.421    24362219.822
  24557420.832    -1313486.52849  -1011206.50145  24557420.401    24557431.927
  21761343.722   -16697153.85549 -12474148.54347  21761343.026    21761347.684
  23513769.787     3761193.17449   2945498.57846  23513768.527    23513774.801
  23472930.871    17155811.07849  13370683.61745  23472929.908    23472938.157
  21720665.837   -18139976.01749 -14117797.69747  21720665.257    21720671.035
  21137921.218     -993710.68449   -572241.35247  21137920.422    21137924.960
 04  7 13 19 11  0.0000000  0  8G22G23G 1G11G19G15G25G14
  23076308.552    12063793.29749   9397959.01946  23076308.035    23076312.056
  24343728.220    -5990478.98849  -4655802.69645  24343726.630    24343733.677
  24539432.316    -1408023.53349  -1084871.54445  24539431.415    24539441.567
  21751234.403   -16750278.35049 -12515544.25547  21751233.844    21751238.292
  23528551.454     3838872.44549   3006027.85645  23528550.303    23528556.805
  23494432.591    17268802.09549  13458728.44945  23494431.464    23494439.414
  21707296.227   -18210232.64049 -14172543.07047  21707295.822    21707301.594
  21149339.489     -933708.03249   -525486.06347  21149338.637    21149343.077
 04  7 13 19 11 30.0000000  0  8G22G23G 1G11G19G15G25G14
  23089583.035    12133552.52149   9452316.78846  23089582.574    23089586.865
  24325268.639    -6087475.10449  -4731384.02445  24325268.317    24325276.036
  24521472.117    -1502406.74949  -1158416.81945  24521470.909    24521481.146
  21741212.246   -16802944.78549 -12556583.01947  21741211.733    21741216.086
  23543377.736     3916784.89649   3066738.78746  23543376.610    23543383.164
  23515967.475    17381970.60749  13546911.61645  23515966.764    23515974.477
  21694003.035   -18280088.16049 -14226975.90547  21694002.655    21694008.432
  21160811.245     -873423.77849   -478511.33947  21160810.376    21160814.853
 04  7 13 19 12  0.0000000  0  8G22G23G 1G11G19G15G25G14
  23102885.564    12203455.77849   9506786.70745  23102884.956    23102888.937
  24306841.250    -6184319.75549  -4806847.27245  24306840.044    24306846.962
  24503540.397    -1596634.45249  -1231840.85745  24503539.533    24503550.212
  21731277.744   -16855150.56049 -12597262.82347  21731277.180    21731281.708
  23558248.620     3994928.40249   3127629.71746  23558246.915    23558253.419
  23537536.920    17495315.56449  13635232.27145  23537535.802    23537543.343
  21680787.152   -18349539.18149 -14281093.53747  21680786.644    21680792.348
  21172336.312     -812858.81249   -431317.87347  21172335.457    21172339.919
 04  7 13 19 12 30.0000000  0  8G22G23G 1G11G19G15G25G14
  23116214.465    12273500.77049   9561367.21145  23116213.879    23116218.122
  24288441.490    -6281013.89549  -4882193.26845  24288439.843    24288446.407
  24485638.344    -1690707.55149  -1305144.41145  24485637.527    24485648.424
  21721430.935   -16906895.65349 -12637583.66447  21721430.377    21721435.049
  23573162.035     4073297.50749   3188696.47546  23573160.410    23573166.677
  23559138.750    17608832.55449  13723686.93545  23559137.618    23559145.356
  21667648.037   -18418585.71849 -14334896.00747  21667647.460    21667653.204
  21183913.966     -752017.08649   -383908.76547  21183913.102    21183917.689
 04  7 13 19 13  0.0000000  0  8G22G23G 1G11G19G15G25G14
  23129571.046    12343690.69149   9616060.63445  23129570.521    23129575.023
  24270070.459    -6377553.53549  -4957418.87245  24270069.111    24270075.458
  24467766.479    -1784621.76249  -1378324.22445  24467765.699    24467776.373
  21711672.781   -16958175.40949 -12677541.89447  21711672.112    21711676.906
  23588118.220     4151892.40749   3249939.19346  23588116.776    23588122.908
  23580773.257    17722522.40149  13812276.30945  23580772.161    23580779.862
  21654586.970   -18487222.15349 -14388378.88547  21654586.492    21654592.000
  21195544.519     -690897.54849   -336283.18047  21195543.710    21195548.396
 04  7 13 19 13 30.0000000  0  8G22G23G 1G11G19G15G25G14
  23142955.040    12414022.69449   9670864.70145  23142954.446    23142958.664
  24251728.064    -6473940.30849  -5032525.30845  24251726.950    24251733.676
  24449925.330    -1878378.95449  -1451381.64345  24449924.060    24449934.295
  21702003.075   -17008990.73949 -12717138.24747  21702002.386    21702007.135
  23603116.949     4230707.37649   3311353.36946  23603115.114    23603120.948
  23602439.937    17836379.91449  13900996.30045  23602438.591    23602446.244
  21641603.648   -18555449.31449 -14441542.87647  21641603.130    21641608.755
  21207227.165     -629504.98049   -288444.83247  21207226.373    21207231.102
 04  7 13 19 14  0.0000000  0  8G22G23G 1G11G19G15G25G14
  23156365.561    12484496.16749   9725779.09345  23156364.902    23156369.339
  24233415.043    -6570173.62649  -5107512.19845  24233414.306    24233420.908
  24432114.027    -1971978.68249  -1524316.34045  24432112.781    24432122.640
  21692422.051   -17059340.26249 -12756371.63447  21692421.279    21692425.888
  23618155.499     4309738.83149   3372936.28446  23618154.082    23618160.245
  23624137.643    17950402.48949  13989844.97245  23624136.521    23624143.932
  21628698.419   -18623265.56949 -14494386.66947  21628698.044    21628703.765
  21218961.317     -567841.66549   -240395.51847  21218960.569    21218965.304
 04  7 13 19 14 30.0000000  0  8G22G23G 1G11G19G15G25G14
  23169803.459    12555112.39349   9780804.66545  23169802.809    23169806.981
  24215132.185    -6666251.07049  -5182377.68145  24215131.582    24215137.958
  24414331.844    -2065418.58049  -1597126.55145  24414331.560    24414341.422
  21682930.099   -17109220.68049 -12795239.49547  21682929.390    21682933.805
  23633235.814     4388984.95649   3434686.43346  23633234.123    23633240.559
  23645867.284    18064589.30249  14078821.57245  23645865.658    23645873.271
  21615872.417   -18690667.01549 -14546907.23947  21615871.914    21615877.806
  21230746.937     -505908.37649   -192135.82147  21230746.150    21230750.846
 04  7 13 19 15  0.0000000  0  8G22G23G 1G11G19G15G25G14
  23183268.455    12625870.20049   9835940.61646  23183267.648    23183271.889
  24196879.710    -6762172.64249  -5257121.65145  24196878.948    24196883.973
  24396581.525    -2158698.67949  -1669812.19945  24396581.138    24396590.820
  21673527.396   -17158631.36749 -12833741.30847  21673526.840    21673531.346
  23648356.091     4468441.77849   3496600.76346  23648354.295    23648360.739
  23667626.554    18178936.90749  14167923.45145  23667625.354    23667633.102
  21603125.377   -18757652.38249 -14599103.60247  21603124.928    21603130.765
  21242583.335     -443707.84349   -143667.89247  21242582.556    21242587.207
 04  7 13 19 15 30.0000000  0  8G22G23G 1G11G19G15G25G14
  23196760.089    12696768.54649   9891185.96446  23196759.447    23196763.453
  24178656.758    -6857938.57449  -5331744.35545  24178655.376    24178660.061
  24378861.744    -2251819.26749  -1742373.56445  24378861.105    24378870.486
  21664214.226   -17207571.98049 -12871876.83447  21664213.787    21664218.299
  23663514.832     4548104.88149   3558675.84146  23663513.740    23663520.268
  23689416.422    18293441.83049  14257147.95445  23689415.050    23689422.863
  21590457.933   -18824221.10849 -14650975.29547  21590457.377    21590463.263
  21254469.914     -381243.38349    -94994.30447  21254469.147    21254473.832
 04  7 13 19 16  0.0000000  0  8G22G23G 1G11G19G15G25G14
  23210278.695    12767809.35549   9946542.40646  23210277.949    23210282.233
  24160462.793    -6953545.71349  -5406243.31745  24160461.920    24160466.718
  24361172.951    -2344777.04549  -1814808.09245  24361171.803    24361181.032
  21654991.321   -17256038.34149 -12909642.82247  21654990.862    21654995.330
  23678714.059     4627973.59249   3620911.12346  23678712.508    23678718.910
  23711235.874    18408104.21949  14346495.11245  23711234.624    23711242.551
  21577870.146   -18890368.68349 -14702518.83547  21577869.742    21577875.698
  21266406.759     -318514.75749    -46114.88647  21266406.023    21266410.713
 04  7 13 19 16 30.0000000  0  8G22G23G 1G11G19G15G25G14
  23223824.253    12838992.25449  10002009.55946  23223823.651    23223828.087
  24142299.520    -7048993.66649  -5480618.25045  24142298.484    24142303.350
  24343513.875    -2437571.64849  -1887115.43245  24343513.256    24343522.206
  21645859.202   -17304029.09049 -12947038.21447  21645858.584    21645862.964
  23693951.718     4708043.98549   3683303.55546  23693949.551    23693955.771
  23733084.913    18522921.02749  14435962.63445  23733083.539    23733091.599
  21565363.323   -18956093.37949 -14753732.83747  21565362.820    21565368.673
  21278393.478     -255524.38449      2968.47247  21278392.665    21278397.443
 04  7 13 19 17  0.0000000  0  8G22G23G 1G11G19G15G25G14
  23237397.198    12910318.02849  10057587.99546  23237396.655    23237401.123
  24124167.302    -7144279.97949  -5554867.22945  24124166.297    24124170.823
  24325887.416    -2530200.77949  -1959293.86045  24325886.400    24325895.971
  21636817.930   -17351541.41249 -12984060.79247  21636817.293    21636821.768
  23709225.974     4788314.15549   3745851.66645  23709224.365    23709230.268
  23754962.752    18637891.63649  14525549.96545  23754961.691    23754969.871
  21552937.341   -19021391.95249 -14804614.81047  21552936.962    21552942.644
  21290429.858     -192273.04949     52255.20547  21290429.073    21290433.791
 04  7 13 19 17 30.0000000  0  8G22G23G 1G11G19G15G25G14
  23250996.943    12981784.85649  10113276.36846  23250996.390    23251000.841
  24106065.458    -7239405.55249  -5628990.93445  24106064.218    24106068.691
  24308291.221    -2622665.21849  -2031343.99245  24308290.851    24308300.159
  21627867.620   -17398575.55049 -13020710.75647  21627866.959    21627871.589
  23724538.375     4868779.44049   3808551.80946  23724536.495    23724542.241
  23776869.716    18753011.66349  14615253.77745  23776868.337    23776876.640
  21540592.533   -19086264.20349 -14855164.58747  21540592.099    21540597.801
  21302515.152     -128764.48349    101742.39547  21302514.376    21302518.990
 04  7 13 19 18  0.0000000  0  8G22G23G 1G11G19G15G25G14
  23264623.660    13053392.86049  10169074.75746  23264623.166    23264627.430
  24087993.966    -7334369.32149  -5702988.59445  24087993.041    24087997.758
  24290727.998    -2714964.18149  -2103265.07545  24290727.020    24290736.225
  21619008.796   -17445129.43749 -13056986.50547  21619008.002    21619012.588
  23739887.108     4949436.72949   3871401.59146  23739885.110    23739891.012
  23798804.767    18868279.09349  14705072.39645  23798802.961    23798811.453
  21528329.374   -19150707.89249 -14905380.40847  21528328.928    21528334.492
  21314649.175      -65000.19449    151428.83447  21314648.376    21314652.935
 04  7 13 19 18 30.0000000  0  8G22G23G 1G11G19G15G25G14
  23278277.389    13125143.28349  10224984.15046  23278276.805    23278281.349
  24069953.562    -7429169.12949  -5776858.43345  24069952.888    24069957.769
  24273195.695    -2807095.25249  -2175055.47045  24273194.817    24273204.203
  21610241.941   -17491200.09449 -13092885.72447  21610241.101    21610245.575
  23755271.925     5030284.47449   3934399.73446  23755270.079    23755276.237
  23820766.913    18983692.78349  14795005.04045  23820765.427    23820774.208
  21516148.516   -19214719.13849 -14955259.27347  21516147.971    21516153.527
  21326831.542        -980.85249    201313.98447  21326830.732    21326835.486
 04  7 13 19 19  0.0000000  0  8G22G23G 1G11G19G15G25G14
  23291957.695    13197035.64249  10281004.17046  23291957.223    23291961.983
  24051944.931    -7523804.00949  -5850599.83645  24051944.486    24051949.658
  24255695.370    -2899057.73949  -2246714.43945  24255695.110    24255703.649
  21601567.089   -17536786.26049 -13128407.40647  21601566.337    21601570.676
  23770691.772     5111319.00149   3997543.44746  23770690.463    23770697.027
  23842757.019    19099250.43349  14885049.80545  23842755.594    23842764.598
  21504049.817   -19278296.71249 -15004800.20847  21504049.397    21504055.153
  21339062.198       63291.17149    251396.06547  21339061.415    21339066.061
 04  7 13 19 19 30.0000000  0  8G22G23G 1G11G19G15G25G14
  23305665.530    13269068.16249  10337133.31746  23305664.934    23305669.162
  24033967.318    -7618274.85949  -5924213.40845  24033967.001    24033972.412
  24238227.570    -2990852.46649  -2318242.70845  24238227.165    24238235.708
  21592984.435   -17581888.26549 -13163551.82247  21592983.718    21592987.994
  23786147.006     5192535.41149   4060828.87746  23786145.474    23786152.027
  23864773.425    19214947.81749  14975203.47845  23864771.962    23864781.219
  21492033.979   -19341440.09749 -15054002.81247  21492033.615    21492039.335
  21351340.237      127812.03149    301672.04647  21351339.415    21351343.989
 04  7 13 19 20  0.0000000  0  8G22G23G 1G11G19G15G25G14
  23319399.510    13341241.75049  10393372.45146  23319398.936    23319403.393
  24016021.964    -7712579.92849  -5997697.76645  24016021.155    24016026.728
  24220792.084    -3082477.67149  -2389638.84645  24220791.585    24220800.135
  21584494.541   -17626503.13749 -13198316.66447  21584493.726    21584497.996
  23801636.124     5273931.74249   4124254.51845  23801634.711    23801641.211
  23886816.221    19330783.76249  15065465.11445  23886815.042    23886824.136
  21480101.389   -19404146.62449 -15102865.00147  21480100.936    21480106.601
  21363665.362      192581.01749    352141.35547  21363664.602    21363669.161
 04  7 13 19 20 30.0000000  0  8G22G23G 1G11G19G15G25G14
  23333160.397    13413556.04049  10449721.15745  23333159.830    23333164.036
  23998107.545    -7806718.31449  -6071052.30345  23998107.145    23998112.549
  24203389.018    -3173932.67449  -2460902.38545  24203388.243    24203397.343
  21576097.366   -17670629.82649 -13232701.07947  21576096.600    21576100.995
  23817159.332     5355504.73249   4187817.81345  23817157.674    23817164.013
  23908885.145    19446755.54549  15155832.58245  23908884.033    23908892.986
  21468252.170   -19466414.31349 -15151385.25147  21468251.818    21468257.492
  21376037.419      257595.79149    402802.20047  21376036.608    21376041.125
 04  7 13 19 21  0.0000000  0  8G22G23G 1G11G19G15G25G14
  23346948.002    13486010.89349  10506179.45545  23346947.555    23346952.010
  23980226.302    -7900689.01249  -6144276.15245  23980225.255    23980230.143
  24186018.490    -3265216.41449  -2532032.38945  24186017.410    24186026.442
  21567793.394   -17714266.46849 -13266703.65047  21567792.768    21567797.224
  23832714.844     5437251.32849   4251516.40045  23832713.417    23832720.225
  23930979.061    19562861.07249  15246304.31245  23930978.169    23930987.303
  21456486.928   -19528240.97649 -15199561.84547  21456486.563    21456492.252
  21388455.690      322854.63549    453653.21647  21388454.921    21388459.491
 04  7 13 19 21 30.0000000  0  8G22G23G 1G11G19G15G25G14
  23360762.934    13558607.34949  10562748.02646  23360762.349    23360766.679
  23962376.090    -7994490.17649  -6217367.89445  23962375.652    23962380.114
  24168680.104    -3356326.94249  -2603027.54445  24168679.002    24168688.911
  21559583.414   -17757410.43549 -13300322.32047  21559582.722    21559587.154
  23848303.688     5519169.45149   4315348.59245  23848302.182    23848308.823
  23953098.946    19679098.94149  15336879.11245  23953097.535    23953106.697
  21444806.244   -19589623.91049 -15247392.66447  21444805.780    21444811.395
  21400920.292      388356.66749    504693.73647  21400919.482    21400924.087
 04  7 13 19 22  0.0000000  0  8G22G23G 1G11G19G15G25G14
  23374604.089    13631342.85549  10619425.00245  23374603.539    23374607.849
  23944558.464    -8088122.91449  -6290328.40645  23944557.907    23944562.717
  24151375.525    -3447265.55749  -2673888.69145  24151374.660    24151383.675
  21551466.933   -17800062.38749 -13333557.60947  21551466.350    21551470.744
  23863924.358     5601253.50249   4379310.13145  23863922.551    23863929.401
  23975242.956    19795464.70949  15427553.61545  23975241.625    23975250.407
  21433210.058   -19650563.06549 -15294877.66947  21433209.518    21433215.052
  21413430.396      454097.74149    555920.54247  21413429.631    21413434.135
 04  7 13 19 22 30.0000000  0  8G22G23G 1G11G19G15G25G14
  23388472.163    13704218.86449  10676211.45945  23388471.647    23388475.858
  23926772.978    -8181585.01549  -6363155.93845  23926772.550    23926777.269
  24134103.984    -3538030.00449  -2744614.11445  24134102.838    24134111.642
  21543444.680   -17842219.24049 -13366407.11247  21543444.104    21543448.666
  23879575.904     5683501.98649   4443399.77645  23879574.174    23879580.741
  23997411.018    19911957.47749  15518327.05445  23997409.499    23997418.271
  21421698.747   -19711055.33949 -15342014.48647  21421698.157    21421703.750
  21425985.951      520077.59749    607333.37347  21425985.249    21425989.757
 04  7 13 19 23  0.0000000  0  8G22G23G 1G11G19G15G25G14
  23402366.990    13777236.17449  10733108.06145  23402366.339    23402370.624
  23909020.137    -8274874.56149  -6435849.02945  23909019.741    23909024.945
  24116865.095    -3628618.49149  -2815202.46745  24116864.183    24116873.205
  21535516.983   -17883878.89649 -13398869.15947  21535516.512    21535521.289
  23895257.989     5765912.62749   4507615.79045  23895256.318    23895262.982
  24019602.386    20028575.99449  15609198.49845  24019601.285    24019610.150
  21410273.033   -19771097.84449 -15388800.82947  21410272.437    21410278.064
  21438586.862      586294.82549    658931.18247  21438586.115    21438590.594
 04  7 13 19 23 30.0000000  0  8G22G23G 1G11G19G15G25G14
  23416288.543    13850394.65449  10790114.54545  23416288.051    23416292.062
  23891300.650    -8367990.97949  -6508407.19945  23891300.047    23891305.587
  24099660.082    -3719030.43849  -2885653.20445  24099659.333    24099668.273
  21527684.469   -17925039.86449 -13430942.63847  21527683.805    21527688.657
  23910970.322     5848482.20749   4571955.61645  23910968.492    23910975.112
  24041817.835    20145317.99749  15700166.14445  24041816.537    24041825.441
  21398933.254   -19830688.59149 -15435235.14447  21398932.687    21398938.214
  21451232.476      652747.45549    710712.40747  21451231.602    21451236.233
 04  7 13 19 24  0.0000000  0  8G22G23G 1G11G19G15G25G14
  23430236.505    13923692.49549  10847229.72745  23430236.005    23430240.241
  23873613.871    -8460934.64049  -6580830.74745  23873613.561    23873618.878
  24082488.581    -3809266.23749  -2955966.73745  24082487.761    24082496.832
  21519946.799   -17965701.81549 -13462627.27547  21519946.091    21519950.944
  23926711.827     5931206.23649   4636415.82645  23926710.432    23926716.922
  24064056.261    20262179.56049  15791226.90745  24064054.812    24064063.395
  21387679.266   -19889827.20549 -15481317.16147  21387678.808    21387684.498
  21463922.208      719432.29549    762674.59347  21463921.386    21463925.998
 04  7 13 19 24 30.0000000  0  8G22G23G 1G11G19G15G25G14
  23444211.298    13997130.49749  10904454.11045  23444210.721    23444215.331
  23855960.550    -8553704.10049  -6653118.58245  23855960.133    23855965.553
  24065351.352    -3899324.61049  -3026141.97945  24065350.474    24065359.055
  21512304.566   -18005862.92949 -13493921.63547  21512303.682    21512308.673
  23942483.765     6014082.22249   4700994.41345  23942481.955    23942487.656
  24086316.489    20379158.90049  15882379.48245  24086315.211    24086323.824
  21376512.269   -19948511.54749 -15527045.16547  21376511.699    21376517.222
  21476655.973      786348.06949    814816.73747  21476655.131    21476659.695
 04  7 13 19 25  0.0000000  0  8G22G23G 1G11G19G15G25G14
  23458212.547    14070708.51549  10961787.56445  23458211.977    23458216.996
  23838340.348    -8646298.23349  -6725269.82045  23838339.860    23838345.447
  24048247.862    -3989204.56449  -3096178.21145  24048246.756    24048255.460
  21504757.765   -18045521.52749 -13524824.44247  21504757.036    21504761.873
  23958282.734     6097107.15549   4765689.10745  23958281.067    23958287.096
  24108598.794    20496254.04049  15973622.29845  24108597.785    24108606.492
  21365431.908   -20006739.12949 -15572417.29147  21365431.270    21365436.962
  21489433.200      853493.03549    867137.45547  21489432.376    21489437.025
 04  7 13 19 25 30.0000000  0  8G22G23G 1G11G19G15G25G14
  23472241.033    14144426.78349  11019230.26645  23472240.496    23472244.893
  23820754.154    -8738715.72249  -6797283.34945  23820753.436    23820759.140
  24031177.528    -4078904.65449  -3166074.31545  24031176.984    24031186.215
  21497307.028   -18084675.60149 -13555334.10947  21497306.354    21497311.098
  23974109.360     6180278.43249   4830497.80645  23974107.801    23974114.329
  24130903.289    20613463.02449  16064953.73445  24130902.405    24130910.862
  21354438.751   -20064507.95649 -15617431.93447  21354438.160    21354443.817
  21502253.740      920865.88249    919635.74647  21502252.970    21502257.717
 04  7 13 19 26  0.0000000  0  8G22G23G 1G11G19G15G25G14
  23486295.592    14218284.76049  11076781.94645  23486295.045    23486300.060
  23803201.378    -8830956.00149  -6869158.80945  23803200.438    23803206.459
  24014141.778    -4168424.67149  -3235830.12345  24014141.606    24014151.411
  21489952.281   -18123324.33649 -13585449.99047  21489951.676    21489956.491
  23989963.156     6263592.50749   4895417.77645  23989961.536    23989968.469
  24153227.925    20730783.01849  16156371.82245  24153227.367    24153236.547
  21343533.185   -20121816.47149 -15662087.88547  21343532.620    21343538.424
  21515117.234      988464.05149    972309.63047  21515116.465    21515121.170
 04  7 13 19 26 30.0000000  0  8G22G23G 1G11G19G15G25G14
  23500377.020    14292282.23849  11134442.22345  23500376.397    23500380.779
  23785681.984    -8923018.76549  -6940895.99345  23785681.315    23785687.513
  23997140.314    -4257763.93049  -3305445.06345  23997140.636    23997150.556
  21482694.070   -18161466.45849 -13615171.12547  21482693.520    21482698.350
  24005843.880     6347045.69549   4960446.15245  24005842.360    24005848.790
  24175575.226    20848211.64049  16247874.48845  24175573.847    24175582.911
  21332715.473   -20178662.89049 -15706383.76647  21332715.019    21332720.757
  21528023.243     1056285.40849   1025157.42347  21528022.450    21528027.098
 04  7 13 19 27  0.0000000  0  8G22G23G 1G11G19G15G25G14
  23514484.903    14366418.06449  11192210.30345  23514484.054    23514488.190
  23768197.383    -9014904.06549  -7012494.84346  23768196.330    23768202.430
  23980174.594    -4346922.47149  -3374919.16945  23980174.251    23980184.037
  21475532.681   -18199101.22449 -13644496.91047  21475531.879    21475536.751
  24021751.008     6430634.34849   5025580.05845  24021749.200    24021755.567
  24197941.045    20965745.53349  16339459.18045  24197940.014    24197948.999
  21321986.146   -20235046.59449 -15750319.10047  21321985.617    21321991.334
  21540971.043     1124327.38849   1078177.09747  21540970.287    21540975.054
 04  7 13 19 27 30.0000000  0  8G22G23G 1G11G19G15G25G14
  23528618.703    14440695.06449  11250088.46145  23528618.336    23528622.747
  23750746.581    -9106607.72549  -7083952.22446  23750745.720    23750751.514
  23963242.910    -4435896.47249  -3444249.56945  23963242.723    23963252.976
  21468468.567   -18236224.50249 -13673424.14747  21468467.749    21468472.486
  24037682.411     6514358.12449   5090819.27545  24037681.230    24037687.867
  24220327.626    21083385.39249  16431126.38045  24220326.476    24220335.083
  21311345.596   -20290963.08549 -15793890.37947  21311345.073    21311350.664
  21553960.945     1192590.90949   1131369.39447  21553960.294    21553965.116
 04  7 13 19 28  0.0000000  0  8G22G23G 1G11G19G15G25G14
  23542780.179    14515110.89349  11308074.68245  23542779.493    23542783.588
  23733329.951    -9198131.22449  -7155269.19146  23733329.517    23733335.251
  23946346.584    -4524687.58449  -3513437.32845  23946346.159    23946356.346
  21461501.474   -18272837.42649 -13701953.70247  21461500.592    21461505.293
  24053638.888     6598211.57149   5156159.48245  24053637.593    24053644.859
  24242733.305    21201126.70649  16522872.65645  24242732.006    24242740.778
  21300793.921   -20346412.71449 -15837097.87047  21300793.418    21300799.007
  21566992.683     1261072.11049   1184731.35047  21566991.912    21566996.676
 04  7 13 19 28 30.0000000  0  8G22G23G 1G11G19G15G25G14
  23556967.536    14589665.06449  11366168.82745  23556966.810    23556971.154
  23715948.491    -9289473.86549  -7226445.18246  23715948.100    23715953.294
  23929485.358    -4613294.92649  -3582481.95445  23929485.122    23929495.051
  21454631.488   -18308938.74249 -13730084.59347  21454630.728    21454635.306
  24069620.399     6682191.82149   5221598.51845  24069618.460    24069625.702
  24265157.373    21318966.96249  16614696.03645  24265156.441    24265165.360
  21290331.495   -20401393.53049 -15879940.02747  21290330.920    21290336.346
  21580065.213     1329769.04649   1238261.40447  21580064.462    21580069.331
 04  7 13 19 29  0.0000000  0  8G22G23G 1G11G19G15G25G14
  23571181.197    14664356.72749  11424370.00345  23571180.672    23571184.703
  23698601.002    -9380635.63949  -7297480.28745  23698600.381    23698605.403
  23912659.335    -4701718.73149  -3651383.56045  23912658.591    23912668.638
  21447858.805   -18344527.83149 -13757816.35247  21447858.277    21447862.973
  24085625.026     6766294.61549   5287133.09145  24085622.939    24085630.019
  24287599.967    21436903.04549  16706594.10045  24287598.905    24287608.179
  21279958.222   -20455904.93249 -15922416.42947  21279957.712    21279963.207
  21593178.482     1398678.58349   1291957.12147  21593177.704    21593182.457
 04  7 13 19 29 30.0000000  0  8G22G23G 1G11G19G15G25G14
  23585420.972    14739187.56349  11482679.71645  23585420.543    23585424.876
  23681288.401    -9471613.92949  -7368372.42545  23681287.736    23681292.609
  23895868.662    -4789956.27949  -3720140.04245  23895867.885    23895877.695
  21441184.569   -18379601.31349 -13785146.34347  21441184.027    21441188.753
  24101652.012     6850519.00449   5352762.39145  24101650.574    24101657.477
  24310060.750    21554934.52849  16798566.49345  24310059.586    24310069.169
  21269674.986   -20509943.49349 -15964524.37747  21269674.521    21269679.892
  21606332.087     1467800.96449   1345818.67547  21606331.288    21606336.073
 04  7 13 19 30  0.0000000  0  8G22G23G 1G11G19G15G25G14
  23599687.375    14814157.52049  11541097.74445  23599686.647    23599691.104
  23664010.529    -9562408.04049  -7439121.11945  23664010.237    23664014.817
  23879113.870    -4878006.95249  -3788750.95945  23879112.614    23879122.102
  21434608.555   -18414157.92449 -13812073.59847  21434607.990    21434612.684
  24117702.198     6934861.74949   5418483.77345  24117700.414    24117707.369
  24332538.991    21673058.83949  16890611.15945  24332537.904    24332547.489
  21259482.136   -20563507.20249 -16006262.36447  21259481.697    21259487.073
  21619525.930     1537134.45249   1399844.70047  21619525.124    21619529.792
 04  7 13 19 30 30.0000000  0  8G22G23G 1G11G19G15G25G14
  23613979.929    14889266.51849  11599624.05145  23613979.373    23613983.875
  23646768.384    -9653016.80249  -7509725.35045  23646767.993    23646772.394
  23862393.893    -4965869.71849  -3857215.46845  23862392.571    23862401.428
  21428131.305   -18448196.33849 -13838597.08147  21428130.763    21428135.249
  24133773.026     7019319.70749   5484295.01145  24133771.907    24133779.195
  24355035.144    21791273.97749  16982726.55245  24355033.621    24355043.095
  21249380.051   -20616594.53749 -16047629.12347  21249379.551    21249384.759
  21632759.467     1606677.07549   1454033.70447  21632758.703    21632763.318
 04  7 13 19 31  0.0000000  0  8G22G23G 1G11G19G15G25G14
  23628298.744    14964514.72549  11658258.89945  23628298.290    23628303.096
  23629562.006    -9743439.04349  -7580184.20545  23629561.026    23629565.627
  23845710.161    -5053543.44949  -3925532.62145  23845708.648    23845717.635
  21421753.189   -18481715.17349 -13864715.66847  21421752.410    21421756.759
  24149866.457     7103890.29549   5550194.02845  24149865.476    24149872.690
  24377547.470    21909578.02549  17074911.28945  24377546.246    24377555.734
  21239369.010   -20669203.27849 -16088622.93947  21239368.461    21239373.789
  21646032.563     1676427.51149   1508384.63447  21646031.814    21646036.474
 04  7 13 19 31 30.0000000  0  8G22G23G 1G11G19G15G25G14
  23642644.105    15039901.46449  11717001.68745  23642643.738    23642648.448
  23612390.681    -9833674.24849  -7650497.35745  23612389.782    23612394.307
  23829062.646    -5141027.76949  -3993702.21945  23829061.095    23829069.637
  21415473.958   -18514713.15249 -13890428.41147  21415473.176    21415477.533
  24165980.688     7188570.13149   5616178.11245  24165979.689    24165986.817
  24400076.086    22027968.25849  17167163.17045  24400075.289    24400085.045
  21229449.157   -20721332.24049 -16129242.91247  21229448.609    21229453.881
  21659344.773     1746383.71249   1562895.88747  21659343.958    21659348.872
 04  7 13 19 32  0.0000000  0  8G22G23G 1G11G19G15G25G14
  23657016.346    15115425.42549  11775851.36145  23657015.758    23657020.314
  23595255.081    -9923723.45649  -7720665.52445  23595254.085    23595258.402
  23812450.699    -5228323.45249  -4061724.78345  23812449.095    23812457.981
  21409293.783   -18547190.85149 -13915735.73047  21409292.935    21409297.278
  24182114.586     7273354.38849   5682243.59945  24182113.622    24182120.946
  24422621.555    22146440.98049  17259479.27645  24422620.121    24422629.999
  21219620.558   -20772981.55349 -16169489.14947  21219620.003    21219625.423
  21672695.537     1816542.19249   1617564.77147  21672694.775    21672699.532
 04  7 13 19 32 30.0000000  0  8G22G23G 1G11G19G15G25G14
  23671414.461    15191086.77649  11834808.16845  23671413.891    23671418.298
  23578154.535   -10013584.74049  -7790687.25845  23578153.854    23578158.463
  23795874.858    -5315428.90149  -4129599.12045  23795873.420    23795882.287
  21403212.562   -18579146.44649 -13940636.19147  21403211.905    21403216.387
  24198267.594     7358241.05949   5748388.91245  24198266.679    24198274.408
  24445182.352    22264994.56849  17351858.45845  24445180.434    24445190.343
  21209883.951   -20824148.49149 -16209359.47347  21209883.323    21209888.694
  21686084.462     1886901.72449   1672390.31947  21686083.657    21686088.483
 04  7 13 19 33  0.0000000  0  8G22G23G 1G11G19G15G25G14
  23685838.718    15266886.69049  11893872.94945  23685838.275    23685842.775
  23561090.792   -10103256.22449  -7860561.10945  23561090.066    23561094.444
  23779335.340    -5402342.19049  -4197323.72245  23779334.320    23779342.663
  21397231.598   -18610577.33249 -13965127.80947  21397230.915    21397235.244
  24214440.299     7443228.06849   5814612.39245  24214439.411    24214447.020
  24467757.204    22383628.10749  17444299.90845  24467755.645    24467765.676
  21200239.339   -20874830.39649 -16248851.86347  21200238.820    21200244.247
  21699511.714     1957461.96749   1727372.28547  21699510.841    21699515.703
 04  7 13 19 33 30.0000000  0  8G22G23G 1G11G19G15G25G14
  23700289.232    15342823.51049  11953044.39445  23700288.681    23700293.218
  23544062.820   -10192738.81349  -7930287.78145  23544062.015    23544066.356
  23762832.908    -5489064.52849  -4264899.52345  23762831.684    23762839.713
  21391350.264   -18641484.14849 -13989211.04547  21391349.557    21391353.890
  24230631.268     7528310.35849   5880910.20345  24230630.182    24230637.928
  24490347.264    22502337.09148  17536800.23645  24490345.457    24490355.295
  21190686.838   -20925027.62249 -16287966.58747  21190686.553    21190692.062
  21712976.331     2028219.31849   1782507.86547  21712975.570    21712980.415
 04  7 13 19 34  0.0000000  0  8G22G23G 1G11G19G15G25G14
  23714766.104    15418897.81549  12012322.96245  23714765.548    23714769.802
  23527071.679   -10282031.07249  -7999866.09445  23527070.229    23527074.656
  23746367.072    -5575594.37749  -4332325.31145  23746365.804    23746373.272
  21385569.001   -18671864.68949 -14012884.19947  21385568.359    21385572.582
  24246840.019     7613485.67349   5947280.43545  24246838.853    24246846.569
  24512949.215    22621120.11748  17629358.16744  24512947.869    24512963.101
  21181227.580   -20974737.83249 -16326701.78647  21181227.062    21181232.543
  21726478.371     2099172.84049   1837796.30747  21726477.573    21726482.473
 04  7 13 19 34 30.0000000  0  8G22G23G 1G11G19G15G25G14
  23729268.835    15495110.18149  12071709.17545  23729268.250    23729272.663
  23510116.190   -10371131.06049  -8069294.58246  23510114.916    23510119.382
  23729937.550    -5661929.95549  -4399599.70945  23729936.477    23729944.110
  21379888.401   -18701717.07549 -14036145.78747  21379887.652    21379891.936
  24263065.932     7698752.28049   6013721.83145  24263064.820    24263072.541
  24535566.042    22739976.04949  17721972.95344  24535565.451    24535577.680
  21171861.108   -21023958.35549 -16365055.42847  21171860.696    21171866.179
  21740017.502     2170321.68149   1893236.93747  21740016.760    21740021.619
 04  7 13 19 35  0.0000000  0  7G22G23G 1G11G19G25G14
  23743797.671    15571459.06849  12131201.74445  23743797.062    23743801.539
  23493197.295   -10460039.40249  -8138573.74446  23493196.029    23493200.582
  23713545.327    -5748072.02749  -4466723.29545  23713544.195    23713552.080
  21374308.148   -18731041.23149 -14058995.78547  21374307.464    21374311.709
  24279308.272     7784105.70449   6080230.86645  24279307.104    24279314.952
  21162587.994   -21072689.09349 -16403027.41047  21162587.605    21162592.896
  21753593.355     2241662.71849   1948827.34347  21753592.551    21753597.401
 04  7 13 19 35 30.0000000  0  7G22G23G 1G11G19G25G14
  23758352.654    15647946.42049  12190802.20245  23758352.155    23758356.852
  23476315.149   -10548753.68849  -8207701.67346  23476314.067    23476318.914
  23697189.853    -5834017.96949  -4533694.10345  23697189.177    23697197.266
  21368828.910   -18759834.89549 -14081432.39547  21368828.188    21368832.495
  24295566.753     7869544.25649   6146806.29845  24295565.401    24295573.657
  21153408.795   -21120927.00449 -16440615.36447  21153408.321    21153413.494
  21767205.544     2313195.76449   2004567.34747  21767204.778    21767209.763
 04  7 13 19 36  0.0000000  0  7G22G23G 1G11G19G25G14
  23772933.859    15724570.61049  12250509.27945  23772933.300    23772938.121
  23459470.035   -10637274.30049  -8276678.68446  23459468.858    23459473.892
  23680872.483    -5919768.48049  -4600512.56745  23680871.583    23680879.827
  21363450.514   -18788097.59449 -14103455.25547  21363449.852    21363454.249
  24311840.807     7955063.96149   6213444.93845  24311839.463    24311847.595
  21144323.253   -21168671.52149 -16477818.86447  21144322.760    21144328.092
  21780853.956     2384918.15949   2060454.92547  21780853.229    21780858.162
 04  7 13 19 36 30.0000000  0  8G22G23G 1G11G19G25G20G14
  23787540.806    15801330.31249  12310321.97145  23787540.248    23787545.145
  23442661.722   -10725601.60749  -8345505.03646  23442660.743    23442665.588
  23664592.016    -6005323.97949  -4667179.12045  23664590.815    23664599.493
  21358173.173   -18815829.76849 -14125064.74147  21358172.595    21358176.914
  24328130.067     8040660.48349   6280143.42945  24328128.308    24328135.842
  21135331.655   -21215922.56749 -16514637.83447  21135331.135    21135336.411
                   -661850.98649   -500101.25543
  21794537.979     2456826.88049   2116487.67947  21794537.176    21794541.992
 04  7 13 19 37  0.0000000  0  7G22G23G 1G11G19G25G14
  23802173.636    15878225.86349  12370240.52945  23802172.959    23802178.084
  23425890.773   -10813734.26149  -8414179.73046  23425889.654    23425894.601
  23648348.315    -6090683.21949  -4733692.72445  23648347.539    23648356.311
  21352997.163   -18843029.80849 -14146259.58047  21352996.518    21353000.802
  24344432.388     8126331.26349   6346899.79345  24344430.632    24344438.065
  21126434.238   -21262677.89149 -16551070.53047  21126433.844    21126439.138
  21808256.975     2528920.51549   2172664.51747  21808256.188    21808260.925
 04  7 13 19 37 30.0000000  0  7G22G23G 1G11G19G25G14
  23816832.473    15955259.03749  12430266.32145  23816832.010    23816836.978
  23409157.024   -10901669.47549  -8482700.60046  23409156.069    23409161.191
  23632142.796    -6175843.38249  -4800051.22045  23632141.869    23632150.735
  21347923.033   -18869694.57249 -14167037.31147  21347922.411    21347926.666
  24360748.784     8212075.40349   6413713.32245  24360747.285    24360754.882
  21117632.038   -21308934.33549 -16587114.48747  21117631.518    21117636.831
  21822011.246     2601199.61949   2228985.86947  21822010.436    21822015.172
 04  7 13 19 38  0.0000000  0  7G22G23G 1G11G19G25G14
  23831517.584    16032428.32849  12490398.09645  23831516.855    23831521.790
  23392460.735   -10989407.96649  -8551068.18546  23392459.917    23392465.081
  23615974.835    -6260805.33549  -4866255.25145  23615973.962    23615982.975
  21342950.770   -18895824.53849 -14187398.30547  21342950.143    21342954.478
  24377078.599     8297888.36149   6480580.51745  24377077.250    24377084.942
  21108924.808   -21354691.76549 -16622769.60247  21108924.186    21108929.467
  21835800.130     2673660.81849   2285449.12947  21835799.311    21835804.154
 04  7 13 19 38 30.0000000  0  7G22G23G 1G11G19G25G14
  23846228.113    16109733.38449  12550635.77945  23846227.640    23846232.709
  23375802.450   -11076949.05349  -8619281.89046  23375801.628    23375806.376
  23599844.743    -6345568.55649  -4932304.41645  23599844.109    23599852.979
  21338080.126   -18921418.92449 -14207341.96947  21338079.644    21338083.955
  24393421.053     8383766.97749   6547498.79045  24393419.409    24393427.310
  21100312.602   -21399948.85449 -16658034.83947  21100312.048    21100317.357
  21849623.153     2746302.33549   2342052.88247  21849622.431    21849627.637
 04  7 13 19 39  0.0000000  0  8G22G23G 1G11G19G25G20G14
  23860964.768    16187174.57949  12610979.48545  23860964.257    23860969.125
  23359181.829   -11164291.37549  -8687340.74046  23359180.846    23359185.802
  23583752.805    -6430131.61549  -4998197.67345  23583751.919    23583761.285
  21333312.139   -18946476.03349 -14226866.98647  21333311.546    21333315.831
  24409774.979     8469708.85849   6614466.38445  24409773.694    24409781.226
  21091795.962   -21444703.73949 -16692908.76047  21091795.434    21091800.807
                   -794946.95649   -596239.33143
  21863480.521     2819123.09649   2398796.30647  21863479.808    21863485.071
 04  7 13 19 39 30.0000000  0  7G22G23G 1G11G19G25G14
  23875727.167    16264750.81949  12671428.45145  23875726.590    23875731.257
  23342598.948   -11251435.17949  -8755244.92646  23342598.115    23342603.104
  23567699.049    -6514494.95749  -5063935.24945  23567698.052    23567707.240
  21328646.315   -18970995.77849 -14245973.28947  21328645.596    21328649.833
  24426141.229     8555710.05749   6681480.24345  24426139.406    24426146.919
  21083375.149   -21488956.21749 -16727391.18847  21083374.414    21083379.807
  21877371.604     2892120.35849   2455677.28247  21877370.831    21877375.758
 04  7 13 19 40  0.0000000  0  7G22G23G 1G11G19G25G14
  23890515.047    16342461.71549  12731982.31045  23890514.530    23890519.523
  23326054.544   -11338379.96649  -8822994.03046  23326053.269    23326057.835
  23551683.118    -6598658.07249  -5129516.81245  23551682.419    23551691.400
  21324082.676   -18994977.49049 -14264660.33147  21324081.985    21324086.279
  24442517.188     8641767.31249   6748537.72945  24442515.548    24442523.451
  21075050.086   -21532704.86149 -16761481.01047  21075049.387    21075054.646
  21891295.817     2965292.03149   2512694.15947  21891295.002    21891299.742
 04  7 13 19 40 30.0000000  0  7G22G23G 1G11G19G25G14
  23905329.294    16420308.06849  12792641.66745  23905328.396    23905332.840
  23309547.735   -11425124.01949  -8890586.71446  23309546.208    23309550.991
  23535705.563    -6682619.39949  -5194941.18945  23535704.821    23535714.193
  21319621.878   -19018419.33249 -14282926.69547  21319621.114    21319625.552
  24458903.584     8727878.54249   6815637.32645  24458902.244    24458910.023
  21066821.250   -21575947.39849 -16795176.48147  21066820.594    21066825.881
  21905253.166     3038637.66649   2569846.58247  21905252.299    21905257.008
 04  7 13 19 41  0.0000000  0  7G22G23G 1G11G19G25G14
  23920168.659    16498288.77949  12853405.80645  23920167.712    23920172.404
  23293078.326   -11511667.61449  -8958023.18846  23293077.368    23293082.266
  23519766.958    -6766379.27649  -5260208.51745  23519765.984    23519775.148
  21315263.613   -19041321.39449 -14300772.44747  21315262.951    21315267.517
  24475300.308     8814039.91349   6882775.93945  24475298.513    24475305.836
  21058688.818   -21618683.79749 -16828477.54747  21058688.084    21058693.361
  21919243.030     3112154.72649   2627132.59847  21919242.194    21919246.976
 04  7 13 19 41 30.0000000  0  7G22G23G 1G11G19G25G14
  23935033.650    16576404.69449  12914275.26445  23935032.722    23935037.235
  23276647.977   -11598008.87949  -9025302.01046  23276647.092    23276651.959
  23503866.009    -6849936.03549  -5325317.60045  23503865.433    23503874.668
  21311008.580   -19063681.36549 -14318195.79647  21311007.956    21311012.553
  24491705.748     8900249.27049   6949951.97745  24491703.857    24491711.100
  21050653.152   -21660911.31649 -16861382.08547  21050652.477    21050657.751
  21933265.328     3185842.30149   2684551.48046  21933264.537    21933269.420
 04  7 13 19 42  0.0000000  0  7G22G23G 1G11G19G25G14
  23949924.126    16654656.23149  12975250.45545  23949923.442    23949927.770
  23260256.853   -11684146.39949  -9092422.06846  23260255.800    23260260.472
  23488004.614    -6933288.56949  -5390267.54445  23488003.744    23488012.992
  21306856.953   -19085498.00949 -14335195.76947  21306856.360    21306861.034
  24508119.417     8986504.37249   7017163.61545  24508117.593    24508124.878
  21042714.468   -21702628.40649 -16893888.89847  21042713.872    21042719.237
  21947319.882     3259699.56849   2742102.58046  21947319.037    21947323.972
 04  7 13 19 42 30.0000000  0  7G22G23G 1G11G19G25G14
  23964840.198    16733040.85249  13036329.32545  23964839.485    23964844.154
  23243904.022   -11770081.75749  -9159384.59546  23243902.991    23243907.367
  23472181.447    -7016438.31449  -5455059.49145  23472180.757    23472189.865
  21302808.655   -19106772.88749 -14351773.60547  21302807.923    21302812.569
  24524541.761     9072799.86149   7084406.73345  24524539.214    24524546.589
  21034872.864   -21743836.01449 -16925998.69847  21034872.271    21034877.757
  21961406.059     3333722.59249   2799782.83146  21961405.185    21961410.057
 04  7 13 19 43  0.0000000  0  7G22G23G 1G11G19G25G14
  23979781.994    16811560.29649  13097513.30145  23979781.463    23979786.075
  23227590.247   -11855812.42749  -9226187.60746  23227588.647    23227593.204
  23456397.796    -7099382.72449  -5519691.40845  23456397.013    23456405.651
  21298863.648   -19127503.40749 -14367927.23947  21298862.934    21298867.675
  24540969.873     9159134.69249   7151680.54245  24540968.261    24540976.006
  21027128.705   -21784530.83449 -16957708.93147  21027128.192    21027133.686
  21975523.776     3407911.65449   2857592.44747  21975523.022    21975527.794
 04  7 13 19 43 30.0000000  0  7G22G23G 1G11G19G25G14
  23994749.734    16890214.50849  13158802.12745  23994749.112    23994753.771
  23211314.558   -11941337.62649  -9292830.54846  23211313.463    23211318.338
  23440653.229    -7182121.11149  -5584162.80745  23440652.574    23440660.595
  21295022.639   -19147688.61149 -14383655.97747  21295021.913    21295026.530
  24557405.733     9245506.17349   7218982.85545  24557404.132    24557412.015
  21019482.706   -21824711.61549 -16989018.60047  21019482.125    21019487.517
  21989672.919     3482265.07049   2915530.12747  21989672.007    21989676.680
 04  7 13 19 44  0.0000000  0  7G22G23G 1G11G19G25G14
  24009742.214    16969002.88549  13220195.62145  24009741.912    24009747.054
  23195078.644   -12026656.75849  -9359312.90146  23195077.472    23195082.380
  23424948.032    -7264653.13349  -5648473.39545  23424947.316    23424954.893
  21291285.345   -19167327.45749 -14398958.96947  21291284.700    21291289.225
  24573848.587     9331910.85849   7286311.07745  24573846.580    24573854.159
  21011934.506   -21864377.55249 -17019927.11047  21011933.921    21011939.242
  22003852.649     3556780.96349   2973594.43647  22003851.840    22003856.546
 04  7 13 19 44 30.0000000  0  7G22G23G 1G11G19G25G14
  24024760.465    17047923.91349  13281692.44045  24024760.055    24024765.328
  23178881.822   -12111770.82249  -9425635.46446  23178880.785    23178885.474
  23409282.209    -7346979.85749  -5712624.02645  23409281.152    23409288.457
  21287652.085   -19186421.08149 -14413837.12347  21287651.376    21287655.879
  24590296.504     9418344.32249   7353661.71445  24590294.543    24590301.926
  21004484.227   -21903529.05649 -17050434.75147  21004483.658    21004488.882
  22018062.949     3631456.16349   3031782.86447  22018062.113    22018066.759
 04  7 13 19 45  0.0000000  0  7G22G23G 1G11G19G25G14
  24039803.945    17126978.57449  13343293.36345  24039803.650    24039808.473
  23162724.526   -12196677.73249  -9491796.62546  23162723.331    23162728.101
  23393655.225    -7429099.18749  -5776613.01245  23393654.291    23393661.481
  21284122.846   -19204967.21449 -14428288.64447  21284122.129    21284126.647
  24606749.428     9504804.73449   7421033.36145  24606747.403    24606754.969
  20997132.352   -21942163.70749 -17080539.65747  20997131.748    20997136.986
  22032303.513     3706290.31549   3090095.16646  22032302.625    22032307.262
 04  7 13 19 45 30.0000000  0  7G22G23G 1G11G19G25G14
  24054873.158    17206165.97249  13404997.76845  24054872.628    24054877.246
  23146606.448   -12281377.39349  -9557796.31346  23146605.260    23146610.076
  23378067.758    -7511011.26949  -5840440.53745  23378066.931    23378074.096
  21280697.692   -19222965.78249 -14442313.52547  21280697.120    21280701.622
  24623206.778     9591288.64149   7488423.25345  24623204.871    24623212.601
  20989878.661   -21980280.89049 -17110241.35747  20989878.170    20989883.636
  22046573.837     3781281.27349   3148529.66446  22046572.945    22046577.642
 04  7 13 19 46  0.0000000  0  7G22G23G 1G11G19G25G14
  24069967.264    17285486.96849  13466806.26945  24069966.798    24069971.549
  23130528.140   -12365868.45749  -9623633.41546  23130527.259    23130531.807
  23362520.301    -7592714.58449  -5904105.39045  23362519.275    23362526.674
  21277377.031   -19240415.42449 -14455910.63447  21277376.499    21277381.172
  24639667.212     9677793.97649   7555829.88945  24639665.785    24639674.274
  20982724.031   -22017878.73649 -17139538.34647  20982723.483    20982728.932
  22060873.813     3856428.20749   3207085.71046  22060872.936    22060877.584
 04  7 13 19 46 30.0000000  0  6G22G23G 1G11G25G14
  24085087.798    17364945.11149  13528721.62445  24085087.151    24085092.121
  23114490.792   -12450146.03249  -9689304.17046  23114489.732    23114494.336
  23347013.326    -7674204.56049  -5967603.99345  23347012.249    23347019.619
  21274161.821   -19257311.59149 -14469076.48847  21274161.275    21274165.989
  20975669.148   -22054952.10749 -17168426.67447  20975668.587    20975674.123
  22075203.912     3931733.67849   3265765.27346  22075203.035    22075207.634
 04  7 13 19 47  0.0000000  0  7G22G23G 1G11G25G20G14
  24100233.890    17444537.18549  13590741.32145  24100233.285    24100238.388
  23098493.207   -12534212.21449  -9754810.21846  23098492.366    23098496.886
  23331546.327    -7755483.44149  -6030938.07445  23331545.438    23331552.637
  21271051.423   -19273656.43049 -14481812.72047  21271050.879    21271055.646
  20968713.765   -22091502.78749 -17196907.70747  20968713.212    20968718.727
                   -546100.17549   -394031.49843
  22089563.228     4007192.97149   3324564.71446  22089562.364    22089567.226
 04  7 13 19 47 30.0000000  0  7G22G23G 1G11G25G20G14
  24115404.366    17524259.40749  13652862.42845  24115403.833    24115409.388
  23082535.156   -12618070.60049  -9820154.33046  23082534.525    23082539.055
  23316118.576    -7836554.71949  -6094110.41846  23316117.898    23316125.601
  21268045.331   -19289452.83149 -14494121.61947  21268044.888    21268049.653
  20961857.225   -22127533.91849 -17224983.89247  20961856.788    20961862.130
                   -632734.16649   -461538.22543
  22103950.775     4082801.00749   3383480.07946  22103950.034    22103954.900
 04  7 13 19 48  0.0000000  0  7G22G23G 1G11G25G20G14
  24130599.602    17604111.95749  13715085.07745  24130599.343    24130605.098
  23066617.369   -12701719.55049  -9885335.26846  23066616.464    23066621.277
  23300731.192    -7917417.10049  -6157119.97046  23300730.329    23300738.138
  21265144.144   -19304699.71949 -14506002.31147  21265143.538    21265148.310
  20955100.199   -22163043.39049 -17252653.59647  20955099.577    20955104.914
                   -719316.85249   -529004.97843
  22118366.740     4158556.49549   3442510.27946  22118365.844    22118370.723
 04  7 13 19 48 30.0000000  0  6G22G23G 1G11G25G14
  24145820.174    17684095.17449  13777409.56545  24145819.786    24145825.674
  23050739.502   -12785158.44049  -9950352.50846  23050738.735    23050743.627
  23285383.424    -7998069.86749  -6219966.21246  23285382.675    23285390.229
  21262347.277   -19319396.06349 -14517453.99847  21262346.843    21262351.780
  20948442.432   -22198029.95549 -17279915.84647  20948441.885    20948447.195
  22132810.447     4234458.38349   3501654.58446  22132809.565    22132814.427
 04  7 13 19 49  0.0000000  0  6G22G23G 1G11G25G14
  24161065.615    17764208.57949  13839835.49145  24161065.153    24161070.928
  23034901.782   -12868386.50049 -10015205.48246  23034900.899    23034905.566
  23270075.428    -8078512.86149  -6282648.97846  23270074.674    23270082.299
  21259655.679   -19333541.84149 -14528476.69647  21259655.107    21259659.805
  20941884.343   -22232493.26149 -17306770.34947  20941883.716    20941889.005
  22147281.545     4310504.69649   3560911.43046  22147280.817    22147285.762
 04  7 13 19 49 30.0000000  0  6G22G23G 1G11G25G14
  24176335.535    17844453.16649  13902363.63545  24176335.222    24176340.838
  23019104.816   -12951401.75649 -10079892.61446  23019103.785    23019108.249
  23254807.936    -8158743.83049  -6345166.51945  23254807.092    23254814.769
  21257069.132   -19347134.85949 -14539068.66847  21257068.478    21257073.082
  20935426.069   -22266430.83449 -17333215.19748  20935425.547    20935430.984
  22161780.169     4386695.39149   3620280.75346  22161779.340    22161784.303
 04  7 13 19 50  0.0000000  0  6G22G23G 1G11G25G14
  24191630.599    17924827.83649  13964993.14345  24191630.193    24191635.509
  23003347.894   -13034204.47449 -10144414.16146  23003347.065    23003351.416
  23239580.610    -8238763.16749  -6407519.17946  23239579.814    23239587.474
  21254587.647   -19360175.63849 -14549230.31747  21254586.926    21254591.483
  20929068.111   -22299842.38549 -17359250.15348  20929067.588    20929072.923
  22176305.672     4463028.15749   3679760.81146  22176304.944    22176310.093
 04  7 13 19 50 30.0000000  0  6G22G23G 1G11G25G14
  24206950.531    18005334.40149  14027725.45545  24206949.957    24206955.409
  22987631.594   -13116792.20449 -10208768.14746  22987630.975    22987635.576
  23224393.719    -8318568.60349  -6469705.15746  23224393.167    23224400.988
  21252211.704   -19372661.55049 -14558959.59847  21252211.001    21252215.500
  20922810.808   -22332724.97849 -17384872.93948  20922810.260    20922815.582
  22190858.213     4539503.07149   3739351.60846  22190857.499    22190862.659
 04  7 13 19 51  0.0000000  0  6G22G23G 1G11G25G14
  24222295.571    18085971.52849  14090559.44345  24222294.954    24222299.941
  22971956.733   -13199165.10049 -10272954.75746  22971955.945    22971960.657
  23209247.781    -8398160.43049  -6531724.67546  23209247.293    23209255.092
  21249941.271   -19384593.06549 -14568256.90147  21249940.512    21249944.904
  20916654.088   -22365078.91849 -17410083.78948  20916653.592    20916658.804
  22205437.762     4616117.91449   3799051.45346  22205436.876    22205441.838
 04  7 13 19 51 30.0000000  0  6G22G23G 1G11G25G14
  24237664.642    18166737.71749  14153494.03445  24237663.776    24237669.111
  22956322.952   -13281323.64749 -10336974.33846  22956321.938    22956326.339
  23194142.311    -8477539.33749  -6593578.31745  23194141.701    23194149.820
  21247776.248   -19395970.80849 -14577122.68047  21247775.461    21247779.820
  20910598.039   -22396904.39749 -17434882.84848  20910597.425    20910602.662
  22220043.266     4692869.94549   3858858.16146  22220042.375    22220047.673
 04  7 13 19 52  0.0000000  0  6G22G23G 1G11G25G14
  24253058.740    18247634.25649  14216530.18245  24253057.877    24253063.422
  22940729.834   -13363265.96349 -10400825.41646  22940728.824    22940733.014
  23179077.651    -8556703.29849  -6655264.45546  23179076.940    23179085.314
  21245716.900   -19406793.08749 -14585555.63547  21245716.127    21245720.461
  20904642.783   -22428199.16949 -17459268.37148  20904642.187    20904647.398
  22234674.810     4769759.06949   3918771.67046  22234674.036    22234679.380
 04  7 13 19 52 30.0000000  0  6G22G23G 1G11G25G14
  24268477.621    18328661.00649  14279667.73145  24268476.932    24268482.303
  22925178.111   -13444991.15249 -10464507.32446  22925177.170    22925181.252
  23164053.706    -8635651.79449  -6716782.67646  23164053.350    23164061.976
  21243763.310   -19417059.32249 -14593555.30147  21243762.509    21243766.925
  20898788.737   -22458962.12749 -17483239.48948  20898788.190    20898793.411
  22249332.299     4846783.88649   3978790.93246  22249331.518    22249336.674
 04  7 13 19 53  0.0000000  0  6G22G23G 1G11G25G14
  24283921.049    18409816.72749  14342905.89245  24283920.411    24283926.047
  22909667.429   -13526500.09849 -10528020.70546  22909666.299    22909670.491
  23149071.468    -8714385.62649  -6778133.62446  23149070.822    23149079.474
  21241915.329   -19426769.97549 -14601122.05347  21241914.629    21241919.102
  20893035.731   -22489194.19849 -17506796.93148  20893035.183    20893040.472
  22264015.153     4923941.74749   4038913.93046  22264014.352    22264019.220
 04  7 13 19 53 30.0000000  0  6G22G23G 1G11G25G14
  24299389.020    18491101.16549  14406244.33744  24299388.006    24299393.361
  22894197.719   -13607791.50849 -10591364.59746  22894196.937    22894201.051
  23134129.796    -8792903.75649  -6839316.50046  23134129.205    23134138.104
  21240173.211   -19435924.70749 -14608255.61147  21240172.534    21240177.028
  20887384.097   -22518893.86449 -17529939.51648  20887383.525    20887388.863
  22278722.956     5001231.61149   4099139.78546  22278722.152    22278726.884
 04  7 13 19 54  0.0000000  0  6G22G23G 1G11G25G14
  24314881.499    18572515.45149  14469683.89545  24314880.708    24314885.854
  22878770.082   -13688863.70349 -10654537.65146  22878769.407    22878773.513
  23119229.291    -8871204.67149  -6900330.15246  23119228.821    23119237.916
  21238537.321   -19444521.68149 -14614954.55447  21238536.617    21238541.103
  20881834.155   -22548059.00349 -17552665.57548  20881833.538    20881838.786
  22293455.749     5078653.09549   4159468.21246  22293454.942    22293459.692
 04  7 13 19 54 30.0000000  0  6G22G23G 1G11G25G14
  24330398.408    18654057.96949  14533223.50045  24330397.805    24330403.219
  22863384.088   -13769717.46849 -10717540.52746  22863383.239    22863387.408
  23104370.523    -8949289.31949  -6961175.26346  23104369.987    23104378.630
  21237007.362   -19452562.00649 -14621219.75347  21237006.626    21237011.079
  20876385.713   -22576690.38549 -17574975.73748  20876385.179    20876390.410
  22308212.950     5156203.25749   4219896.86446  22308212.176    22308217.006
 04  7 13 19 55  0.0000000  0  6G22G23G 1G11G25G14
  24345940.278    18735728.03649  14596862.44745  24345939.576    24345944.844
  22848039.444   -13850352.51249 -10780372.96546  22848038.732    22848043.070
  23089552.809    -9027157.39049  -7021851.62446  23089552.335    23089560.819
  21235582.891   -19460045.96749 -14627051.40047  21235582.362    21235586.916
  20871038.971   -22604787.55349 -17596869.61848  20871038.471    20871043.658
  22322994.366     5233880.30949   4280424.46246  22322993.634    22322998.647
 04  7 13 19 55 30.0000000  0  7G22G23G 1G11G25G20G14
  24361505.949    18817525.33449  14660600.52245  24361505.340    24361510.907
  22832736.705   -13930768.33949 -10843034.56146  22832735.947    22832740.329
  23074776.488    -9104808.55649  -7082358.94046  23074775.875    23074784.093
  21234264.909   -19466972.89149 -14632449.02347  21234264.324    21234268.787
  20865793.921   -22632350.06049 -17618346.88348  20865793.482    20865798.598
                   -490282.43149   -362553.46443
  22337799.764     5311682.98649   4341049.86846  22337799.033    22337804.027
 04  7 13 19 56  0.0000000  0  7G22G23G 1G11G25G20G14
  24377096.350    18899450.33049  14724438.02745  24377095.587    24377101.273
  22817475.414   -14010963.60749 -10905524.33746  22817474.921    22817479.201
  23060041.440    -9182241.63449  -7142696.35146  23060040.916    23060049.004
  21233052.889   -19473342.08449 -14637412.04447  21233052.254    21233056.668
  20860650.999   -22659376.55749 -17639406.48348  20860650.462    20860655.646
                   -575879.98049   -429252.80643
  22352628.853     5389610.46249   4401772.51646  22352628.008    22352633.223
 04  7 13 19 56 30.0000000  0  7G22G23G 1G11G25G20G14
  24392710.415    18981503.63849  14788375.54545  24392709.828    24392715.747
  22802256.739   -14090936.74249 -10967841.00846  22802256.417    22802260.689
  23045347.848    -9259455.27649  -7202862.76946  23045347.588    23045355.829
  21231947.116   -19479152.18249 -14641939.39947  21231946.569    21231951.132
  20855610.315   -22685865.18349 -17660046.96548  20855609.802    20855615.030
                   -661405.20149   -495895.76444                  23091626.115
  22367481.570     5467662.08649   4462591.91946  22367480.855    22367486.119
 04  7 13 19 57  0.0000000  0  7G22G23G 1G11G25G20G14
  24408348.793    19063683.03749  14852411.29445  24408348.102    24408354.033
  22787080.514   -14170689.39849 -11029985.86646  22787080.102    22787083.919
  23030695.865    -9336451.11649  -7262859.43246  23030695.651    23030703.726
  21230947.568   -19484405.06749 -14646032.55947  21230946.931    21230951.597
  20850671.693   -22711817.50549 -17680269.53848  20850671.191    20850676.454
  23075369.769     -746859.08349   -562483.18845  23075363.149    23075367.848
  22382357.391     5545834.58049   4523505.52045  22382356.607    22382362.013
 04  7 13 19 57 30.0000000  0  7G22G23G 1G11G25G20G14
  24424010.476    19145986.92249  14916544.09945  24424010.010    24424016.026
  22771946.129   -14250222.10249 -11091959.32946  22771945.550    22771949.497
  23016085.227    -9413229.72149  -7322686.87846  23016084.986    23016093.302
  21230053.988   -19489101.46649 -14649692.09647  21230053.300    21230058.030
  20845835.125   -22737233.79349 -17700074.42348  20845834.599    20845839.859
  23059119.971     -832241.22249   -629014.62345  23059115.267    23059120.914
  22397255.470     5624125.29749   4584511.25345  22397254.792    22397260.219
 04  7 13 19 58  0.0000000  0  7G22G23G 1G11G25G20G14
  24439696.705    19228417.65449  14980775.74945  24439696.389    24439701.804
  22756854.148   -14329531.60749 -11153758.90846  22756853.638    22756857.400
  23001516.754    -9489788.20149  -7382342.76046  23001516.391    23001524.853
  21229266.672   -19493238.81549 -14652916.02647  21229265.975    21229270.653
  20841100.960   -22762111.17549 -17719459.38148  20841100.526    20841105.831
  23042884.755     -917548.10449   -695487.55145  23042881.375    23042886.455
  22412176.808     5702535.28349   4645609.88745  22412175.784    22412181.178
 04  7 13 19 58 30.0000000  0  7G22G23G 1G11G25G20G14
  24455406.846    19310973.85049  15045105.18645  24455406.494    24455412.237
  22741804.370   -14408618.44349 -11215384.95346  22741803.827    22741807.572
  22986990.122    -9566127.14749  -7441827.58446  22986989.639    22986997.966
  21228585.457   -19496817.83149 -14655704.87547  21228584.856    21228589.531
  20836469.433   -22786449.91449 -17738424.61948  20836468.993    20836474.347
  23026664.469    -1002779.49349   -761901.57945  23026661.184    23026667.852
  22427119.627     5781062.23049   4706799.65245  22427118.799    22427124.512
 04  7 13 19 59  0.0000000  0  7G22G23G 1G11G25G20G14
  24471141.053    19393657.02249  15109533.51345  24471140.752    24471146.335
  22726797.590   -14487480.37449 -11276835.73246  22726796.956    22726800.425
  22972505.668    -9642244.23649  -7501139.52346  22972505.096    22972513.205
  21228011.330   -19499836.65849 -14658057.22147  21228010.554    21228015.069
  20831940.838   -22810247.97749 -17756968.55848  20831940.377    20831945.707
  23010460.086    -1087932.36849   -828254.45445  23010457.372    23010464.024
  22442085.347     5859706.40949   4768080.79046  22442084.538    22442089.984
 04  7 13 19 59 30.0000000  0  7G22G23G 1G11G25G20G14
  24486899.239    19476466.93249  15174060.57845  24486898.933    24486904.790
  22711833.575   -14566116.51549 -11338110.61046  22711832.945    22711836.287
  22958063.392    -9718139.00449  -7560278.21346  22958062.834    22958070.968
  21227543.480   -19502295.35749 -14659973.10047  21227542.688    21227547.146
  20827515.445   -22833504.67449 -17775090.64048  20827514.842    20827520.166
  22994270.236    -1173005.38949   -894545.03945  22994268.129    22994275.364
  22457072.873     5938466.63049   4829452.36146  22457072.142    22457077.516
 04  7 13 20  0  0.0000000  0  7G22G23G 1G11G25G20G14
  24502681.277    19559401.82349  15238685.02245  24502680.838    24502687.069
  22696912.371   -14644528.12949 -11399210.49746  22696911.595    22696915.026
  22943663.419    -9793812.72949  -7619244.68546  22943662.663    22943670.625
  21227181.891   -19504195.25849 -14661453.55947  21227181.159    21227185.580
  20823192.636   -22856220.70949 -17792791.45648  20823192.134    20823197.482
  22978096.562    -1257998.66449   -960773.55645  22978094.635    22978101.518
  22472082.244     6017339.89149   4890911.99146  22472081.422    22472086.731
 04  7 13 20  0 30.0000000  0  7G22G23G 1G11G25G20G14
  24518486.501    19642461.28849  15303406.58345  24518486.365    24518493.040
  22682033.898   -14722714.41949 -11460134.80246  22682033.314    22682036.638
  22929305.126    -9869264.91049  -7678038.51746  22929304.464    22929312.444
  21226926.451   -19505535.97549 -14662498.26447  21226925.885    21226930.512
  20818972.894   -22878395.97249 -17810070.85648  20818972.375    20818977.531
  22961938.198    -1342911.13249  -1026939.06745  22961936.522    22961943.365
  22487112.648     6096324.97449   4952458.71046  22487111.836    22487117.044
 04  7 13 20  1  0.0000000  0  7G22G23G 1G11G25G20G14
  24534316.104    19725645.76149  15368225.44945  24534315.736    24534322.449
  22667198.710   -14800674.44849 -11520882.82046  22667197.996    22667201.492
  22914988.636    -9944494.55649  -7736658.98546  22914988.245    22914996.549
  21226777.936   -19506316.97249 -14663106.86547  21226777.308    21226781.915
  20814856.197   -22900029.16649 -17826927.89148  20814855.695    20814860.855
  22945795.728    -1427740.88249  -1093040.15845  22945794.157    22945800.770
  22502164.235     6175421.04449   5014091.93646  22502163.317    22502168.560
 04  7 13 20  1 30.0000000  0  7G22G23G 1G11G25G20G14
  24550169.711    19808954.97849  15433141.56945  24550169.292    24550175.600
  22652406.350   -14878407.52949 -11581453.99646  22652405.746    22652409.361
  22900714.942   -10019501.20049  -7795105.65446  22900714.626    22900723.080
  21226735.842   -19506538.17649 -14663279.23447  21226735.196    21226739.758
  20810842.719   -22921119.69649 -17843362.06848  20810842.244    20810847.555
  22929669.009    -1512486.56149  -1159075.65945  22929667.571    22929673.907
  22517236.419     6254626.86049   5075810.73546  22517235.592    22517240.919
 04  7 13 20  2  0.0000000  0  7G22G23G 1G11G25G20G14
  24566046.126    19892387.93349  15498154.16245  24566045.910    24566052.462
  22637657.136   -14955913.75749 -11641848.40246  22637656.637    22637660.307
  22886484.084   -10094285.26549  -7853378.86646  22886483.637    22886492.174
  21226800.354   -19506200.30749 -14663015.97047  21226799.632    21226804.051
  20806932.518   -22941667.88149 -17859373.62548  20806932.051    20806937.293
  22913558.591    -1597147.54349  -1225045.22345  22913556.955    22913563.396
  22532329.377     6333940.34249   5137613.36746  22532328.593    22532333.687
 04  7 13 20  2 30.0000000  0  7G22G23G 1G11G25G20G14
  24581946.816    19975943.60149  15563262.32445  24581946.442    24581952.363
  22622951.225   -15033193.42249 -11702066.27146  22622950.598    22622954.591
  22872295.715   -10168847.06149  -7911478.91446  22872295.070    22872303.625
  21226970.974   -19505303.84849 -14662317.43647  21226970.244    21226974.606
  20803125.499   -22961673.86149 -17874962.69348  20803125.066    20803130.207
  22897464.072    -1681723.27949  -1290948.35745  22897462.577    22897468.924
  22547442.590     6413359.44049   5199498.33646  22547441.730    22547446.638
 04  7 13 20  3  0.0000000  0  7G22G23G 1G11G25G20G14
  24597870.238    20059621.89749  15628466.12345  24597869.849    24597875.998
  22608288.463   -15110245.56349 -11762106.84246  22608287.938    22608291.921
  22858149.510   -10243186.04049  -7969405.33246  22858148.933    22858157.217
  21227247.955   -19503848.65849 -14661183.52847  21227247.192    21227251.606
  20799421.742   -22981137.26849 -17890128.97248  20799421.191    20799426.379
  22881385.981    -1766212.16349  -1356783.79745  22881384.816    22881391.206
  22562575.359     6492883.07149   5261464.80146  22562574.475    22562579.557
 04  7 13 20  3 30.0000000  0  7G22G23G 1G11G25G20G14
  24613817.089    20143423.48449  15693765.89145  24613816.958    24613823.040
  22593669.647   -15187068.61649 -11821968.92546  22593668.919    22593672.781
  22844045.767   -10317300.43649  -8027156.73046  22844045.347    22844053.425
  21227631.269   -19501833.81149 -14659613.51247  21227630.567    21227635.095
  20795821.408   -23000056.68149 -17904871.35848  20795820.982    20795826.060
  22865325.275    -1850611.57149  -1422549.49045  22865324.315    22865330.610
  22577727.897     6572511.20749   5323512.66246  22577727.085    22577732.366
 04  7 13 20  4  0.0000000  0  7G22G23G 1G11G25G20G14
  24629787.509    20227346.25649  15759160.09145  24629787.152    24629793.196
  22579093.840   -15263663.75649 -11881653.40546  22579093.348    22579097.219
  22829985.128   -10391191.62849  -8084734.19846  22829984.350    22829992.382
  21228120.834   -19499261.03249 -14657608.77247  21228120.128    21228124.706
  20792324.528   -23018433.19549 -17919190.71548  20792324.034    20792329.235
  22849281.964    -1934922.02349  -1488245.90946  22849280.772    22849287.069
  22592900.035     6652240.71049   5385639.53246  22592899.191    22592904.456
 04  7 13 20  4 30.0000000  0  7G22G23G 1G11G25G20G14
  24645780.891    20311389.85249  15824648.46345  24645780.332    24645786.394
  22564561.936   -15340030.85349 -11941160.19346  22564561.329    22564565.162
  22815966.631   -10464859.73749  -8142137.84346  22815965.876    22815973.958
  21228716.429   -19496130.77449 -14655169.62047  21228715.826    21228720.424
  20788930.843   -23036266.98249 -17933087.17448  20788930.393    20788935.575
  22833255.399    -2019142.88549  -1553872.53546  22833254.078    22833260.580
  22608090.731     6732069.70749   5447843.98146  22608089.875    22608095.579
 04  7 13 20  5  0.0000000  0  7G22G23G 1G11G25G20G14
  24661797.148    20395555.79049  15890232.19045  24661796.652    24661802.929
  22550073.687   -15416167.36449 -12000487.27546  22550072.979    22550076.731
  22801990.675   -10538302.27249  -8199365.72746  22801990.250    22801998.130
  21229418.663   -19492441.04849 -14652294.51947  21229418.000    21229422.606
  20785641.119   -23053555.32949 -17946558.60048  20785640.571    20785645.725
  22817246.459    -2103270.34249  -1619426.37646  22817245.191    22817251.845
  22623300.874     6811999.60749   5510126.92946  22623300.115    22623305.858
 04  7 13 20  5 30.0000000  0  7G22G23G 1G11G25G20G14
  24677836.744    20479843.24949  15955910.58345  24677836.149    24677842.506
  22535629.153   -15492073.69849 -12059635.00446  22535628.439    22535632.103
  22788058.102   -10611519.80549  -8256418.26846  22788057.497    22788065.185
  21230227.255   -19488192.34449 -14648983.84647  21230226.510    21230231.193
  20782454.913   -23070299.10749 -17959605.70948  20782454.376    20782459.679
  22801255.541    -2187303.89849  -1684907.03346  22801254.140    22801260.637
  22638530.125     6892027.93249   5572486.61845  22638529.072    22638534.660
 04  7 13 20  6  0.0000000  0  7G22G23G 1G11G25G20G14
  24693899.112    20564251.74549  16021683.26145  24693898.650    24693904.675
  22521228.559   -15567748.94549 -12118602.68146  22521227.858    22521231.794
  22774168.092   -10684511.67849  -8313294.98546  22774167.562    22774175.218
  21231141.987   -19483385.11749 -14645237.97647  21231141.287    21231146.001
  20779372.382   -23086497.93249 -17972228.15248  20779371.840    20779377.025
  22785282.254    -2271242.05949  -1750313.35446  22785281.118    22785287.555
  22653777.180     6972153.77749   5634922.32245  22653776.346    22653781.936
 04  7 13 20  6 30.0000000  0  7G22G23G 1G11G25G20G14
  24709984.444    20648780.64049  16087549.83445  24709983.846    24709990.309
  22506871.880   -15643193.31149 -12177390.42546  22506871.098    22506875.249
  22760321.168   -10757278.02349  -8369995.95846  22760320.389    22760327.939
  21232162.823   -19478020.03849 -14641057.40847  21232162.130    21232166.856
  20776393.481   -23102151.85549 -17984426.01148  20776393.022    20776398.224
  22769327.529    -2355084.04249  -1815644.71546  22769326.503    22769332.908
  22669043.070     7052375.23049   5697432.46345  22669042.058    22669047.411
 04  7 13 20  7  0.0000000  0  6G23G 1G11G25G20G14
  22492560.991   -15718398.36049 -12235991.70846  22492560.075    22492563.939
  22746518.518   -10829810.59549  -8426514.78746  22746517.634    22746525.464
  21233291.360   -19472089.20749 -14636435.98447  21233290.738    21233295.577
  20773519.884   -23117252.83849 -17996193.01548  20773519.382    20773524.578
  22753392.880    -2438820.26049  -1880893.68546  22753391.835    22753398.227
  22684328.191     7132698.89749   5760022.25245  22684327.326    22684332.486
 04  7 13 20  7 30.0000000  0  6G23G 1G11G25G20G14
  22478295.086   -15793365.80549 -12294407.84646  22478294.321    22478297.971
  22732759.840   -10902111.47249  -8482853.08546  22732759.158    22732766.821
  21234527.340   -19465595.38249 -14631375.89047  21234526.613    21234531.322
  20770751.167   -23131803.30749 -18007531.02948  20770750.589    20770755.729
  22737478.044    -2522452.04249  -1946061.28446  22737477.201    22737483.658
  22699632.421     7213121.16749   5822688.84145  22699631.543    22699636.930
 04  7 13 20  8  0.0000000  0  6G23G 1G11G25G20G14
  22464073.009   -15868106.97549 -12352647.66346  22464071.896    22464075.314
  22719043.806   -10974192.08749  -8539019.71046  22719042.834    22719050.168
  21235867.894   -19458550.47049 -14625886.35447  21235867.125    21235871.940
  20768084.783   -23145814.69749 -18018449.00048  20768084.235    20768089.468
  22721581.859    -2605989.51749  -2011155.37146  22721580.648    22721586.789
  22714952.529     7293629.09349   5885422.26945  22714951.758    22714957.392
 04  7 13 20  8 30.0000000  0  6G23G 1G11G25G20G14
  22449893.422   -15942620.53449 -12410710.14246  22449892.413    22449895.887
  22705369.500   -11046051.28449  -8595013.82546  22705368.490    22705375.778
  21237313.270   -19450953.89349 -14619966.95147  21237312.585    21237317.471
  20765521.167   -23159285.79949 -18028945.95648  20765520.669    20765525.930
  22705703.339    -2689430.52949  -2076174.24646  22705702.120    22705708.417
  22730288.721     7374222.39849   5948222.21345  22730288.061    22730293.305
 04  7 13 20  9  0.0000000  0  6G23G 1G11G25G20G14
  22435758.192   -16016901.35949 -12468591.22146  22435757.149    22435760.736
  22691738.085   -11117684.09149  -8650831.51846  22691737.127    22691744.375
  21238864.545   -19442801.46049 -14613614.42347  21238863.841    21238868.880
  20763061.465   -23172211.82249 -18039018.17548  20763060.902    20763066.139
  22689844.152    -2772769.01149  -2141113.30046  22689843.089    22689849.556
  22745641.805     7454904.59849   6011091.34544  22745639.851    22745647.930
 04  7 13 20  9 30.0000000  0  6G23G 1G11G25G20G14
  22421667.106   -16090948.64249 -12526290.38446  22421666.125    22421669.932
  22678149.671   -11189089.86349  -8706472.34246  22678148.805    22678156.363
  21240521.421   -19434092.80949 -14606828.48147  21240520.953    21240526.201
  20760705.540   -23184592.56449 -18048665.49748  20760704.973    20760710.168
  22674004.902    -2856003.19949  -2205971.07146  22674004.063    22674010.866
  22761012.033     7535674.84649   6074029.05945  22761013.097    22761017.034
 04  7 13 20 10  0.0000000  0  6G23G 1G11G25G20G14
  22407620.508   -16164762.51749 -12583807.65146  22407619.638    22407623.586
  22664604.992   -11260268.98749  -8761936.52246  22664603.831    22664611.237
  21242284.343   -19424828.94249 -14599609.90247  21242283.843    21242289.112
  20758453.376   -23196428.01349 -18057887.91048  20758452.733    20758457.857
  22658186.429    -2939131.99049  -2270746.72146  22658185.345    22658192.042
  22776398.477     7616531.26748   6137033.97045  22776398.928    22776402.223
 04  7 13 20 10 30.0000000  0  6G23G 1G11G25G20G14
  22393618.776   -16238341.29649 -12641141.71146  22393617.971    22393622.053
  22651103.580   -11331219.82349  -8817222.80946  22651102.548    22651109.506
  21244153.136   -19415009.04349 -14591958.04247  21244152.589    21244157.707
  20756304.853   -23207717.27749 -18066684.74648  20756304.379    20756309.707
  22642387.923    -3022153.19449  -2335438.52246  22642386.981    22642393.529
  22791801.396     7697473.69949   6200106.08444  22791801.922    22791805.824
 04  7 13 20 11  0.0000000  0  6G23G 1G11G25G20G14
  22379661.683   -16311685.77649 -12698293.21646  22379660.983    22379664.935
  22637645.492   -11401943.26749  -8872331.96746  22637644.435    22637651.144
  21246127.573   -19404634.63349 -14583874.09647  21246126.932    21246131.953
  20754260.447   -23218461.26549 -18075056.67948  20754259.855    20754265.232
  22626610.234    -3105066.15349  -2400046.02446  22626609.274    22626615.489
  22807221.029     7778499.72548   6263243.45944  22807221.464    22807225.121
 04  7 13 20 11 30.0000000  0  6G23G 1G11G25G20G14
  22365749.076   -16384796.93049 -12755262.89746  22365748.425    22365752.315
  22624230.023   -11472440.67049  -8927264.96046  22624229.073    22624235.888
  21248207.151   -19393707.72249 -14575359.64847  21248206.372    21248211.269
  20752319.260   -23228661.71749 -18083005.07648  20752318.739    20752324.184
  22610853.301    -3187871.18349  -2464569.38246  22610852.152    22610858.073
  22822656.252     7859606.81648   6326443.91944  22822656.454
 04  7 13 20 12  0.0000000  0  5G23G 1G11G25G20
  22351882.216   -16457667.45649 -12812045.06446  22351881.545    22351885.467
  22610859.182   -11542704.66149  -8982016.06446  22610858.199    22610864.964
  21250392.677   -19382221.60749 -14566409.43047  21250392.030    21250396.992
  20750483.032   -23238311.63749 -18090524.48248  20750482.480    20750487.841
  22595118.250    -3270559.66549  -2529001.93346  22595117.086    22595122.958
 04  7 13 20 12 30.0000000  0  5G23G 1G11G25G20
  22338063.182   -16530286.74649 -12868631.48746  22338062.391    22338066.374
  22597534.814   -11612724.98749  -9036577.26846  22597533.753    22597540.495
  21252686.675   -19370166.80049 -14557016.08947  21252685.982    21252691.038
  20748753.334   -23247401.01849 -18097607.12148  20748752.788    20748758.251
  22579407.476    -3353120.37749  -2593334.88246  22579406.203    22579412.170
 04  7 13 20 13  0.0000000  0  5G23G 1G11G25G20
  22324287.954   -16602675.86949 -12925038.53646  22324287.138    22324291.131
  22584252.709   -11682522.96049  -9090965.25846  22584251.609    22584258.402
  21255084.727   -19357565.47649 -14547196.89447  21255084.031    21255089.046
  20747126.226   -23255951.25449 -18104269.63048  20747125.803    20747131.244
  22563716.885    -3435573.13449  -2657583.79146  22563715.795    22563722.044
 04  7 13 20 13 30.0000000  0  5G23G 1G11G25G20
  22310557.375   -16674831.46449 -12981263.64347  22310556.523    22310560.508
  22571013.446   -11752095.05949  -9145177.24146  22571012.583    22571019.336
  21257587.200   -19344414.72649 -14536949.57447  21257586.469    21257591.343
  20745602.426   -23263959.44449 -18110509.77548  20745601.918    20745607.237
  22548047.894    -3517913.32549  -2721744.91746  22548046.822    22548053.095
 04  7 13 20 14  0.0000000  0  5G23G 1G11G25G20
  22296870.817   -16746754.24449 -13037307.31946  22296870.068    22296873.993
  22557817.256   -11821442.12749  -9199213.86246  22557816.269    22557822.893
  21260193.774   -19330716.30349 -14526275.49447  21260193.175    21260198.090
  20744181.424   -23271426.66649 -18116328.38648  20744180.943    20744186.314
  22532400.603    -3600140.67849  -2785818.14946  22532399.535    22532405.598
 04  7 13 20 14 30.0000000  0  5G23G 1G11G25G20
  22283229.507   -16818439.61749 -13093165.99347  22283228.891    22283232.655
  22544664.231   -11890560.16149  -9253072.01046  22544663.544    22544670.131
  21262905.370   -19316466.75849 -14515171.97847  21262904.787    21262909.700
  20742864.200   -23278349.07449 -18121722.45848  20742863.694    20742869.012
  22516775.748    -3682249.78349  -2849799.22546  22516774.691    22516780.703
 04  7 13 20 15  0.0000000  0  5G23G 1G11G25G20
  22269633.522   -16889887.90349 -13148839.96847  22269632.674    22269636.413
  22531554.893   -11959449.56249  -9306751.99046  22531554.110    22531560.929
  21265721.574   -19301667.47449 -14503640.07947  21265720.918    21265725.918
  20741650.393   -23284727.73449 -18126692.83848  20741649.934    20741655.187
  22501173.733    -3764239.65749  -2913687.42146  22501172.503    22501178.606
 04  7 13 20 15 30.0000000  0  5G23G 1G11G25G20
  22256082.761   -16961096.96049 -13204327.47247  22256082.005    22256085.494
  22518489.584   -12028108.16749  -9360252.15546  22518488.784    22518495.858
  21268642.740   -19286316.72249 -14491678.47747  21268642.095    21268647.095
  20740540.571   -23290560.83849 -18131238.09648  20740540.013    20740545.157
  22485594.686    -3846106.92249  -2977480.07746  22485593.627    22485599.856
 04  7 13 20 16  0.0000000  0  5G23G 1G11G25G20
  22242577.392   -17032068.40549 -13259629.82247  22242576.545    22242580.066
  22505467.887   -12096537.80549  -9413573.91446  22505467.120    22505474.262
  21271668.342   -19270417.74249 -14479289.67347  21271667.661    21271672.594
  20739533.951   -23295850.58649 -18135359.98248  20739533.340    20739538.607
  22470039.294    -3927852.11949  -3041177.58346  22470038.206    22470044.156
 04  7 13 20 16 30.0000000  0  6G23G 1G11G25G20G14
  22229117.636   -17102798.65449 -13314744.27746  22229116.833    22229120.485
  22492489.945   -12164735.29049  -9466714.78446  22492489.364    22492496.626
  21274798.783   -19253967.96749 -14466471.68147  21274798.044    21274802.934
  20738631.424   -23300594.06449 -18139056.18948  20738630.785    20738635.957
  22454507.914    -4009470.86049  -3104776.57746  22454506.699    22454512.427
                   -146785.59549   -130413.23143
 04  7 13 20 17  0.0000000  0  6G23G 1G11G25G20G14
  22215704.021   -17173287.21649 -13369670.37046  22215703.179    22215706.894
  22479556.670   -12232700.10349  -9519674.31546  22479556.007    22479563.325
  21278034.006   -19236967.56249 -14453224.64547  21278033.184    21278037.947
  20737832.616   -23304791.44549 -18142326.87348  20737832.028    20737837.168
  22439000.546    -4090961.09349  -3168275.46346  22438999.394    22439005.074
                    -64832.53349    -66553.91243
 04  7 13 20 17 30.0000000  0  6G23G 1G11G25G20G14
  22202335.151   -17243539.53349 -13424412.40847  22202334.414    22202338.326
  22466667.043   -12300437.85249  -9572456.92746  22466666.010    22466673.131
  21281372.367   -19219423.25849 -14439553.76847  21281371.643    21281376.517
  20737136.624   -23308448.69849 -18145176.66948  20737136.039    20737141.192
  22423516.980    -4172327.58249  -3231677.86146  22423515.813    22423521.550
                     17186.34149     -2643.58243
 04  7 13 20 18  0.0000000  0  6G23G 1G11G25G20G14
  22189009.067   -17313568.93749 -13478980.73547  22189008.419    22189012.123
  22453817.714   -12367962.06649  -9625073.14246  22453816.776    22453823.643
  21284811.567   -19201349.46149 -14425470.30447  21284810.962    21284815.838
  20736540.770   -23311579.76349 -18147616.45348  20736540.212    20736545.334
  22408054.675    -4253582.11449  -3294993.06146  22408053.477    22408059.256
                     99256.30949   -124142.21443
 04  7 13 20 18 30.0000000  0  6G23G 1G11G25G20G14
  22175726.167   -17383372.32149 -13533372.93547  22175725.425    22175728.996
  22441009.505   -12435269.94449  -9677520.77346  22441008.603    22441015.148
  21288352.091   -19182744.19249 -14410972.71947  21288351.561    21288356.269
  20736045.481   -23314182.25249 -18149644.36448  20736044.955    20736050.138
  22392614.611    -4334720.49849  -3358217.72846  22392613.417    22392619.066
                    181378.60349    -60150.60343
 04  7 13 20 19  0.0000000  0  5G23G 1G11G25G20
  22162489.476   -17452930.24849 -13587573.88647  22162488.808    22162492.532
  22428246.085   -12502342.09149  -9729784.73646  22428245.090    22428251.714
  21291997.239   -19163588.88749 -14396046.50747  21291996.687    21292001.587
  20735654.425   -23316237.43049 -18151245.80348  20735653.875    20735659.152
  22377200.342    -4415722.00449  -3421335.77746  22377199.268    22377205.254
 04  7 13 20 19 30.0000000  0  5G23G 1G11G25G20
  22149310.165   -17522187.37849 -13641540.42147  22149309.532    22149313.123
  22415537.962   -12569123.42649  -9781822.10246  22415537.036    22415543.667
  21295757.498   -19143829.44949 -14380649.56947  21295756.924    21295761.705
  20735377.952   -23317690.51149 -18152378.06148  20735377.387    20735382.538
  22361823.003    -4496530.08649  -3484303.06246  22361821.942    22361827.754
 04  7 13 20 20  0.0000000  0  5G23G 1G11G25G20
  22136174.019   -17591218.43949 -13695330.82347  22136173.405    22136177.094
  22402871.009   -12635688.90649  -9833691.25846  22402869.826    22402876.851
  21299618.124   -19123541.93849 -14364841.13347  21299617.521    21299622.292
  20735201.653   -23318617.00949 -18153100.00948  20735201.069    20735206.211
  22346468.546    -4577218.33949  -3547176.98646  22346467.413    22346473.229
 04  7 13 20 20 30.0000000  0  5G23G 1G11G25G20
  22123083.550   -17660010.97549 -13748935.34647  22123082.779    22123086.286
  22390247.083   -12702026.27549  -9885382.65146  22390246.065    22390253.305
  21303581.489   -19102715.03249 -14348612.39447  21303580.758    21303585.544
  20735127.704   -23319004.98749 -18153402.32748  20735127.200    20735132.393
  22331139.477    -4657773.01949  -3609946.83246  22331138.365    22331144.232
 04  7 13 20 21  0.0000000  0  5G23G 1G11G25G20
  22110037.522   -17728567.71749 -13802356.15347  22110036.740    22110040.321
  22377666.156   -12768138.52549  -9936898.63446  22377665.145    22377672.442
  21307646.570   -19081352.70149 -14331966.43947  21307645.914    21307650.687
  20735155.590   -23318858.25249 -18153287.98248  20735155.111    20735160.307
  22315835.571    -4738195.71549  -3672613.82346  22315834.449    22315840.295
 04  7 13 20 21 30.0000000  0  5G23G 1G11G25G20
  22097037.435   -17796884.22649 -13855589.75647  22097036.510    22097040.056
  22365128.948   -12834021.26049  -9988235.81046  22365128.014    22365135.338
  21311814.237   -19059451.47449 -14314900.57047  21311813.559    21311818.321
  20735285.998   -23318173.26949 -18152754.22148  20735285.471    20735290.699
  22300557.747    -4818480.77549  -3735173.58146  22300556.706    22300562.454
 04  7 13 20 22  0.0000000  0  5G23G 1G11G25G20
  22084082.929   -17864960.15649 -13908635.88547  22084082.058    22084085.620
  22352635.525   -12899674.58749 -10039394.17446  22352634.613    22352641.783
  21316084.073   -19037012.47749 -14297415.66547  21316083.472    21316088.336
  20735518.584   -23316950.36049 -18151801.30948  20735518.050    20735523.336
  22285306.532    -4898626.79049  -3797624.99946  22285305.494    22285310.976
 04  7 13 20 22 30.0000000  0  5G23G 1G11G25G20
  22071174.708   -17932793.59749 -13961493.06947  22071173.775    22071177.286
  22340185.901   -12965096.44849 -10090372.19546  22340185.172    22340192.351
  21320456.468   -19014035.04749 -14279511.18847  21320455.886    21320460.828
  20735853.815   -23315188.64249 -18150428.53848  20735853.307    20735858.632
  22270082.401    -4978630.28449  -3859965.35846  22270081.264    22270086.886
 04  7 13 20 23  0.0000000  0  5G23G 1G11G25G20
  22058312.363   -18000386.16649 -14014162.56647  22058311.369    22058314.846
  22327780.111   -13030288.56149 -10141171.22146  22327779.360    22327786.704
  21324930.805   -18990521.59549 -14261189.03847  21324930.308    21324935.268
  20736291.369   -23312889.97749 -18148637.37048  20736290.755    20736296.070
  22254885.256    -5058491.50849  -3922194.86446  22254884.184    22254889.827
 04  7 13 20 23 30.0000000  0  5G23G 1G11G25G20
  22045496.683   -18067732.45049 -14066640.16647  22045495.651    22045499.262
  22315419.025   -13095246.05649 -10191787.40946  22315418.347    22315425.704
  21329508.268   -18966468.22249 -14242446.17847  21329507.699    21329512.455
  20736831.702   -23310049.83149 -18146424.27648  20736831.151    20736836.458
  22239716.613    -5138203.76249  -3984308.29446  22239715.376    22239721.095
 04  7 13 20 24  0.0000000  0  5G23G 1G11G25G20
  22032728.455   -18134829.23149 -14118923.32147  22032727.610    22032731.007
  22303103.374   -13159965.85049 -10242218.38346  22303102.633    22303109.886
  21334188.734   -18941873.26149 -14223281.29347  21334188.009    21334192.724
  20737475.594   -23306665.69749 -18143787.27448  20737475.095    20737480.307
  22224576.924    -5217762.66449  -4046302.16446  22224575.767    22224581.631
 04  7 13 20 24 30.0000000  0  5G23G 1G11G25G20
  22020005.782   -18201688.08849 -14171021.06947  22020004.788    22020008.302
  22290830.765   -13224459.71449 -10292473.26946  22290829.900    22290837.113
  21338969.619   -18916749.37149 -14203704.26147  21338968.999    21338973.560
  20738220.728   -23302750.32049 -18140736.32948  20738220.209    20738225.461
  22209464.362    -5297178.51749  -4108184.62446  22209463.368    22209469.082
 04  7 13 20 25  0.0000000  0  5G23G 1G11G25G20
  22007329.693   -18268300.59749 -14222926.87147  22007328.833    22007332.436
  22278602.324   -13288719.16449 -10342545.53846  22278601.675    22278609.041
  21343852.651   -18891089.31049 -14183709.42347  21343851.859    21343856.638
  20739068.414   -23298296.17649 -18137265.57348  20739067.792    20739073.176
  22194381.206    -5376441.43949  -4169947.90346  22194380.200    22194386.018
 04  7 13 20 25 30.0000000  0  5G23G 1G11G25G20
  21994699.934   -18334669.45249 -14274642.84047  21994699.127    21994702.746
  22266418.145   -13352747.27249 -10392437.53546  22266417.480    22266424.849
  21348836.623   -18864897.41949 -14163300.18747  21348836.008    21348840.806
  20740017.852   -23293306.76949 -18133377.72248  20740017.255    20740022.544
  22179327.041    -5455552.73849  -4231593.03646  22179325.932    22179331.646
 04  7 13 20 26  0.0000000  0  5G23G 1G11G25G20
  21982117.276   -18400791.51849 -14326166.48447  21982116.497    21982120.015
  22254278.524   -13416541.23249 -10442147.08046  22254277.924    22254285.201
  21353922.392   -18838172.01549 -14142475.21247  21353921.778    21353926.571
  20741069.432   -23287780.53749 -18129071.56948  20741068.866    20741074.246
  22164302.169    -5534508.10149  -4293116.67246  22164301.143    22164306.976
 04  7 13 20 26 30.0000000  0  5G23G 1G11G25G20
  21969581.048   -18466669.79449 -14377500.17147  21969580.246    21969583.611
  22242182.964   -13480104.13349 -10491676.55846  22242182.158    22242189.272
  21359108.925   -18810917.11449 -14121237.65747  21359108.247    21359113.012
  20742222.628   -23281720.73649 -18124349.64348  20742222.048    20742227.337
  22149306.881    -5613308.97849  -4354519.93946  22149305.755    22149311.778
 04  7 13 20 27  0.0000000  0  5G23G 1G11G25G20
  21957092.076   -18532299.93749 -14428640.50847  21957091.133    21957094.470
  22230131.918   -13543431.74449 -10541022.67846  22230131.220    22230138.272
  21364396.751   -18783129.93949 -14099585.33647  21364396.026    21364400.885
  20743478.031   -23275123.99549 -18119209.33048  20743477.440    20743482.711
  22134341.672    -5691949.85249  -4415798.52946  22134340.755    22134347.017
 04  7 13 20 27 30.0000000  0  5G23G 1G11G25G20
  21944649.838   -18597683.33949 -14479588.58047  21944648.996    21944652.320
  22218125.474   -13606525.51449 -10590186.61846  22218124.693    22218131.743
  21369785.165   -18754813.41149 -14077520.52047  21369784.446    21369789.317
  20744835.012   -23267992.56249 -18113652.36748  20744834.470    20744839.702
  22119407.323    -5770430.41449  -4476952.17146  22119406.224    22119412.470
 04  7 13 20 28  0.0000000  0  5G23G 1G11G25G20
  21932254.117   -18662823.13049 -14530346.81747  21932253.317    21932256.603
  22206162.792   -13669388.99649 -10639171.09946  22206161.984    22206169.174
  21375273.346   -18725972.06749 -14055046.76947  21375272.786    21375277.673
  20746292.971   -23260330.72549 -18107682.09848  20746292.451    20746297.695
  22104503.142    -5848752.48049  -4537982.32146  22104502.151    22104508.240
 04  7 13 20 28 30.0000000  0  5G23G 1G11G25G20
  21919905.633   -18727715.23649 -14580912.04747  21919904.716    21919907.966
  22194244.640   -13732018.15949 -10687973.01346  22194243.984    22194251.168
  21380862.175   -18696602.98349 -14032161.80447  21380861.577    21380866.511
  20747852.669   -23252135.36149 -18101296.10548  20747852.011    20747857.340
  22089630.152    -5926910.49649  -4598884.64147  22089629.257    22089635.157
 04  7 13 20 29  0.0000000  0  5G23G 1G11G25G20
  21907603.680   -18792362.41949 -14631286.42747  21907602.772    21907606.092
  22182370.893   -13794416.18149 -10736594.79746  22182370.174    22182377.351
  21386550.393   -18666710.69349 -14008869.12947  21386549.859    21386554.900
  20749512.874   -23243410.36149 -18094497.40548  20749512.242    20749517.548
  22074788.259    -6004906.16349  -4659660.44246  22074787.223    22074792.890
 04  7 13 20 29 30.0000000  0  5G23G 1G11G25G20
  21895347.615   -18856767.63749 -14681472.28747  21895346.847    21895350.296
  22170540.588   -13856586.32549 -10785039.02246  22170539.745    22170546.784
  21392337.623   -18636299.70749 -13985172.28647  21392336.913    21392342.041
  20751273.116   -23234159.85749 -18087289.21348  20751272.583    20751277.846
  22059976.730    -6082740.90849  -4720310.86546  22059975.777    22059981.422
 04  7 13 20 30  0.0000000  0  5G23G 1G11G25G20
  21883138.413   -18920927.86249 -14731467.21947  21883137.639    21883141.248
  22158753.858   -13918525.57849 -10833303.34046  22158753.134    22158760.253
  21398223.624   -18605368.34949 -13961069.95747  21398222.959    21398228.157
  20753133.949   -23224381.46449 -18079669.68948  20753133.325    20753138.611
  22045196.697    -6160410.08949  -4780832.27246  22045195.719    22045201.220
 04  7 13 20 30 30.0000000  0  5G23G 1G11G25G20
  21870975.458   -18984845.02949 -14781272.75547  21870974.659    21870978.211
  22147011.229   -13980236.01549 -10881389.33547  22147010.244    22147017.357
  21404208.183   -18573919.69649 -13936564.54247  21404207.515    21404212.565
  20755094.481   -23214078.00649 -18071641.02548  20755093.898    20755099.344
  22030448.262    -6237913.98749  -4841224.88746  22030447.269    22030452.852
 04  7 13 20 31  0.0000000  0  5G23G 1G11G25G20
  21858860.058   -19048511.95349 -14830883.30147  21858859.217    21858862.954
  22135312.727   -14041710.60749 -10929291.56847  22135311.803    22135319.116
  21410292.149   -18541948.47349 -13911651.92447  21410291.463    21410296.487
  20757156.169   -23203243.52249 -18063198.56348  20757155.730    20757161.000
  22015732.736    -6315244.24249  -4901482.20946  22015731.666    22015737.372
 04  7 13 20 31 30.0000000  0  5G23G 1G11G25G20
  21846793.559   -19111921.34949 -14880293.19847  21846792.730    21846796.432
  22123660.503   -14102942.63649 -10977004.78946  22123659.579    22123666.818
  21416476.766   -18509448.82949 -13886327.54347  21416475.973    21416480.974
  20759320.253   -23191872.01649 -18054337.65348  20759319.672    20759324.995
  22001051.853    -6392392.07149  -4961597.34946  22001050.720    22001056.808
 04  7 13 20 32  0.0000000  0  5G23G 1G11G25G20
  21834773.347   -19175088.26749 -14929514.13147  21834772.481    21834775.921
  22112051.746   -14163947.29049 -11024540.85846  22112050.905    22112057.902
  21422758.321   -18476437.66249 -13860604.57847  21422757.714    21422762.739
  20761583.063   -23179980.09149 -18045071.22448  20761582.595    20761587.924
  21986402.959    -6469371.25349  -5021581.13046  21986401.981    21986408.079
 04  7 13 20 32 30.0000000  0  5G23G 1G11G25G20
  21822798.681   -19238015.97549 -14978548.66347  21822797.802    21822801.065
  22100485.860   -14224727.67049 -11071902.12947  22100484.773    22100491.848
  21429136.562   -18442919.56949 -13834486.60947  21429135.938    21429140.940
  20763944.428   -23167571.42549 -18035402.13148  20763943.911    20763949.242
  21971786.192    -6546183.02549  -5081434.40247  21971785.189    21971791.388
 04  7 13 20 33  0.0000000  0  5G23G 1G11G25G20
  21810871.938   -19300690.98549 -15027386.29447  21810871.098    21810874.290
  22088964.634   -14285270.76349 -11119078.54747  22088963.759    22088970.824
  21435613.586   -18408882.81449 -13807964.49547  21435612.954    21435617.993
  20766406.273   -23154633.71049 -18025320.79948  20766405.807    20766411.153
  21957204.087    -6622812.76949  -5141145.85547  21957203.124    21957209.160
 04  7 13 20 33 30.0000000  0  5G23G 1G11G25G20
  21798993.556   -19363111.61849 -15076025.71247  21798992.712    21798995.957
  22077489.021   -14345574.98049 -11166068.79547  22077488.144    22077495.346
  21442189.283   -18374327.17549 -13781038.04147  21442188.721    21442193.800
  20768968.996   -23141166.67749 -18014827.00648  20768968.542    20768973.875
  21942657.253    -6699257.21249  -5200712.95847  21942656.335    21942662.327
 04  7 13 20 34  0.0000000  0  5G23G 1G11G25G20
  21787162.747   -19425282.26549 -15124470.33847  21787162.001    21787165.247
  22066057.942   -14405644.90749 -11212876.50047  22066057.076    22066064.310
  21448862.679   -18339259.09449 -13753712.27447  21448862.092    21448867.067
  20771631.281   -23127175.92549 -18003925.12548  20771630.819    20771636.250
  21928145.157    -6775519.06149  -5260137.74647  21928144.162    21928150.185
 04  7 13 20 34 30.0000000  0  5G23G 1G11G25G20
  21775379.311   -19487206.20949 -15172722.72847  21775378.399    21775381.422
  22054670.982   -14465484.07649 -11259504.36546  22054670.030    22054677.257
  21455632.722   -18303682.89249 -13725990.59647  21455632.065    21455636.927
  20774392.524   -23112665.70949 -17992618.46448  20774392.077    20774397.448
  21913667.378    -6851600.29449  -5319421.79647  21913666.384    21913672.271
 04  7 13 20 35  0.0000000  0  5G23G 1G11G25G20
  21763643.099   -19548880.91649 -15220780.91247  21763642.114    21763645.097
  22043328.157   -14525090.24549 -11305950.68546  22043327.272    22043334.528
  21462499.373   -18267597.99049 -13697872.50047  21462498.831    21462503.677
  20777252.903   -23097634.66949 -17980905.97348  20777252.398    20777257.776
  21899224.931    -6927496.72749  -5378561.84447  21899223.833    21899229.489
 04  7 13 20 35 30.0000000  0  5G23G 1G11G25G20
  21751952.749   -19610313.44249 -15268650.38547  21751951.777    21751954.888
  22032028.371   -14584470.76149 -11352221.17847  22032027.475    22032034.667
  21469461.151   -18231013.33549 -13669365.01147  21469460.632    21469465.407
  20780210.763   -23082091.25349 -17968794.22848  20780210.230    20780215.566
  21884816.243    -7003214.04049  -5437562.30247  21884815.208    21884821.057
 04  7 13 20 36  0.0000000  0  5G23G 1G11G25G20
  21740308.153   -19671505.27049 -15316332.27347  21740307.199    21740310.338
  22020771.309   -14643627.22349 -11398317.07247  22020770.408    22020777.679
  21476517.550   -18193931.72249 -13640470.27547  21476516.997    21476521.811
  20783265.695   -23066037.93049 -17956285.12248  20783265.175    20783270.393
  21870441.662    -7078751.82149  -5496422.90547  21870440.709    21870446.636
 04  7 13 20 36 30.0000000  0  6G23G 1G11G25G20G14
  21728707.395   -19732466.76249 -15363834.69347  21728706.500    21728709.800
  22009554.923   -14702570.18649 -11444246.61447  22009554.063    22009561.179
  21483666.141   -18156365.21049 -13611197.69147  21483665.717    21483670.484
  20786415.332   -23049486.53449 -17943387.92948  20786414.815    20786420.048
  21856099.850    -7154119.01149  -5555150.57547  21856098.828    21856104.746
                      4457.76149     -7184.93443
 04  7 13 20 37  0.0000000  0  5G23G 1G11G25G20
  21717155.040   -19793173.77449 -15411138.82847  21717154.287    21717157.667
  21998383.623   -14761275.75949 -11489991.17647  21998382.676    21998389.769
  21490911.532   -18118291.59249 -13581529.95947  21490910.952    21490915.700
  20789664.101   -23032413.88749 -17930084.57248  20789663.575    20789668.878
  21841795.330    -7229289.88249  -5613725.23547  21841794.200    21841800.087
 04  7 13 20 37 30.0000000  0  5G23G 1G11G25G20
  21705653.495   -19853615.26649 -15458236.04847  21705652.699    21705655.914
  21987259.442   -14819733.09749 -11535542.32247  21987258.557    21987265.332
  21498255.117   -18079701.14449 -13551459.52247  21498254.508    21498259.168
  20793013.912   -23014810.47049 -17916367.63148  20793013.446    20793018.679
  21827530.432    -7304251.71649  -5672137.01247  21827529.416    21827535.344
 04  7 13 20 38  0.0000000  0  5G23G 1G11G25G20
  21694198.995   -19913809.09449 -15505140.31047  21694198.219    21694201.481
  21976179.185   -14877960.07849 -11580913.94247  21976178.318    21976184.882
  21505693.148   -18040613.85249 -13521001.90947  21505692.578    21505697.323
  20796461.282   -22996695.30649 -17902251.91548  20796460.759    20796465.951
  21813302.272    -7379020.64149  -5730398.49347  21813301.306    21813307.266
 04  7 13 20 38 30.0000000  0  5G23G 1G11G25G20
  21682790.348   -19973760.99249 -15551856.06347  21682789.607    21682792.915
  21965141.690   -14935962.69949 -11626110.76847  21965140.790    21965147.435
  21513224.453   -18001037.22349 -13490163.00247  21513223.805    21513228.533
  20800004.688   -22978075.14949 -17887742.68448  20800004.077    20800009.157
  21799110.291    -7453600.92349  -5788512.96147  21799109.220    21799115.057
 04  7 13 20 39  0.0000000  0  5G23G 1G11G25G20
  21671428.542   -20033467.70149 -15598380.70047  21671427.773    21671430.995
  21954147.313   -14993738.06549 -11671130.47247  21954146.451    21954153.266
  21520848.923   -17960969.84449 -13458941.70047  21520848.326    21520853.144
  20803644.252   -22958948.29649 -17872838.65248  20803643.747    20803648.952
  21784954.915    -7527987.67649  -5846476.63947  21784953.831    21784959.580
 04  7 13 20 39 30.0000000  0  5G23G 1G11G25G20
  21660114.584   -20092922.60549 -15644709.18547  21660113.855    21660117.126
  21943197.454   -15051279.79849 -11715968.14647  21943196.611    21943203.370
  21528567.943   -17920406.82249 -13427334.17747  21528567.233    21528572.102
  20807381.340   -22939309.69949 -17857535.85248  20807380.830    20807386.019
  21770838.010    -7602172.78849  -5904283.18547  21770836.973    21770842.855
 04  7 13 20 40  0.0000000  0  5G23G 1G11G25G20
  21648847.422   -20152132.60349 -15690846.81447  21648846.595    21648849.865
  21932290.901   -15108594.90949 -11760629.22547  21932289.942    21932296.587
  21536379.372   -17879356.92449 -13395347.26347  21536378.745    21536383.692
  20811214.279   -22919167.40549 -17841840.54048  20811213.786    20811218.976
  21756758.453    -7676161.43749  -5961936.65447  21756757.410    21756763.354
 04  7 13 20 40 30.0000000  0  5G23G 1G11G25G20
  21637628.873   -20211087.03249 -15736785.29747  21637627.992    21637631.300
  21921429.231   -15165673.01949 -11805105.63647  21921428.311    21921434.856
  21544285.112   -17837811.41449 -13362974.17347  21544284.562    21544289.585
  20815144.745   -22898512.25549 -17825745.62548  20815144.265    20815149.516
  21742718.811    -7749941.23349  -6019427.35847  21742717.670    21742723.610
 04  7 13 20 41  0.0000000  0  5G23G 1G11G25G20
  21626458.592   -20269786.62849 -15782525.23247  21626457.784    21626461.035
  21910612.363   -15222515.21249 -11849398.21347  21910611.539    21910618.028
  21552284.737   -17795772.95749 -13330216.96647  21552284.194    21552289.336
  20819172.497   -22877346.45349 -17809252.79248  20819171.957    20819177.226
  21728718.673    -7823511.47049  -6076754.81347  21728717.581    21728723.533
 04  7 13 20 41 30.0000000  0  5G23G 1G11G25G20
  21615337.981   -20328226.70749 -15828062.91747  21615337.064    21615340.261
  21899841.411   -15279116.91849 -11893503.40847  21899840.536    21899847.049
  21560378.766   -17753238.42749 -13297073.21147  21560378.300    21560383.385
  20823298.085   -22855666.39449 -17792359.23148  20823297.561    20823302.842
  21714760.082    -7896865.48049  -6133913.75347  21714758.836    21714764.662
 04  7 13 20 42  0.0000000  0  5G23G 1G11G25G20
  21604264.011   -20386419.36449 -15873407.81347  21604263.270    21604266.475
  21889114.016   -15335490.56049 -11937430.87747  21889113.053    21889119.385
  21568564.571   -17710221.92549 -13263553.87747  21568564.084    21568569.180
  20827518.973   -22833485.70249 -17775075.57148  20827518.459    20827523.689
  21700840.297    -7970013.84549  -6190912.44347  21700839.172    21700844.926
 04  7 13 20 42 30.0000000  0  5G23G 1G11G25G20
  21593238.630   -20444359.25049 -15918555.73047  21593237.753    21593240.747
  21878430.606   -15391630.78749 -11981176.48647  21878429.838    21878436.319
  21576842.822   -17666719.81649 -13229656.16147  21576842.353    21576847.277
  20831835.891   -22810800.06249 -17757398.45248  20831835.400    20831840.596
  21686961.210    -8042949.21949  -6247745.16247  21686960.150    21686965.869
 04  7 13 20 43  0.0000000  0  5G23G 1G11G25G20
  21582263.839   -20502031.56349 -15963495.16947  21582263.020    21582266.062
  21867794.565   -15447523.15049 -12024728.94847  21867793.802    21867800.419
  21585215.920   -17622719.34249 -13195370.09747  21585215.336    21585220.410
  20836251.477   -22787596.51349 -17739317.75948  20836250.884    20836256.115
  21673125.617    -8115655.48849  -6304399.38747  21673124.558    21673130.231
 04  7 13 20 43 30.0000000  0  6G23G 1G11G25G20G14
  21571351.690   -20559374.15149 -16008177.68747  21571350.915    21571354.078
  21857217.630   -15503105.54949 -12068039.88547  21857216.873    21857223.342
  21593695.241   -17578160.28249 -13160648.80047  21593694.666    21593699.662
  20840777.049   -22763814.30249 -17720786.15748  20840776.511    20840781.713
  21659345.853    -8188068.50449  -6360825.08847  21659344.807    21659350.252
                  -1477495.31149  -1163220.91843
 04  7 13 20 44  0.0000000  0  6G23G 1G11G25G20G14
  21560480.103   -20616504.27049 -16052694.64447  21560479.381    21560482.560
  21846677.543   -15558495.75049 -12111201.04147  21846676.461    21846682.917
  21602258.202   -17533162.06049 -13125585.27947  21602257.619    21602262.699
  20845390.211   -22739572.00149 -17701896.04648  20845389.667    20845394.840
  21645599.986    -8260304.12849  -6417112.55647  21645598.854    21645604.298
                  -1393172.33449  -1097657.32843
 04  7 13 20 44 30.0000000  0  6G23G 1G11G25G20G14
  21549654.558   -20673393.52749 -16097023.88247  21549653.715    21549656.880
  21836178.888   -15613665.52749 -12154190.41947  21836177.958    21836184.382
  21610909.791   -17487697.98749 -13090158.75147  21610909.139    21610914.267
  20850095.953   -22714842.90049 -17682626.63648  20850095.419    20850100.555
  21631893.280    -8332332.23349  -6473238.32347  21631892.203    21631897.832
                  -1308840.61749  -1032086.92243
 04  7 13 20 45  0.0000000  0  6G23G 1G11G25G20G14
  21538889.607   -20729963.23249 -16141104.14247  21538888.758    21538891.975
  21825737.351   -15668536.13449 -12196946.70947  21825736.417    21825742.914
  21619664.611   -17441691.37449 -13054309.47947  21619663.938    21619669.091
  20854909.016   -22689549.59749 -17662917.54148  20854908.537    20854913.621
  21618241.569    -8404072.09249  -6529139.49447  21618240.474    21618246.267
                  -1224422.07149  -1158255.67143
 04  7 13 20 45 30.0000000  0  5G23G 1G11G25G20
  21528167.796   -20786305.48949 -16185007.20247  21528167.050    21528170.487
  21815335.262   -15723200.07849 -12239541.96347  21815334.278    21815340.716
  21628504.637   -17395236.18249 -13018110.66747  21628504.018    21628509.066
  20859811.810   -22663785.54049 -17642841.63848  20859811.343    20859816.345
  21604627.484    -8475614.44449  -6584886.77047  21604626.408    21604632.011
 04  7 13 20 46  0.0000000  0  6G23G 1G11G25G20G14
  21517488.447   -20842426.43949 -16228737.76447  21517487.623    21517491.107
  21804971.209   -15777663.46849 -12281980.93747  21804970.213    21804976.639
  21637428.399   -17348340.64949 -12981568.71647  21637427.910    21637433.092
  20864802.731   -22637558.56949 -17622405.04948  20864802.188    20864807.260
  21591050.053    -8546963.24449  -6640483.21247  21591049.058    21591054.902
                  -1055610.29949  -1026709.32543
 04  7 13 20 46 30.0000000  0  6G23G 1G11G25G20G14
  21506851.860   -20898322.36349 -16272293.01247  21506851.047    21506854.489
  21794645.959   -15831923.03249 -12324261.07347  21794644.872    21794651.226
  21646436.808   -17301003.25849 -12944682.47947  21646436.084    21646441.172
  20869882.037   -22610866.27149 -17601605.86748  20869881.462    20869886.664
  21577510.524    -8618113.35749  -6695924.82147  21577509.521    21577515.528
                   -971221.37049  -1152351.90043
 04  7 13 20 47  0.0000000  0  6G23G 1G11G25G20G14
  21496265.873   -20953951.96349 -16315640.72147  21496264.975    21496268.397
  21784367.212   -15885937.65449 -12366350.35547  21784366.197    21784372.659
  21655536.309   -17253184.72649 -12907421.31247  21655535.664    21655540.679
  20875057.498   -22583668.97049 -17580413.15648  20875056.979    20875062.102
  21564017.431    -8689021.56249  -6751177.94347  21564016.272    21564022.238
                   -886801.95549  -1086567.06143
 04  7 13 20 47 30.0000000  0  5G23G 1G11G25G20
  21485713.635   -21009403.96349 -16358850.04047  21485712.830    21485716.214
  21774118.211   -15939796.35249 -12408318.14047  21774117.223    21774123.674
  21664710.176   -17204975.43249 -12869855.66247  21664709.554    21664714.554
  20880311.992   -22556056.81849 -17558897.18948  20880311.461    20880316.449
  21550553.429    -8759774.83549  -6806310.34547  21550552.333    21550558.310
 04  7 13 20 48  0.0000000  0  5G23G 1G11G25G20
  21475196.699   -21064670.45249 -16401914.80347  21475195.881    21475199.458
  21763900.204   -15993491.39149 -12450158.39447  21763899.336    21763905.801
  21673959.675   -17156369.74049 -12831981.13147  21673959.050    21673964.011
  20885646.537   -22528023.69249 -17537053.18848  20885645.988    20885651.083
  21537120.792    -8830363.45849  -6861314.43447  21537119.722    21537125.598
 04  7 13 20 48 30.0000000  0  5G23G 1G11G25G20
  21464742.636   -21119607.18749 -16444722.61847  21464741.749    21464745.168
  21753740.733   -16046879.00249 -12491759.09647  21753739.959    21753746.347
  21683311.479   -17107225.82149 -12793687.21547  21683310.856    21683315.743
  20891088.243   -22499426.95549 -17514770.03848  20891087.751    20891092.941
  21523747.190    -8900641.65849  -6916076.64347  21523746.201    21523752.042
 04  7 13 20 49  0.0000000  0  5G23G 1G11G25G20
  21454342.740   -21174258.14349 -16487307.76447  21454341.948    21454345.351
  21743631.560   -16100003.28949 -12533154.60447  21743630.648    21743637.034
  21692757.004   -17057589.48149 -12755009.56547  21692756.327    21692761.279
  20896628.724   -22470312.28049 -17492083.26348  20896628.106    20896633.241
  21510424.770    -8970651.48549  -6970629.70647  21510423.753    21510429.648
 04  7 13 20 49 30.0000000  0  5G23G 1G11G25G20
  21443994.909   -21228637.24649 -16529681.04547  21443994.091    21443997.484
  21733569.619   -16152878.29749 -12574355.87247  21733568.764    21733575.311
  21702293.151   -17007476.53549 -12715960.55747  21702292.506    21702297.574
  20902264.575   -22440694.78249 -17469004.70548  20902264.093    20902269.217
  21497151.203    -9040404.88849  -7024983.00947  21497150.113    21497155.998
 04  7 13 20 50  0.0000000  0  5G23G 1G11G25G20
  21433700.542   -21282735.37949 -16571835.41847  21433699.638    21433702.806
  21723556.876   -16205495.05449 -12615355.91547  21723556.115    21723562.689
  21711921.372   -16956880.21149 -12676534.87747  21711920.760    21711925.836
  20907997.873   -22410567.15349 -17445528.60848  20907997.295    20908002.332
  21483928.369    -9109890.98949  -7079127.98947  21483927.337    21483933.152
 04  7 13 20 50 30.0000000  0  5G23G 1G11G25G20
  21423454.452   -21336578.88649 -16613791.35247  21423453.522    21423456.604
  21713588.454   -16257880.20049 -12656175.47847  21713587.596    21713593.976
  21721636.305   -16905828.80749 -12636754.59947  21721635.634    21721640.625
  20913822.650   -22379957.13649 -17421676.66448  20913822.102    20913827.256
  21470751.732    -9179134.23149  -7133083.73647  21470750.709    21470756.384
 04  7 13 20 51  0.0000000  0  5G23G 1G11G25G20
  21413254.571   -21390178.75349 -16655557.45147  21413253.753    21413256.904
  21703661.814   -16310044.87249 -12696823.24747  21703660.968    21703667.421
  21731435.274   -16854335.48149 -12596629.96347  21731434.591    21731439.531
  20919736.842   -22348877.47049 -17397458.74548  20919736.328    20919741.478
  21457619.599    -9248144.03249  -7186857.57847  21457618.530    21457624.268
 04  7 13 20 51 30.0000000  0  5G23G 1G11G25G20
  21403102.942   -21443526.14849 -16697126.81747  21403102.101    21403105.200
  21693778.720   -16361980.51249 -12737292.54147  21693777.850    21693784.500
  21741319.507   -16802393.57549 -12556155.77847  21741318.838    21741323.811
  20925741.841   -22317321.19849 -17372869.44648  20925741.321    20925746.428
  21444533.944    -9316909.67649  -7240441.19147  21444532.839    21444538.619
 04  7 13 20 52  0.0000000  0  5G23G 1G11G25G20
  21393001.266   -21496610.46049 -16738491.21247  21393000.384    21393003.481
  21683941.154   -16413676.89049 -12777575.41147  21683940.301    21683947.084
  21751290.466   -16749994.70749 -12515325.53247  21751289.866    21751294.973
  20931839.208   -22285279.25849 -17347901.69248  20931838.630    20931843.783
  21431497.034    -9385418.91649  -7293824.98547  21431495.904    21431501.807
 04  7 13 20 52 30.0000000  0  5G23G 1G11G25G20
  21382948.631   -21549436.77049 -16779654.54947  21382947.784    21382950.971
  21674148.234   -16465139.18149 -12817675.88047  21674147.370    21674154.053
  21761346.663   -16697146.13949 -12474144.86347  21761346.513    21761351.774
  20938027.739   -22252757.93049 -17322560.40648  20938027.185    20938032.290
  21418508.451    -9453674.44749  -7347011.06347  21418507.356    21418513.221
 04  7 13 20 53  0.0000000  0  6G23G 1G11G25G20G14
  21372953.251   -21601961.85549 -16820583.13247  21372952.503    21372955.670
  21664408.150   -16516324.63249 -12857560.60547  21664407.213    21664413.686
  21771496.897   -16643806.73049 -12432581.72947  21771496.677    21771501.844
  20944315.427   -22219716.40649 -17296813.76748  20944314.803    20944319.929
  21405576.587    -9521631.73349  -7399964.77547  21405575.538    21405581.452
                  -1419225.74549  -1125188.83543
 04  7 13 20 53 30.0000000  0  6G23G 1G11G25G20G14
  21363003.978   -21654245.84749 -16861323.88047  21363003.171    21363006.456
  21654709.169   -16567293.20249 -12897276.33547  21654708.217    21654714.688
  21781728.667   -16590038.84049 -12390684.69047  21781728.413    21781733.603
  20950690.364   -22186215.87149 -17270709.45848  20950689.729    20950694.838
  21392690.596    -9589348.61349  -7452731.15447  21392689.489    21392695.359
                  -1334596.82349  -1059242.95143
 04  7 13 20 54  0.0000000  0  5G23G 1G11G25G20
  21353091.574   -21706335.91449 -16901913.54547  21353090.803    21353094.221
  21645042.232   -16618092.58949 -12936860.23047  21645041.350    21645047.901
  21792032.772   -16535891.97549 -12348492.36447  21792032.280    21792037.455
  20957143.225   -22152305.16949 -17244285.54948  20957142.702    20957147.881
  21379841.437    -9656870.68249  -7505345.73147  21379840.414    21379846.148
 04  7 13 20 54 30.0000000  0  6G23G 1G11G25G20G14
  21343226.511   -21758177.67149 -16942309.69347  21343225.692    21343229.040
  21635417.783   -16668668.49249 -12976269.98347  21635416.963    21635423.463
  21802418.838   -16481313.83949 -12305963.99047  21802418.200    21802423.359
  20963684.182   -22117932.03449 -17217501.28248  20963683.664    20963688.753
  21367040.235    -9724141.56649  -7557764.54947  21367039.157    21367044.873
                  -1457936.61319    956784.384 1
 04  7 13 20 55  0.0000000  0  5G23G 1G11G25G20
  21333413.929   -21809743.74049 -16982491.02447  21333413.075    21333416.258
  21625841.258   -16718993.81649 -13015484.49047  21625840.432    21625846.804
  21812891.580   -16426279.26849 -12263079.94647  21812890.959    21812896.095
  20970318.212   -22083070.88549 -17190336.74248  20970317.671    20970322.596
  21354292.281    -9791132.27649  -7609965.07047  21354291.242    21354296.981
 04  7 13 20 55 30.0000000  0  5G23G 1G11G25G20
  21323650.844   -21861049.63149 -17022469.57147  21323649.964    21323652.855
  21616309.442   -16769084.07649 -13054515.83047  21616308.541    21616315.005
  21823447.908   -16370805.64449 -12219853.77647  21823447.261    21823452.269
  20977041.768   -22047738.62849 -17162805.13548  20977041.216    20977046.225
  21341595.078    -9857856.13749  -7661957.67547  21341593.992    21341599.828
 04  7 13 20 56  0.0000000  0  5G23G 1G11G25G20
  21313936.644   -21912097.45049 -17062247.07047  21313935.879    21313938.771
  21606821.745   -16818941.92549 -13093366.06547  21606820.899    21606827.368
  21834086.714   -16314898.15349 -12176289.53247  21834086.186    21834091.144
  20983854.154   -22011939.39149 -17134909.62048  20983853.561    20983858.588
  21328948.740    -9924313.36949  -7713742.50747  21328947.727    21328953.377
 04  7 13 20 56 30.0000000  0  6G23G 1G11G16G25G20
  21304287.153   -21962805.67849 -17101759.94947  21304286.429    21304289.385
  21597393.767   -16868486.03549 -13131971.84447  21597392.866    21597399.444
  21844823.285   -16258477.35049 -12132325.31347  21844822.694    21844827.620
  24651835.888    -4246337.18449  -3285798.61444  24651834.900    24651843.445
  20990770.602   -21975593.09549 -17106587.84148  20990769.962    20990775.005
  21316368.880    -9990420.86149  -7765254.81347  21316367.806    21316373.487
 04  7 13 20 57  0.0000000  0  6G23G 1G11G16G25G20
  21294692.624   -22013225.49749 -17141048.09847  21294691.842    21294694.750
  21588015.703   -16917767.71549 -13170373.13547  21588014.918    21588021.382
  21855647.358   -16201596.55149 -12088002.64547  21855646.770    21855651.750
  24634439.201    -4337753.67949  -3357032.08944  24634438.614    24634447.223
  20997781.078   -21938752.73649 -17077881.06448  20997780.489    20997785.544
  21303846.209   -10056227.81049  -7816532.94047  21303845.055    21303850.825
 04  7 13 20 57 30.0000000  0  6G23G 1G11G16G25G20
  21285137.101   -22063440.67549 -17180176.78947  21285136.227    21285139.214
  21578671.781   -16966870.95349 -13208635.36447  21578670.937    21578677.231
  21866542.543   -16144341.61249 -12043388.44647  21866542.038    21866547.004
  24617029.825    -4429239.41149  -3428319.50744  24617028.826    24617038.102
  21004869.250   -21901503.86549 -17048855.97848  21004868.682    21004873.834
  21291365.020   -10121816.08949  -7867640.67347  21291363.975    21291369.719
 04  7 13 20 58  0.0000000  0  6G23G 1G11G16G25G20
  21275624.659   -22113428.75449 -17219128.50947  21275623.782    21275626.794
  21569365.895   -17015773.62049 -13246741.31147  21569365.050    21569371.308
  21877512.807   -16086692.67649 -11998467.23547  21877512.253    21877517.327
  24599612.223    -4520768.97649  -3499641.09444  24599610.923    24599620.524
  21012039.052   -21863825.86049 -17019496.50048  21012038.578    21012043.740
  21278930.208   -10187161.30849  -7918558.99647  21278929.154    21278934.908
 04  7 13 20 58 30.0000000  0  6G23G 1G11G16G25G20
  21266157.562   -22163177.98249 -17257894.12847  21266156.796    21266159.815
  21560100.327   -17064464.21249 -13284682.01147  21560099.444    21560105.851
  21888559.835   -16028640.36049 -11953231.69847  21888559.246    21888564.481
  24582189.582    -4612328.15649  -3570985.74544  24582188.715    24582197.634
  21019292.503   -21825708.80349 -16989794.91448  21019292.047    21019297.289
  21266544.302   -10252249.90249  -7969277.37947  21266543.248    21266549.030
 04  7 13 20 59  0.0000000  0  6G23G 1G11G16G25G20
  21256737.580   -22212680.32649 -17296467.35547  21256736.807    21256739.729
  21550876.535   -17112934.83849 -13322451.28147  21550875.729    21550882.218
  21899684.813   -15970178.66549 -11907677.16947  21899684.204    21899689.496
  24564762.930    -4703905.76549  -3642344.74145  24564761.909    24564770.931
  21026630.716   -21787146.47549 -16959746.34248  21026630.207    21026635.446
  21254209.103   -10317071.69449  -8019787.83447  21254208.098    21254213.840
 04  7 13 20 59 30.0000000  0  6G23G 1G11G16G25G20
  21247365.489   -22261930.43349 -17334844.01547  21247364.686    21247367.738
  21541695.438   -17161180.48949 -13360045.25247  21541694.755    21541701.267
  21910888.089   -15911304.91549 -11861801.54647  21910887.488    21910893.010
  24547334.319    -4795493.80349  -3713711.85945  24547333.286    24547342.422
  21034054.338   -21748135.39449 -16929348.09948  21034053.877    21034059.012
  21241926.000   -10381619.65749  -8070084.92147  21241925.011    21241930.609
 04  7 13 21  0  0.0000000  0  6G23G 1G11G16G25G20
  21238041.747   -22310926.48249 -17373022.73847  21238041.000    21238044.056
  21532557.806   -17209199.19549 -13397462.41247  21532557.091    21532563.601
  21922169.804   -15852019.28549 -11815605.00447  21922169.248    21922174.669
  24529904.535    -4887087.31449  -3785083.23645  24529903.381    24529912.545
  21041563.344   -21708675.01349 -16898599.78048  21041562.810    21041568.045
  21229695.898   -10445889.62949  -8120165.41747  21229694.888    21229700.361
 04  7 13 21  0 30.0000000  0  6G23G 1G11G16G25G20
  21228766.247   -22359669.29249 -17411004.12347  21228765.492    21228768.579
  21523463.050   -17256992.27249 -13434703.73347  21523462.337    21523468.800
  21933529.210   -15792325.14349 -11769090.11047  21933528.664    21933534.227
  24512474.097    -4978684.41549  -3856457.46445  24512473.178    24512482.363
  21049157.105   -21668768.77549 -16867504.01347  21049156.682    21049161.839
  21217518.905   -10509880.83649  -8170028.66847  21217517.808    21217523.301
 04  7 13 21  1  0.0000000  0  6G23G 1G11G16G25G20
  21219539.332   -22408156.94549 -17448786.67547  21219538.579    21219541.642
  21514411.703   -17304558.06449 -13471767.95047  21514410.943    21514417.290
  21944966.236   -15732222.94149 -11722257.26347  21944965.666    21944971.121
  24495044.094    -5070280.51749  -3927830.89045  24495043.005    24495051.918
  21056836.017   -21628416.02249 -16836060.30547  21056835.606    21056840.637
  21205395.565   -10573589.42149  -8219671.69547  21205394.471    21205399.829
 04  7 13 21  1 30.0000000  0  6G23G 1G11G16G25G20
  21210361.574   -22456386.65049 -17486368.25047  21210360.812    21210363.728
  21505403.952   -17351893.93649 -13508653.03147  21505403.139    21505409.423
  21956481.242   -15671712.35949 -11675106.20647  21956480.574    21956485.908
  24477614.818    -5161869.81049  -3999199.03645  24477614.021    24477622.987
  21064600.056   -21587616.02149 -16804268.09648  21064599.581    21064604.648
  21193326.716   -10637010.82049  -8269090.93447  21193325.666    21193331.070
 04  7 13 21  2  0.0000000  0  6G23G 1G11G16G25G20
  21201233.014   -22504358.03949 -17523748.52847  21201232.192    21201235.042
  21496439.898   -17398999.78049 -13545358.84147  21496439.195    21496445.363
  21968073.440   -15610795.26549 -11627638.38047  21968072.799    21968078.111
  24460187.456    -5253449.17049  -4070559.45345  24460186.816    24460196.031
  21072448.827   -21546370.21249 -16772128.51348  21072448.417    21072453.460
  21181313.108   -10700142.49949  -8318284.43647  21181312.072    21181317.464
 04  7 13 21  2 30.0000000  0  6G23G 1G11G16G25G20
  21192153.023   -22552073.58349 -17560929.43447  21192152.178    21192155.091
  21487519.365   -17445878.30049 -13581887.52547  21487518.581    21487524.644
  21979742.023   -15549477.01549 -11579857.95847  21979741.352    21979746.588
  24442762.507    -5345018.11749  -4141911.73845  24442761.789    24442771.027
  21080381.715   -21504682.70249 -16739644.73748  21080381.286    21080386.338
  21169354.709   -10762985.12749  -8367252.71647  21169353.592    21169358.876
 04  7 13 21  3  0.0000000  0  6G23G 1G11G16G25G20
  21183121.549   -22599533.37649 -17597911.05947  21183120.761    21183123.666
  21478641.713   -17492530.09349 -13618239.52347  21478640.977    21478647.059
  21991486.419   -15487759.88749 -11531766.73347  21991485.782    21991491.040
  24425340.140    -5436574.10449  -4213253.94845  24425339.408    24425348.459
  21088398.124   -21462556.05849 -16706818.80248  21088397.686    21088402.784
  21157451.370   -10825536.82349  -8415994.26647  21157450.292    21157455.809
 04  7 13 21  3 30.0000000  0  6G23G 1G11G16G25G20
  21174138.249   -22646740.45749 -17634695.78847  21174137.519    21174140.445
  21469806.637   -17538958.26149 -13654417.30547  21469805.883    21469812.112
  22003305.556   -15425649.09849 -11483368.75947  22003304.929    22003310.468
  24407921.077    -5528117.35549  -4284586.17645  24407919.609    24407928.161
  21096497.177   -21419995.06049 -16673654.43148  21096496.729    21096501.966
  21145603.450   -10887798.63649  -8464509.94247  21145602.294    21145607.763
 04  7 13 21  4  0.0000000  0  6G23G 1G11G16G25G20
  21165203.958   -22693690.88349 -17671280.50747  21165203.105    21165206.081
  21461014.961   -17585158.93149 -13690417.78547  21461014.100    21461020.427
  22015199.944   -15363142.87149 -11434662.64247  22015199.455    22015205.104
  24390503.952    -5619640.61949  -4355902.93745  24390502.667    24390511.606
  21104679.459   -21376997.30749 -16640149.68348  21104678.985    21104684.115
  21133811.558   -10949764.72949  -8512795.17447  21133810.388    21133816.035
 04  7 13 21  4 30.0000000  0  6G23G 1G11G16G25G20
  21156319.483   -22740378.48549 -17707660.45147  21156318.715    21156321.710
  21452267.413   -17631126.22849 -13726236.43247  21452266.715    21452273.228
  22027170.633   -15300237.70749 -11385645.68947  22027169.998    22027175.467
  24373093.111    -5711134.79449  -4427196.94245  24373091.860    24373100.396
  21112945.644   -21333558.72349 -16606301.43048  21112945.162    21112950.208
  21122077.489   -11011426.79549  -8560843.52247  21122076.461    21122082.129
 04  7 13 21  5  0.0000000  0  6G23G 1G11G16G25G20
  21147483.783   -22786810.51449 -17743841.22947  21147482.982    21147485.998
  21443563.164   -17676867.62749 -13761879.05247  21443562.381    21443568.965
  22039215.146   -15236943.64449 -11336325.66747  22039214.559    22039220.019
  24355687.189    -5802604.50849  -4498471.92345  24355685.808    24355694.246
  21121294.050   -21289688.45849 -16572116.80348  21121293.513    21121298.494
  21110400.383   -11072790.28649  -8608659.20747  21110399.355    21110404.977
 04  7 13 21  5 30.0000000  0  6G23G 1G11G16G25G20
  21138697.160   -22832984.54149 -17779820.96947  21138696.365    21138699.286
  21434902.425   -17722380.79549 -13797343.84647  21434901.646    21434908.088
  22051333.822   -15173260.50649 -11286702.48747  22051333.140    22051338.555
  24338286.420    -5894044.40049  -4569723.66645  24338285.025    24338293.850
  21129724.593   -21245385.93549 -16537595.37148  21129723.957    21129729.021
  21098780.837   -11133850.87049  -8656238.87047  21098779.859    21098785.363
 04  7 13 21  6  0.0000000  0  6G23G 1G11G16G25G20
  21129959.703   -22878900.48049 -17815599.59047  21129958.884    21129961.767
  21426284.956   -17767666.24749 -13832631.21547  21426284.112    21426290.479
  22063525.789   -15109190.94449 -11236778.20947  22063525.180    22063530.503
  24320891.653    -5985451.46949  -4640949.81745  24320890.788    24320899.619
  21138236.858   -21200653.03849 -16502738.60148  21138236.343    21138241.525
  21087219.491   -11194606.42649  -8703580.84347  21087218.503    21087223.903
 04  7 13 21  6 30.0000000  0  6G23G 1G11G16G25G20
  21121270.566   -22924561.74349 -17851179.79447  21121269.759    21121272.606
  21417710.119   -17812727.34349 -13867743.70847  21417709.298    21417715.706
  22075790.271   -15044740.76849 -11186557.32847  22075789.718    22075795.033
  24303503.767    -6076826.10249  -4712150.65545  24303502.615    24303511.338
  21146830.116   -21155495.11249 -16467550.61148  21146829.565    21146834.713
  21075715.977   -11255058.44249  -8750686.27847  21075714.906    21075720.396
 04  7 13 21  7  0.0000000  0  6G23G 1G11G16G25G20
  21112630.648   -22969964.99349 -17886558.92947  21112629.880    21112632.568
  21409178.481   -17857561.11149 -13902679.12047  21409177.605    21409184.159
  22088127.564   -14979909.41749 -11136039.45147  22088126.798    22088132.273
  24286122.307    -6168162.15149  -4783321.47644  24286121.380    24286130.408
  21155504.429   -21109911.00349 -16432030.53547  21155503.909    21155509.060
  21064271.191   -11315201.61949  -8797551.07247  21064270.059    21064275.518
 04  7 13 21  7 30.0000000  0  6G23G 1G11G16G25G20
  21104039.980   -23015109.28149 -17921736.27947  21104039.108    21104041.900
  21400690.300   -17902166.73349 -13937436.72347  21400689.490    21400695.962
  22100536.746   -14914697.86149 -11085225.30447  22100536.177    22100541.629
  24268749.260    -6259455.73549  -4854459.21244  24268748.517    24268757.671
  21164259.789   -21063901.28149 -16396178.80747  21164259.278    21164264.357
  21052885.611   -11375032.90549  -8844172.82347  21052884.501    21052890.103
 04  7 13 21  8  0.0000000  0  6G23G 1G11G16G25G20
  21095498.249   -23059995.81549 -17956712.77847  21095497.421    21095500.286
  21392245.216   -17946545.92049 -13972017.83047  21392244.387    21392250.768
  22113017.954   -14849110.03049 -11034117.93147  22113017.177    22113022.541
  24251385.319    -6350705.12949  -4925562.51345  24251384.444    24251393.401
  21173095.496   -21017469.45849 -16359998.15247  21173094.941    21173100.099
  21041559.574   -11434551.81449  -8890551.17447  21041558.482    21041563.956
 04  7 13 21  8 30.0000000  0  6G23G 1G11G16G25G20
  21087004.776   -23104629.18549 -17991491.99947  21087004.031    21087006.849
  21383842.394   -17990703.38349 -14006426.23347  21383841.575    21383847.865
  22125569.012   -14783153.18249 -10982723.03246  22125568.357    22125573.659
  24234029.391    -6441912.22549  -4996632.84645  24234028.420    24234037.288
  21182010.203   -20970621.93949 -16323493.61547  21182009.650    21182014.938
  21030292.462   -11493760.92949  -8936688.13647  21030291.352    21030296.910
 04  7 13 21  9  0.0000000  0  6G23G 1G11G16G25G20
  21078560.416   -23149005.16349 -18026070.66047  21078559.507    21078562.292
  21375482.337   -18034634.86649 -14040658.53747  21375481.562    21375487.966
  22138190.915   -14716825.47349 -10931039.15846  22138190.120    22138195.541
  24216682.796    -6533069.36349  -5067664.20945  24216681.730    24216690.582
  21191004.560   -20923356.25949 -16286663.25048  21191003.934    21191009.395
  21019085.449   -11552653.74249  -8982578.64447  21019084.460    21019089.958
